Time,TemperatureF,DewpointF,PressureIn,WindDirection,WindDirectionDegrees,WindSpeedMPH,WindSpeedGustMPH,Humidity,HourlyPrecipIn,Conditions,Clouds,dailyrainin,SoftwareType,DateUTC
2013-02-17 00:00:00,31.3,23.6,29.91,NW,319,0.0,0.0,73,0.00,,---,0.00,VWS V14.01,2013-02-17 05:00:00,
2013-02-17 00:01:00,31.1,22.8,29.91,North,349,0.0,0.0,71,0.00,,---,0.00,VWS V14.01,2013-02-17 05:01:00,
2013-02-17 00:02:00,31.1,22.5,29.91,NW,309,0.0,0.0,70,0.00,,---,0.00,VWS V14.01,2013-02-17 05:02:00,
2013-02-17 00:03:00,31.1,22.1,29.91,NW,314,0.0,0.0,69,0.00,,---,0.00,VWS V14.01,2013-02-17 05:03:00,
2013-02-17 00:04:00,31.1,21.4,29.91,NW,313,0.0,0.0,67,0.00,,---,0.00,VWS V14.01,2013-02-17 05:04:00,
2013-02-17 00:05:00,31.1,21.1,29.91,WNW,291,0.0,0.0,66,0.00,,---,0.00,VWS V14.01,2013-02-17 05:05:00,
2013-02-17 00:06:00,31.1,20.7,29.91,NNW,334,0.0,0.0,65,0.00,,---,0.00,VWS V14.01,2013-02-17 05:06:00,
2013-02-17 00:07:00,31.1,20.7,29.91,NW,311,0.0,0.0,65,0.00,,---,0.00,VWS V14.01,2013-02-17 05:07:00,
2013-02-17 00:08:00,31.1,20.4,29.91,NW,305,0.0,0.0,64,0.00,,---,0.00,VWS V14.01,2013-02-17 05:08:00,
2013-02-17 00:09:00,31.1,20.0,29.91,NNW,333,0.0,0.0,63,0.00,,---,0.00,VWS V14.01,2013-02-17 05:09:00,
2013-02-17 00:10:00,30.9,19.1,29.91,NNW,329,0.0,0.0,61,0.00,,---,0.00,VWS V14.01,2013-02-17 05:10:00,
2013-02-17 00:11:00,30.9,18.7,29.91,NW,321,0.0,0.0,60,0.00,,---,0.00,VWS V14.01,2013-02-17 05:11:00,
2013-02-17 00:12:00,30.9,18.3,29.91,NNW,334,0.0,0.0,59,0.00,,---,0.00,VWS V14.01,2013-02-17 05:12:00,
2013-02-17 00:13:00,30.9,17.9,29.91,NNW,337,0.0,0.0,58,0.00,,---,0.00,VWS V14.01,2013-02-17 05:13:00,
2013-02-17 00:14:00,30.7,17.3,29.91,NW,321,0.0,0.0,57,0.00,,---,0.00,VWS V14.01,2013-02-17 05:14:00,
2013-02-17 00:15:00,30.7,16.9,29.91,NW,307,0.0,0.0,56,0.00,,---,0.00,VWS V14.01,2013-02-17 05:15:00,
2013-02-17 00:16:00,30.7,16.9,29.91,WNW,296,0.0,0.0,56,0.00,,---,0.00,VWS V14.01,2013-02-17 05:16:00,
2013-02-17 00:17:00,30.7,16.5,29.91,NNW,328,0.0,0.0,55,0.00,,---,0.00,VWS V14.01,2013-02-17 05:17:00,
2013-02-17 00:18:00,30.7,16.5,29.91,NNW,346,0.0,0.0,55,0.00,,---,0.00,VWS V14.01,2013-02-17 05:18:00,
2013-02-17 00:19:00,30.7,16.5,29.91,NNW,335,0.0,0.0,55,0.00,,---,0.00,VWS V14.01,2013-02-17 05:19:00,
2013-02-17 00:20:00,30.7,16.1,29.91,NW,313,0.0,0.0,54,0.00,,---,0.00,VWS V14.01,2013-02-17 05:20:00,
2013-02-17 00:21:00,30.7,16.1,29.91,NNW,337,0.0,0.0,54,0.00,,---,0.00,VWS V14.01,2013-02-17 05:21:00,
2013-02-17 00:22:00,30.7,16.1,29.91,NNW,334,0.0,0.0,54,0.00,,---,0.00,VWS V14.01,2013-02-17 05:22:00,
2013-02-17 00:23:00,30.6,15.5,29.91,WNW,299,0.0,0.0,53,0.00,,---,0.00,VWS V14.01,2013-02-17 05:23:00,
2013-02-17 00:24:00,30.6,15.5,29.91,NNW,341,0.0,0.0,53,0.00,,---,0.00,VWS V14.01,2013-02-17 05:24:00,
2013-02-17 00:25:00,30.6,15.5,29.91,NW,311,0.0,0.0,53,0.00,,---,0.00,VWS V14.01,2013-02-17 05:25:00,
2013-02-17 00:26:00,30.6,15.5,29.91,NW,310,0.0,0.0,53,0.00,,---,0.00,VWS V14.01,2013-02-17 05:26:00,
2013-02-17 00:27:00,30.4,14.9,29.94,West,275,0.0,0.0,52,0.00,,---,0.00,VWS V14.01,2013-02-17 05:27:00,
2013-02-17 00:28:00,30.4,14.9,29.94,NW,319,0.0,0.0,52,0.00,,---,0.00,VWS V14.01,2013-02-17 05:28:00,
2013-02-17 00:29:00,30.4,14.9,29.94,NW,323,0.0,0.0,52,0.00,,---,0.00,VWS V14.01,2013-02-17 05:29:00,
2013-02-17 00:30:00,30.4,14.9,29.94,NW,325,0.0,0.0,52,0.00,,---,0.00,VWS V14.01,2013-02-17 05:30:00,
2013-02-17 00:31:00,30.4,14.9,29.94,NW,313,0.0,0.0,52,0.00,,---,0.00,VWS V14.01,2013-02-17 05:31:00,
2013-02-17 00:32:00,30.4,14.9,29.94,NW,321,0.0,0.0,52,0.00,,---,0.00,VWS V14.01,2013-02-17 05:32:00,
2013-02-17 00:33:00,30.4,14.9,29.94,NW,318,0.0,0.0,52,0.00,,---,0.00,VWS V14.01,2013-02-17 05:33:00,
2013-02-17 00:34:00,30.2,14.7,29.94,NW,307,0.0,0.0,52,0.00,,---,0.00,VWS V14.01,2013-02-17 05:34:00,
2013-02-17 00:35:00,30.2,14.7,29.94,NW,317,0.0,0.0,52,0.00,,---,0.00,VWS V14.01,2013-02-17 05:35:00,
2013-02-17 00:36:00,30.2,14.7,29.94,NNW,330,0.0,0.0,52,0.00,,---,0.00,VWS V14.01,2013-02-17 05:36:00,
2013-02-17 00:37:00,30.2,14.3,29.94,NW,322,0.0,0.0,51,0.00,,---,0.00,VWS V14.01,2013-02-17 05:37:00,
2013-02-17 00:38:00,30.2,14.3,29.94,NW,311,0.0,0.0,51,0.00,,---,0.00,VWS V14.01,2013-02-17 05:38:00,
2013-02-17 00:39:00,30.2,14.3,29.94,NW,314,0.0,0.0,51,0.00,,---,0.00,VWS V14.01,2013-02-17 05:39:00,
2013-02-17 00:40:00,30.2,14.3,29.94,WNW,303,0.0,0.0,51,0.00,,---,0.00,VWS V14.01,2013-02-17 05:40:00,
2013-02-17 00:41:00,30.2,14.3,29.94,NW,316,0.0,0.0,51,0.00,,---,0.00,VWS V14.01,2013-02-17 05:41:00,
2013-02-17 00:42:00,30.0,14.1,29.94,NNW,328,0.0,0.0,51,0.00,,---,0.00,VWS V14.01,2013-02-17 05:42:00,
2013-02-17 00:43:00,30.0,14.1,29.94,NW,312,0.0,0.0,51,0.00,,---,0.00,VWS V14.01,2013-02-17 05:43:00,
2013-02-17 00:44:00,30.0,14.1,29.94,West,268,0.0,0.0,51,0.00,,---,0.00,VWS V14.01,2013-02-17 05:44:00,
2013-02-17 00:45:00,30.0,14.1,29.94,NW,314,0.0,0.0,51,0.00,,---,0.00,VWS V14.01,2013-02-17 05:45:00,
2013-02-17 00:46:00,29.8,13.9,29.94,NW,311,0.0,0.0,51,0.00,,---,0.00,VWS V14.01,2013-02-17 05:46:00,
2013-02-17 00:47:00,29.8,13.9,29.94,NW,321,0.0,0.0,51,0.00,,---,0.00,VWS V14.01,2013-02-17 05:47:00,
2013-02-17 00:48:00,29.8,13.9,29.94,NW,309,0.0,0.0,51,0.00,,---,0.00,VWS V14.01,2013-02-17 05:48:00,
2013-02-17 00:49:00,29.8,13.9,29.94,NW,308,0.0,0.0,51,0.00,,---,0.00,VWS V14.01,2013-02-17 05:49:00,
2013-02-17 00:50:00,29.8,13.9,29.94,NW,318,0.0,0.0,51,0.00,,---,0.00,VWS V14.01,2013-02-17 05:50:00,
2013-02-17 00:51:00,29.7,13.8,29.94,NW,313,0.0,0.0,51,0.00,,---,0.00,VWS V14.01,2013-02-17 05:51:00,
2013-02-17 00:52:00,29.7,13.8,29.94,WNW,297,0.0,0.0,51,0.00,,---,0.00,VWS V14.01,2013-02-17 05:52:00,
2013-02-17 00:53:00,29.7,13.8,29.94,WNW,289,0.0,0.0,51,0.00,,---,0.00,VWS V14.01,2013-02-17 05:53:00,
2013-02-17 00:54:00,29.7,13.8,29.94,NW,307,0.0,0.0,51,0.00,,---,0.00,VWS V14.01,2013-02-17 05:54:00,
2013-02-17 00:55:00,29.7,13.8,29.94,WNW,302,0.0,0.0,51,0.00,,---,0.00,VWS V14.01,2013-02-17 05:55:00,
2013-02-17 00:56:00,29.7,13.8,29.94,NNW,345,0.0,0.0,51,0.00,,---,0.00,VWS V14.01,2013-02-17 05:56:00,
2013-02-17 00:57:00,29.7,13.8,29.94,NNW,328,0.0,0.0,51,0.00,,---,0.00,VWS V14.01,2013-02-17 05:57:00,
2013-02-17 00:58:00,29.5,13.6,29.94,NW,304,0.0,0.0,51,0.00,,---,0.00,VWS V14.01,2013-02-17 05:58:00,
2013-02-17 00:59:00,29.5,13.6,29.94,NW,312,0.0,0.0,51,0.00,,---,0.00,VWS V14.01,2013-02-17 05:59:00,
2013-02-17 01:00:00,29.5,13.6,29.94,NW,310,0.0,0.0,51,0.00,,---,0.00,VWS V14.01,2013-02-17 06:00:00,
2013-02-17 01:01:00,29.5,13.6,29.94,WNW,302,0.0,0.0,51,0.00,,---,0.00,VWS V14.01,2013-02-17 06:01:00,
2013-02-17 01:02:00,29.5,13.6,29.94,NW,315,0.0,0.0,51,0.00,,---,0.00,VWS V14.01,2013-02-17 06:02:00,
2013-02-17 01:03:00,29.5,13.6,29.94,NW,306,0.0,0.0,51,0.00,,---,0.00,VWS V14.01,2013-02-17 06:03:00,
2013-02-17 01:04:00,29.5,13.6,29.94,NNW,342,0.0,0.0,51,0.00,,---,0.00,VWS V14.01,2013-02-17 06:04:00,
2013-02-17 01:05:00,29.5,13.6,29.94,West,280,0.0,0.0,51,0.00,,---,0.00,VWS V14.01,2013-02-17 06:05:00,
2013-02-17 01:06:00,29.5,13.6,29.94,NW,306,0.0,0.0,51,0.00,,---,0.00,VWS V14.01,2013-02-17 06:06:00,
2013-02-17 01:07:00,29.5,14.0,29.94,NW,323,0.0,0.0,52,0.00,,---,0.00,VWS V14.01,2013-02-17 06:07:00,
2013-02-17 01:08:00,29.3,13.9,29.94,NW,324,0.0,0.0,52,0.00,,---,0.00,VWS V14.01,2013-02-17 06:08:00,
2013-02-17 01:09:00,29.3,13.9,29.94,North,350,0.0,0.0,52,0.00,,---,0.00,VWS V14.01,2013-02-17 06:09:00,
2013-02-17 01:10:00,29.3,13.9,29.94,NW,306,0.0,0.0,52,0.00,,---,0.00,VWS V14.01,2013-02-17 06:10:00,
2013-02-17 01:11:00,29.3,13.9,29.94,NW,319,0.0,0.0,52,0.00,,---,0.00,VWS V14.01,2013-02-17 06:11:00,
2013-02-17 01:12:00,29.3,13.9,29.91,NW,316,0.0,0.0,52,0.00,,---,0.00,VWS V14.01,2013-02-17 06:12:00,
2013-02-17 01:13:00,29.3,13.9,29.91,NW,307,0.0,0.0,52,0.00,,---,0.00,VWS V14.01,2013-02-17 06:13:00,
2013-02-17 01:14:00,29.3,13.9,29.91,West,281,0.0,0.0,52,0.00,,---,0.00,VWS V14.01,2013-02-17 06:14:00,
2013-02-17 01:15:00,29.3,13.9,29.91,NNW,341,0.0,0.0,52,0.00,,---,0.00,VWS V14.01,2013-02-17 06:15:00,
2013-02-17 01:16:00,29.3,13.9,29.91,NW,312,0.0,0.0,52,0.00,,---,0.00,VWS V14.01,2013-02-17 06:16:00,
2013-02-17 01:17:00,29.3,13.9,29.91,WNW,297,0.0,0.0,52,0.00,,---,0.00,VWS V14.01,2013-02-17 06:17:00,
2013-02-17 01:18:00,29.3,13.9,29.91,WNW,295,0.0,0.0,52,0.00,,---,0.00,VWS V14.01,2013-02-17 06:18:00,
2013-02-17 01:19:00,29.3,13.9,29.91,NW,316,0.0,0.0,52,0.00,,---,0.00,VWS V14.01,2013-02-17 06:19:00,
2013-02-17 01:20:00,29.3,13.9,29.91,NW,317,0.0,0.0,52,0.00,,---,0.00,VWS V14.01,2013-02-17 06:20:00,
2013-02-17 01:21:00,29.3,13.9,29.91,WNW,291,0.0,0.0,52,0.00,,---,0.00,VWS V14.01,2013-02-17 06:21:00,
2013-02-17 01:22:00,29.3,13.9,29.91,NW,317,0.0,0.0,52,0.00,,---,0.00,VWS V14.01,2013-02-17 06:22:00,
2013-02-17 01:23:00,29.3,13.9,29.91,NNW,327,0.0,0.0,52,0.00,,---,0.00,VWS V14.01,2013-02-17 06:23:00,
2013-02-17 01:24:00,29.1,13.7,29.91,NW,317,0.0,0.0,52,0.00,,---,0.00,VWS V14.01,2013-02-17 06:24:00,
2013-02-17 01:25:00,29.1,13.7,29.91,WNW,298,0.0,0.0,52,0.00,,---,0.00,VWS V14.01,2013-02-17 06:25:00,
2013-02-17 01:26:00,29.1,13.7,29.91,WNW,284,0.0,0.0,52,0.00,,---,0.00,VWS V14.01,2013-02-17 06:26:00,
2013-02-17 01:27:00,29.1,13.7,29.94,NW,308,0.0,0.0,52,0.00,,---,0.00,VWS V14.01,2013-02-17 06:27:00,
2013-02-17 01:28:00,29.1,13.7,29.94,NW,308,0.0,0.0,52,0.00,,---,0.00,VWS V14.01,2013-02-17 06:28:00,
2013-02-17 01:29:00,29.1,13.7,29.94,WNW,290,0.0,0.0,52,0.00,,---,0.00,VWS V14.01,2013-02-17 06:29:00,
2013-02-17 01:30:00,29.1,13.7,29.94,NW,312,0.0,0.0,52,0.00,,---,0.00,VWS V14.01,2013-02-17 06:30:00,
2013-02-17 01:31:00,29.1,13.7,29.94,WNW,297,0.0,0.0,52,0.00,,---,0.00,VWS V14.01,2013-02-17 06:31:00,
2013-02-17 01:32:00,29.1,13.7,29.94,WNW,298,0.0,0.0,52,0.00,,---,0.00,VWS V14.01,2013-02-17 06:32:00,
2013-02-17 01:33:00,29.1,13.7,29.94,NW,309,0.0,0.0,52,0.00,,---,0.00,VWS V14.01,2013-02-17 06:33:00,
2013-02-17 01:34:00,29.1,13.7,29.94,NW,314,0.0,0.0,52,0.00,,---,0.00,VWS V14.01,2013-02-17 06:34:00,
2013-02-17 01:35:00,29.1,13.7,29.94,WNW,286,0.0,0.0,52,0.00,,---,0.00,VWS V14.01,2013-02-17 06:35:00,
2013-02-17 01:36:00,29.1,13.7,29.94,NW,322,0.0,0.0,52,0.00,,---,0.00,VWS V14.01,2013-02-17 06:36:00,
2013-02-17 01:37:00,29.1,13.7,29.94,NW,304,0.0,0.0,52,0.00,,---,0.00,VWS V14.01,2013-02-17 06:37:00,
2013-02-17 01:38:00,29.1,13.7,29.94,WNW,285,0.0,0.0,52,0.00,,---,0.00,VWS V14.01,2013-02-17 06:38:00,
2013-02-17 01:39:00,29.1,13.7,29.94,West,277,0.0,0.0,52,0.00,,---,0.00,VWS V14.01,2013-02-17 06:39:00,
2013-02-17 01:40:00,29.1,13.7,29.94,NW,305,0.0,0.0,52,0.00,,---,0.00,VWS V14.01,2013-02-17 06:40:00,
2013-02-17 01:41:00,29.1,13.7,29.94,WNW,299,0.0,0.0,52,0.00,,---,0.00,VWS V14.01,2013-02-17 06:41:00,
2013-02-17 01:42:00,29.1,13.7,29.94,NW,322,0.0,0.0,52,0.00,,---,0.00,VWS V14.01,2013-02-17 06:42:00,
2013-02-17 01:43:00,29.1,13.7,29.94,North,350,0.0,0.0,52,0.00,,---,0.00,VWS V14.01,2013-02-17 06:43:00,
2013-02-17 01:44:00,29.1,13.7,29.94,NW,311,0.0,0.0,52,0.00,,---,0.00,VWS V14.01,2013-02-17 06:44:00,
2013-02-17 01:45:00,29.1,13.7,29.94,NW,304,0.0,0.0,52,0.00,,---,0.00,VWS V14.01,2013-02-17 06:45:00,
2013-02-17 01:46:00,29.1,13.7,29.94,NW,305,0.0,0.0,52,0.00,,---,0.00,VWS V14.01,2013-02-17 06:46:00,
2013-02-17 01:47:00,29.1,13.7,29.94,WNW,291,0.0,0.0,52,0.00,,---,0.00,VWS V14.01,2013-02-17 06:47:00,
2013-02-17 01:48:00,29.1,14.1,29.94,WNW,283,0.0,0.0,53,0.00,,---,0.00,VWS V14.01,2013-02-17 06:48:00,
2013-02-17 01:49:00,29.1,14.1,29.94,NW,320,0.0,0.0,53,0.00,,---,0.00,VWS V14.01,2013-02-17 06:49:00,
2013-02-17 01:50:00,29.1,14.1,29.94,WNW,302,0.0,0.0,53,0.00,,---,0.00,VWS V14.01,2013-02-17 06:50:00,
2013-02-17 01:51:00,29.1,14.1,29.94,NW,304,0.0,0.0,53,0.00,,---,0.00,VWS V14.01,2013-02-17 06:51:00,
2013-02-17 01:52:00,29.1,14.1,29.94,WNW,295,0.0,0.0,53,0.00,,---,0.00,VWS V14.01,2013-02-17 06:52:00,
2013-02-17 01:53:00,29.1,14.1,29.94,WNW,285,0.0,0.0,53,0.00,,---,0.00,VWS V14.01,2013-02-17 06:53:00,
2013-02-17 01:54:00,29.1,14.1,29.94,NNW,331,0.0,0.0,53,0.00,,---,0.00,VWS V14.01,2013-02-17 06:54:00,
2013-02-17 01:55:00,29.1,14.1,29.94,WNW,283,0.0,0.0,53,0.00,,---,0.00,VWS V14.01,2013-02-17 06:55:00,
2013-02-17 01:56:00,29.1,14.1,29.94,WNW,288,0.0,0.0,53,0.00,,---,0.00,VWS V14.01,2013-02-17 06:56:00,
2013-02-17 01:57:00,29.1,14.1,29.94,NW,323,0.0,0.0,53,0.00,,---,0.00,VWS V14.01,2013-02-17 06:57:00,
2013-02-17 01:58:00,29.1,14.1,29.94,WNW,292,0.0,0.0,53,0.00,,---,0.00,VWS V14.01,2013-02-17 06:58:00,
2013-02-17 01:59:00,29.1,14.1,29.94,WNW,299,0.0,0.0,53,0.00,,---,0.00,VWS V14.01,2013-02-17 06:59:00,
2013-02-17 02:00:00,29.3,14.3,29.94,WNW,294,0.0,0.0,53,0.00,,---,0.00,VWS V14.01,2013-02-17 07:00:00,
2013-02-17 02:01:00,29.3,14.3,29.94,WNW,290,0.0,0.0,53,0.00,,---,0.00,VWS V14.01,2013-02-17 07:01:00,
2013-02-17 02:02:00,29.3,14.3,29.94,NW,325,0.0,0.0,53,0.00,,---,0.00,VWS V14.01,2013-02-17 07:02:00,
2013-02-17 02:03:00,29.3,14.3,29.94,West,281,0.0,0.0,53,0.00,,---,0.00,VWS V14.01,2013-02-17 07:03:00,
2013-02-17 02:04:00,29.3,14.3,29.94,West,268,0.0,0.0,53,0.00,,---,0.00,VWS V14.01,2013-02-17 07:04:00,
2013-02-17 02:05:00,29.3,14.3,29.94,West,259,0.0,0.0,53,0.00,,---,0.00,VWS V14.01,2013-02-17 07:05:00,
2013-02-17 02:06:00,29.3,14.3,29.94,WNW,298,0.0,0.0,53,0.00,,---,0.00,VWS V14.01,2013-02-17 07:06:00,
2013-02-17 02:07:00,29.3,14.3,29.94,WNW,299,0.0,0.0,53,0.00,,---,0.00,VWS V14.01,2013-02-17 07:07:00,
2013-02-17 02:08:00,29.3,14.7,29.94,NW,310,0.0,0.0,54,0.00,,---,0.00,VWS V14.01,2013-02-17 07:08:00,
2013-02-17 02:09:00,29.3,14.7,29.94,NW,313,0.0,0.0,54,0.00,,---,0.00,VWS V14.01,2013-02-17 07:09:00,
2013-02-17 02:10:00,29.3,14.7,29.94,NW,325,0.0,0.0,54,0.00,,---,0.00,VWS V14.01,2013-02-17 07:10:00,
2013-02-17 02:11:00,29.3,14.7,29.94,WNW,294,0.0,0.0,54,0.00,,---,0.00,VWS V14.01,2013-02-17 07:11:00,
2013-02-17 02:12:00,29.3,14.7,29.94,West,275,0.0,0.0,54,0.00,,---,0.00,VWS V14.01,2013-02-17 07:12:00,
2013-02-17 02:13:00,29.3,14.7,29.94,NNW,327,0.0,0.0,54,0.00,,---,0.00,VWS V14.01,2013-02-17 07:13:00,
2013-02-17 02:14:00,29.3,14.7,29.94,NW,321,0.0,0.0,54,0.00,,---,0.00,VWS V14.01,2013-02-17 07:14:00,
2013-02-17 02:15:00,29.3,14.7,29.94,West,276,0.0,0.0,54,0.00,,---,0.00,VWS V14.01,2013-02-17 07:15:00,
2013-02-17 02:16:00,29.3,14.7,29.94,WNW,283,0.0,0.0,54,0.00,,---,0.00,VWS V14.01,2013-02-17 07:16:00,
2013-02-17 02:17:00,29.3,14.7,29.94,WNW,286,0.0,0.0,54,0.00,,---,0.00,VWS V14.01,2013-02-17 07:17:00,
2013-02-17 02:18:00,29.3,14.7,29.94,WNW,293,0.0,0.0,54,0.00,,---,0.00,VWS V14.01,2013-02-17 07:18:00,
2013-02-17 02:19:00,29.3,14.3,29.94,NW,322,0.0,0.0,53,0.00,,---,0.00,VWS V14.01,2013-02-17 07:19:00,
2013-02-17 02:20:00,29.3,14.3,29.94,West,278,0.0,0.0,53,0.00,,---,0.00,VWS V14.01,2013-02-17 07:20:00,
2013-02-17 02:21:00,29.3,14.3,29.94,West,278,0.0,0.0,53,0.00,,---,0.00,VWS V14.01,2013-02-17 07:21:00,
2013-02-17 02:22:00,29.1,14.1,29.94,WNW,291,0.0,0.0,53,0.00,,---,0.00,VWS V14.01,2013-02-17 07:22:00,
2013-02-17 02:23:00,29.1,14.1,29.94,WNW,290,0.0,0.0,53,0.00,,---,0.00,VWS V14.01,2013-02-17 07:23:00,
2013-02-17 02:24:00,29.1,14.1,29.94,West,274,0.0,0.0,53,0.00,,---,0.00,VWS V14.01,2013-02-17 07:24:00,
2013-02-17 02:25:00,29.1,14.1,29.94,WNW,293,0.0,0.0,53,0.00,,---,0.00,VWS V14.01,2013-02-17 07:25:00,
2013-02-17 02:26:00,29.1,14.1,29.94,WNW,299,0.0,0.0,53,0.00,,---,0.00,VWS V14.01,2013-02-17 07:26:00,
2013-02-17 02:27:00,29.1,14.1,29.94,West,276,0.0,0.0,53,0.00,,---,0.00,VWS V14.01,2013-02-17 07:27:00,
2013-02-17 02:28:00,29.1,14.1,29.94,West,273,0.0,0.0,53,0.00,,---,0.00,VWS V14.01,2013-02-17 07:28:00,
2013-02-17 02:29:00,28.9,13.5,29.94,NNW,338,0.0,0.0,52,0.00,,---,0.00,VWS V14.01,2013-02-17 07:29:00,
2013-02-17 02:30:00,28.9,13.5,29.94,WNW,301,0.0,0.0,52,0.00,,---,0.00,VWS V14.01,2013-02-17 07:30:00,
2013-02-17 02:31:00,28.9,13.5,29.94,West,271,0.0,0.0,52,0.00,,---,0.00,VWS V14.01,2013-02-17 07:31:00,
2013-02-17 02:32:00,28.9,13.5,29.94,West,268,0.0,0.0,52,0.00,,---,0.00,VWS V14.01,2013-02-17 07:32:00,
2013-02-17 02:33:00,28.9,13.5,29.94,NW,316,0.0,0.0,52,0.00,,---,0.00,VWS V14.01,2013-02-17 07:33:00,
2013-02-17 02:34:00,28.9,13.1,29.94,WNW,298,0.0,0.0,51,0.00,,---,0.00,VWS V14.01,2013-02-17 07:34:00,
2013-02-17 02:35:00,28.8,12.9,29.94,NNW,332,0.0,0.0,51,0.00,,---,0.00,VWS V14.01,2013-02-17 07:35:00,
2013-02-17 02:36:00,28.8,12.9,29.94,NW,320,0.0,0.0,51,0.00,,---,0.00,VWS V14.01,2013-02-17 07:36:00,
2013-02-17 02:37:00,28.8,12.9,29.94,WNW,297,0.0,0.0,51,0.00,,---,0.00,VWS V14.01,2013-02-17 07:37:00,
2013-02-17 02:38:00,28.8,12.9,29.94,NW,305,0.0,0.0,51,0.00,,---,0.00,VWS V14.01,2013-02-17 07:38:00,
2013-02-17 02:39:00,28.8,12.5,29.94,NW,319,0.0,0.0,50,0.00,,---,0.00,VWS V14.01,2013-02-17 07:39:00,
2013-02-17 02:40:00,28.8,12.5,29.94,NNW,336,0.0,0.0,50,0.00,,---,0.00,VWS V14.01,2013-02-17 07:40:00,
2013-02-17 02:41:00,28.8,12.5,29.94,NW,306,0.0,0.0,50,0.00,,---,0.00,VWS V14.01,2013-02-17 07:41:00,
2013-02-17 02:42:00,28.6,11.9,29.94,WNW,297,0.0,0.0,49,0.00,,---,0.00,VWS V14.01,2013-02-17 07:42:00,
2013-02-17 02:43:00,28.6,11.9,29.94,West,281,0.0,0.0,49,0.00,,---,0.00,VWS V14.01,2013-02-17 07:43:00,
2013-02-17 02:44:00,28.6,11.9,29.94,NW,307,0.0,0.0,49,0.00,,---,0.00,VWS V14.01,2013-02-17 07:44:00,
2013-02-17 02:45:00,28.6,11.9,29.94,WNW,288,0.0,0.0,49,0.00,,---,0.00,VWS V14.01,2013-02-17 07:45:00,
2013-02-17 02:46:00,28.6,11.9,29.94,West,272,0.0,0.0,49,0.00,,---,0.00,VWS V14.01,2013-02-17 07:46:00,
2013-02-17 02:47:00,28.6,11.9,29.94,NNW,330,0.0,0.0,49,0.00,,---,0.00,VWS V14.01,2013-02-17 07:47:00,
2013-02-17 02:48:00,28.6,11.4,29.94,WNW,303,0.0,0.0,48,0.00,,---,0.00,VWS V14.01,2013-02-17 07:48:00,
2013-02-17 02:49:00,28.4,11.7,29.94,WNW,302,0.0,0.0,49,0.00,,---,0.00,VWS V14.01,2013-02-17 07:49:00,
2013-02-17 02:50:00,28.4,11.2,29.94,WNW,293,0.0,0.0,48,0.00,,---,0.00,VWS V14.01,2013-02-17 07:50:00,
2013-02-17 02:51:00,28.4,11.2,29.94,NW,314,0.0,0.0,48,0.00,,---,0.00,VWS V14.01,2013-02-17 07:51:00,
2013-02-17 02:52:00,28.2,11.1,29.94,WNW,292,0.0,0.0,48,0.00,,---,0.00,VWS V14.01,2013-02-17 07:52:00,
2013-02-17 02:53:00,28.2,11.1,29.94,NW,315,0.0,0.0,48,0.00,,---,0.00,VWS V14.01,2013-02-17 07:53:00,
2013-02-17 02:54:00,28.2,11.1,29.94,NW,314,0.0,0.0,48,0.00,,---,0.00,VWS V14.01,2013-02-17 07:54:00,
2013-02-17 02:55:00,28.2,11.1,29.94,NW,323,0.0,0.0,48,0.00,,---,0.00,VWS V14.01,2013-02-17 07:55:00,
2013-02-17 02:56:00,28.2,11.1,29.94,NW,323,0.0,0.0,48,0.00,,---,0.00,VWS V14.01,2013-02-17 07:56:00,
2013-02-17 02:57:00,28.0,10.9,29.94,WNW,299,0.0,0.0,48,0.00,,---,0.00,VWS V14.01,2013-02-17 07:57:00,
2013-02-17 02:58:00,28.0,10.9,29.94,WNW,297,0.0,0.0,48,0.00,,---,0.00,VWS V14.01,2013-02-17 07:58:00,
2013-02-17 02:59:00,28.0,10.9,29.94,WNW,284,0.0,0.0,48,0.00,,---,0.00,VWS V14.01,2013-02-17 07:59:00,
2013-02-17 03:00:00,28.0,10.4,29.94,NW,306,0.0,0.0,47,0.00,,---,0.00,VWS V14.01,2013-02-17 08:00:00,
2013-02-17 03:01:00,28.0,10.4,29.94,NW,306,0.0,0.0,47,0.00,,---,0.00,VWS V14.01,2013-02-17 08:01:00,
2013-02-17 03:02:00,27.9,10.3,29.94,WNW,289,0.0,0.0,47,0.00,,---,0.00,VWS V14.01,2013-02-17 08:02:00,
2013-02-17 03:03:00,27.9,10.3,29.94,NNW,333,0.0,0.0,47,0.00,,---,0.00,VWS V14.01,2013-02-17 08:03:00,
2013-02-17 03:04:00,27.9,10.3,29.94,NW,305,0.0,0.0,47,0.00,,---,0.00,VWS V14.01,2013-02-17 08:04:00,
2013-02-17 03:05:00,27.9,10.7,29.94,WNW,303,0.0,0.0,48,0.00,,---,0.00,VWS V14.01,2013-02-17 08:05:00,
2013-02-17 03:06:00,27.9,10.7,29.94,WNW,303,0.0,0.0,48,0.00,,---,0.00,VWS V14.01,2013-02-17 08:06:00,
2013-02-17 03:07:00,27.9,10.7,29.94,WNW,288,0.0,0.0,48,0.00,,---,0.00,VWS V14.01,2013-02-17 08:07:00,
2013-02-17 03:08:00,27.7,10.6,29.94,WNW,289,0.0,0.0,48,0.00,,---,0.00,VWS V14.01,2013-02-17 08:08:00,
2013-02-17 03:09:00,27.7,10.6,29.94,West,265,0.0,0.0,48,0.00,,---,0.00,VWS V14.01,2013-02-17 08:09:00,
2013-02-17 03:10:00,27.7,10.6,29.94,NW,314,0.0,0.0,48,0.00,,---,0.00,VWS V14.01,2013-02-17 08:10:00,
2013-02-17 03:11:00,27.7,10.6,29.94,West,281,0.0,0.0,48,0.00,,---,0.00,VWS V14.01,2013-02-17 08:11:00,
2013-02-17 03:12:00,27.5,9.9,29.94,WNW,291,0.0,0.0,47,0.00,,---,0.00,VWS V14.01,2013-02-17 08:12:00,
2013-02-17 03:13:00,27.5,9.9,29.94,WSW,245,0.0,0.0,47,0.00,,---,0.00,VWS V14.01,2013-02-17 08:13:00,
2013-02-17 03:14:00,27.5,9.9,29.94,WNW,286,0.0,0.0,47,0.00,,---,0.00,VWS V14.01,2013-02-17 08:14:00,
2013-02-17 03:15:00,27.5,9.9,29.94,NNW,332,0.0,0.0,47,0.00,,---,0.00,VWS V14.01,2013-02-17 08:15:00,
2013-02-17 03:16:00,27.5,9.9,29.94,WNW,287,0.0,0.0,47,0.00,,---,0.00,VWS V14.01,2013-02-17 08:16:00,
2013-02-17 03:17:00,27.5,9.9,29.94,WNW,302,0.0,0.0,47,0.00,,---,0.00,VWS V14.01,2013-02-17 08:17:00,
2013-02-17 03:18:00,27.3,9.8,29.94,WNW,302,0.0,0.0,47,0.00,,---,0.00,VWS V14.01,2013-02-17 08:18:00,
2013-02-17 03:19:00,27.3,9.8,29.94,WNW,299,0.0,0.0,47,0.00,,---,0.00,VWS V14.01,2013-02-17 08:19:00,
2013-02-17 03:20:00,27.3,10.2,29.94,WNW,297,0.0,0.0,48,0.00,,---,0.00,VWS V14.01,2013-02-17 08:20:00,
2013-02-17 03:21:00,27.3,10.2,29.94,WNW,300,0.0,0.0,48,0.00,,---,0.00,VWS V14.01,2013-02-17 08:21:00,
2013-02-17 03:22:00,27.3,10.2,29.94,NW,314,0.0,0.0,48,0.00,,---,0.00,VWS V14.01,2013-02-17 08:22:00,
2013-02-17 03:23:00,27.1,10.1,29.94,WNW,288,0.0,0.0,48,0.00,,---,0.00,VWS V14.01,2013-02-17 08:23:00,
2013-02-17 03:24:00,27.1,10.1,29.94,West,272,0.0,0.0,48,0.00,,---,0.00,VWS V14.01,2013-02-17 08:24:00,
2013-02-17 03:25:00,27.1,10.1,29.94,WNW,302,0.0,0.0,48,0.00,,---,0.00,VWS V14.01,2013-02-17 08:25:00,
2013-02-17 03:26:00,27.1,10.1,29.94,WNW,283,0.0,0.0,48,0.00,,---,0.00,VWS V14.01,2013-02-17 08:26:00,
2013-02-17 03:27:00,27.0,9.9,29.97,West,280,0.0,0.0,48,0.00,,---,0.00,VWS V14.01,2013-02-17 08:27:00,
2013-02-17 03:28:00,27.0,9.9,29.97,WNW,282,0.0,0.0,48,0.00,,---,0.00,VWS V14.01,2013-02-17 08:28:00,
2013-02-17 03:29:00,27.0,9.9,29.97,WNW,297,0.0,0.0,48,0.00,,---,0.00,VWS V14.01,2013-02-17 08:29:00,
2013-02-17 03:30:00,27.0,9.9,29.97,West,281,0.0,0.0,48,0.00,,---,0.00,VWS V14.01,2013-02-17 08:30:00,
2013-02-17 03:31:00,27.0,9.9,29.97,NW,318,0.0,0.0,48,0.00,,---,0.00,VWS V14.01,2013-02-17 08:31:00,
2013-02-17 03:32:00,27.0,9.9,29.97,WNW,299,0.0,0.0,48,0.00,,---,0.00,VWS V14.01,2013-02-17 08:32:00,
2013-02-17 03:33:00,27.0,9.9,29.97,WNW,282,0.0,0.0,48,0.00,,---,0.00,VWS V14.01,2013-02-17 08:33:00,
2013-02-17 03:34:00,27.0,9.9,29.97,NNW,327,0.0,0.0,48,0.00,,---,0.00,VWS V14.01,2013-02-17 08:34:00,
2013-02-17 03:35:00,26.8,9.7,29.97,NW,311,0.0,0.0,48,0.00,,---,0.00,VWS V14.01,2013-02-17 08:35:00,
2013-02-17 03:36:00,26.8,9.7,29.97,WNW,302,0.0,0.0,48,0.00,,---,0.00,VWS V14.01,2013-02-17 08:36:00,
2013-02-17 03:37:00,26.8,9.7,29.97,WNW,296,0.0,0.0,48,0.00,,---,0.00,VWS V14.01,2013-02-17 08:37:00,
2013-02-17 03:38:00,26.8,9.7,29.97,WNW,295,0.0,0.0,48,0.00,,---,0.00,VWS V14.01,2013-02-17 08:38:00,
2013-02-17 03:39:00,26.8,9.7,29.97,West,280,0.0,0.0,48,0.00,,---,0.00,VWS V14.01,2013-02-17 08:39:00,
2013-02-17 03:40:00,26.6,9.6,29.97,NW,306,0.0,0.0,48,0.00,,---,0.00,VWS V14.01,2013-02-17 08:40:00,
2013-02-17 03:41:00,26.6,9.1,29.97,West,272,0.0,0.0,47,0.00,,---,0.00,VWS V14.01,2013-02-17 08:41:00,
2013-02-17 03:42:00,26.6,9.1,29.97,WNW,282,0.0,0.0,47,0.00,,---,0.00,VWS V14.01,2013-02-17 08:42:00,
2013-02-17 03:43:00,26.6,9.1,29.97,West,273,0.0,0.0,47,0.00,,---,0.00,VWS V14.01,2013-02-17 08:43:00,
2013-02-17 03:44:00,26.6,9.1,29.97,WNW,303,0.0,0.0,47,0.00,,---,0.00,VWS V14.01,2013-02-17 08:44:00,
2013-02-17 03:45:00,26.6,9.1,29.97,WNW,285,0.0,0.0,47,0.00,,---,0.00,VWS V14.01,2013-02-17 08:45:00,
2013-02-17 03:46:00,26.4,8.9,29.97,WNW,289,0.0,0.0,47,0.00,,---,0.00,VWS V14.01,2013-02-17 08:46:00,
2013-02-17 03:47:00,26.4,8.9,29.97,NW,308,0.0,0.0,47,0.00,,---,0.00,VWS V14.01,2013-02-17 08:47:00,
2013-02-17 03:48:00,26.4,8.9,29.97,NW,304,0.0,0.0,47,0.00,,---,0.00,VWS V14.01,2013-02-17 08:48:00,
2013-02-17 03:49:00,26.4,8.9,29.97,West,280,0.0,0.0,47,0.00,,---,0.00,VWS V14.01,2013-02-17 08:49:00,
2013-02-17 03:50:00,26.2,8.8,29.97,WNW,301,0.0,0.0,47,0.00,,---,0.00,VWS V14.01,2013-02-17 08:50:00,
2013-02-17 03:51:00,26.2,8.8,29.97,WNW,290,0.0,0.0,47,0.00,,---,0.00,VWS V14.01,2013-02-17 08:51:00,
2013-02-17 03:52:00,26.2,8.8,29.97,NW,309,0.0,0.0,47,0.00,,---,0.00,VWS V14.01,2013-02-17 08:52:00,
2013-02-17 03:53:00,26.2,8.8,29.97,WNW,294,0.0,0.0,47,0.00,,---,0.00,VWS V14.01,2013-02-17 08:53:00,
2013-02-17 03:54:00,26.1,8.6,29.97,WNW,299,0.0,0.0,47,0.00,,---,0.00,VWS V14.01,2013-02-17 08:54:00,
2013-02-17 03:55:00,26.1,8.6,29.97,WNW,296,0.0,0.0,47,0.00,,---,0.00,VWS V14.01,2013-02-17 08:55:00,
2013-02-17 03:56:00,26.1,8.6,29.97,WNW,289,0.0,0.0,47,0.00,,---,0.00,VWS V14.01,2013-02-17 08:56:00,
2013-02-17 03:57:00,26.1,8.6,29.97,WNW,286,0.0,0.0,47,0.00,,---,0.00,VWS V14.01,2013-02-17 08:57:00,
2013-02-17 03:58:00,26.1,8.6,29.97,NW,307,0.0,0.0,47,0.00,,---,0.00,VWS V14.01,2013-02-17 08:58:00,
2013-02-17 03:59:00,26.1,8.6,29.97,WNW,296,0.0,0.0,47,0.00,,---,0.00,VWS V14.01,2013-02-17 08:59:00,
2013-02-17 04:00:00,26.1,8.6,29.97,West,277,0.0,0.0,47,0.00,,---,0.00,VWS V14.01,2013-02-17 09:00:00,
2013-02-17 04:01:00,26.1,9.1,29.97,West,272,0.0,0.0,48,0.00,,---,0.00,VWS V14.01,2013-02-17 09:01:00,
2013-02-17 04:02:00,26.1,9.1,29.97,WNW,301,0.0,0.0,48,0.00,,---,0.00,VWS V14.01,2013-02-17 09:02:00,
2013-02-17 04:03:00,26.1,9.1,29.97,WNW,299,0.0,0.0,48,0.00,,---,0.00,VWS V14.01,2013-02-17 09:03:00,
2013-02-17 04:04:00,26.1,9.1,29.97,WNW,299,0.0,0.0,48,0.00,,---,0.00,VWS V14.01,2013-02-17 09:04:00,
2013-02-17 04:05:00,26.1,9.1,29.97,West,274,0.0,0.0,48,0.00,,---,0.00,VWS V14.01,2013-02-17 09:05:00,
2013-02-17 04:06:00,26.1,9.1,29.97,WNW,302,0.0,0.0,48,0.00,,---,0.00,VWS V14.01,2013-02-17 09:06:00,
2013-02-17 04:07:00,26.1,9.1,29.97,WNW,294,0.0,0.0,48,0.00,,---,0.00,VWS V14.01,2013-02-17 09:07:00,
2013-02-17 04:08:00,26.1,9.1,29.97,WNW,298,0.0,0.0,48,0.00,,---,0.00,VWS V14.01,2013-02-17 09:08:00,
2013-02-17 04:09:00,26.1,9.1,29.97,West,274,0.0,0.0,48,0.00,,---,0.00,VWS V14.01,2013-02-17 09:09:00,
2013-02-17 04:10:00,26.1,9.1,29.97,West,272,0.0,0.0,48,0.00,,---,0.00,VWS V14.01,2013-02-17 09:10:00,
2013-02-17 04:11:00,26.1,9.1,29.97,NW,314,0.0,0.0,48,0.00,,---,0.00,VWS V14.01,2013-02-17 09:11:00,
2013-02-17 04:12:00,26.1,8.6,29.94,West,273,0.0,0.0,47,0.00,,---,0.00,VWS V14.01,2013-02-17 09:12:00,
2013-02-17 04:13:00,26.1,8.6,29.94,West,273,0.0,0.0,47,0.00,,---,0.00,VWS V14.01,2013-02-17 09:13:00,
2013-02-17 04:14:00,26.1,8.6,29.94,WNW,283,0.0,0.0,47,0.00,,---,0.00,VWS V14.01,2013-02-17 09:14:00,
2013-02-17 04:15:00,26.1,8.6,29.94,WNW,298,0.0,0.0,47,0.00,,---,0.00,VWS V14.01,2013-02-17 09:15:00,
2013-02-17 04:16:00,26.1,8.6,29.94,NW,306,0.0,0.0,47,0.00,,---,0.00,VWS V14.01,2013-02-17 09:16:00,
2013-02-17 04:17:00,26.1,8.6,29.94,WNW,303,0.0,0.0,47,0.00,,---,0.00,VWS V14.01,2013-02-17 09:17:00,
2013-02-17 04:18:00,26.1,8.6,29.94,WNW,294,0.0,0.0,47,0.00,,---,0.00,VWS V14.01,2013-02-17 09:18:00,
2013-02-17 04:19:00,26.1,8.6,29.94,West,268,0.0,0.0,47,0.00,,---,0.00,VWS V14.01,2013-02-17 09:19:00,
2013-02-17 04:20:00,26.1,8.6,29.94,West,269,0.0,0.0,47,0.00,,---,0.00,VWS V14.01,2013-02-17 09:20:00,
2013-02-17 04:21:00,26.1,8.6,29.94,West,278,0.0,0.0,47,0.00,,---,0.00,VWS V14.01,2013-02-17 09:21:00,
2013-02-17 04:22:00,26.1,8.6,29.94,West,280,0.0,0.0,47,0.00,,---,0.00,VWS V14.01,2013-02-17 09:22:00,
2013-02-17 04:23:00,26.1,8.6,29.94,WNW,295,0.0,0.0,47,0.00,,---,0.00,VWS V14.01,2013-02-17 09:23:00,
2013-02-17 04:24:00,26.1,8.6,29.94,West,263,0.0,0.0,47,0.00,,---,0.00,VWS V14.01,2013-02-17 09:24:00,
2013-02-17 04:25:00,26.1,8.6,29.94,West,273,0.0,0.0,47,0.00,,---,0.00,VWS V14.01,2013-02-17 09:25:00,
2013-02-17 04:26:00,26.1,8.6,29.94,WNW,286,0.0,0.0,47,0.00,,---,0.00,VWS V14.01,2013-02-17 09:26:00,
2013-02-17 04:27:00,26.1,8.6,29.97,WNW,293,0.0,0.0,47,0.00,,---,0.00,VWS V14.01,2013-02-17 09:27:00,
2013-02-17 04:28:00,26.1,8.6,29.97,West,270,0.0,0.0,47,0.00,,---,0.00,VWS V14.01,2013-02-17 09:28:00,
2013-02-17 04:29:00,25.9,8.4,29.97,West,275,0.0,0.0,47,0.00,,---,0.00,VWS V14.01,2013-02-17 09:29:00,
2013-02-17 04:30:00,25.9,8.4,29.97,West,271,0.0,0.0,47,0.00,,---,0.00,VWS V14.01,2013-02-17 09:30:00,
2013-02-17 04:31:00,25.9,8.4,29.97,West,262,0.0,0.0,47,0.00,,---,0.00,VWS V14.01,2013-02-17 09:31:00,
2013-02-17 04:32:00,25.9,8.4,29.97,West,263,0.0,0.0,47,0.00,,---,0.00,VWS V14.01,2013-02-17 09:32:00,
2013-02-17 04:33:00,25.9,8.0,29.97,WNW,293,0.0,0.0,46,0.00,,---,0.00,VWS V14.01,2013-02-17 09:33:00,
2013-02-17 04:34:00,25.9,8.0,29.97,West,278,0.0,0.0,46,0.00,,---,0.00,VWS V14.01,2013-02-17 09:34:00,
2013-02-17 04:35:00,25.7,7.8,29.97,WSW,258,0.0,0.0,46,0.00,,---,0.00,VWS V14.01,2013-02-17 09:35:00,
2013-02-17 04:36:00,25.7,7.8,29.97,North,353,0.0,0.0,46,0.00,,---,0.00,VWS V14.01,2013-02-17 09:36:00,
2013-02-17 04:37:00,25.7,7.8,29.97,West,265,0.0,0.0,46,0.00,,---,0.00,VWS V14.01,2013-02-17 09:37:00,
2013-02-17 04:38:00,25.7,7.3,29.97,WNW,293,0.0,0.0,45,0.00,,---,0.00,VWS V14.01,2013-02-17 09:38:00,
2013-02-17 04:39:00,25.7,7.3,29.97,West,276,0.0,0.0,45,0.00,,---,0.00,VWS V14.01,2013-02-17 09:39:00,
2013-02-17 04:40:00,25.7,7.8,29.97,West,273,0.0,0.0,46,0.00,,---,0.00,VWS V14.01,2013-02-17 09:40:00,
2013-02-17 04:41:00,25.7,7.8,29.97,West,273,0.0,0.0,46,0.00,,---,0.00,VWS V14.01,2013-02-17 09:41:00,
2013-02-17 04:42:00,25.7,7.3,29.97,West,267,0.0,0.0,45,0.00,,---,0.00,VWS V14.01,2013-02-17 09:42:00,
2013-02-17 04:43:00,25.7,7.3,29.97,WNW,284,0.0,0.0,45,0.00,,---,0.00,VWS V14.01,2013-02-17 09:43:00,
2013-02-17 04:44:00,25.5,7.2,29.97,WNW,283,0.0,0.0,45,0.00,,---,0.00,VWS V14.01,2013-02-17 09:44:00,
2013-02-17 04:45:00,25.5,7.2,29.97,West,265,0.0,0.0,45,0.00,,---,0.00,VWS V14.01,2013-02-17 09:45:00,
2013-02-17 04:46:00,25.5,7.2,29.97,West,275,0.0,0.0,45,0.00,,---,0.00,VWS V14.01,2013-02-17 09:46:00,
2013-02-17 04:47:00,25.5,7.2,29.97,WNW,283,0.0,0.0,45,0.00,,---,0.00,VWS V14.01,2013-02-17 09:47:00,
2013-02-17 04:48:00,25.5,7.2,29.97,WNW,297,0.0,0.0,45,0.00,,---,0.00,VWS V14.01,2013-02-17 09:48:00,
2013-02-17 04:49:00,25.5,7.2,29.97,WNW,285,0.0,0.0,45,0.00,,---,0.00,VWS V14.01,2013-02-17 09:49:00,
2013-02-17 04:50:00,25.5,7.2,29.97,NW,305,0.0,0.0,45,0.00,,---,0.00,VWS V14.01,2013-02-17 09:50:00,
2013-02-17 04:51:00,25.3,7.0,29.97,West,266,0.0,0.0,45,0.00,,---,0.00,VWS V14.01,2013-02-17 09:51:00,
2013-02-17 04:52:00,25.3,7.0,29.97,West,279,0.0,0.0,45,0.00,,---,0.00,VWS V14.01,2013-02-17 09:52:00,
2013-02-17 04:53:00,25.3,7.0,29.97,West,261,0.0,0.0,45,0.00,,---,0.00,VWS V14.01,2013-02-17 09:53:00,
2013-02-17 04:54:00,25.3,7.0,29.97,West,277,0.0,0.0,45,0.00,,---,0.00,VWS V14.01,2013-02-17 09:54:00,
2013-02-17 04:55:00,25.3,7.0,29.97,West,281,0.0,0.0,45,0.00,,---,0.00,VWS V14.01,2013-02-17 09:55:00,
2013-02-17 04:56:00,25.3,7.0,29.97,NW,308,0.0,0.0,45,0.00,,---,0.00,VWS V14.01,2013-02-17 09:56:00,
2013-02-17 04:57:00,25.3,7.0,29.97,NW,310,0.0,0.0,45,0.00,,---,0.00,VWS V14.01,2013-02-17 09:57:00,
2013-02-17 04:58:00,25.3,7.0,29.97,WSW,254,0.0,0.0,45,0.00,,---,0.00,VWS V14.01,2013-02-17 09:58:00,
2013-02-17 04:59:00,25.3,7.0,29.97,WNW,303,0.0,0.0,45,0.00,,---,0.00,VWS V14.01,2013-02-17 09:59:00,
2013-02-17 05:00:00,25.3,7.0,29.97,WNW,302,0.0,0.0,45,0.00,,---,0.00,VWS V14.01,2013-02-17 10:00:00,
2013-02-17 05:01:00,25.3,7.0,29.97,WNW,291,0.0,0.0,45,0.00,,---,0.00,VWS V14.01,2013-02-17 10:01:00,
2013-02-17 05:02:00,25.3,7.0,29.97,NW,316,0.0,0.0,45,0.00,,---,0.00,VWS V14.01,2013-02-17 10:02:00,
2013-02-17 05:03:00,25.3,7.0,29.97,WNW,301,0.0,0.0,45,0.00,,---,0.00,VWS V14.01,2013-02-17 10:03:00,
2013-02-17 05:04:00,25.3,7.0,29.97,WNW,284,0.0,0.0,45,0.00,,---,0.00,VWS V14.01,2013-02-17 10:04:00,
2013-02-17 05:05:00,25.3,7.0,29.97,West,268,0.0,0.0,45,0.00,,---,0.00,VWS V14.01,2013-02-17 10:05:00,
2013-02-17 05:06:00,25.3,7.0,29.97,WNW,298,0.0,0.0,45,0.00,,---,0.00,VWS V14.01,2013-02-17 10:06:00,
2013-02-17 05:07:00,25.3,7.0,29.97,WSW,256,0.0,0.0,45,0.00,,---,0.00,VWS V14.01,2013-02-17 10:07:00,
2013-02-17 05:08:00,25.3,7.0,29.97,NW,313,0.0,0.0,45,0.00,,---,0.00,VWS V14.01,2013-02-17 10:08:00,
2013-02-17 05:09:00,25.3,7.0,29.97,WNW,291,0.0,0.0,45,0.00,,---,0.00,VWS V14.01,2013-02-17 10:09:00,
2013-02-17 05:10:00,25.3,7.0,29.97,West,273,0.0,0.0,45,0.00,,---,0.00,VWS V14.01,2013-02-17 10:10:00,
2013-02-17 05:11:00,25.2,6.8,29.97,West,280,0.0,0.0,45,0.00,,---,0.00,VWS V14.01,2013-02-17 10:11:00,
2013-02-17 05:12:00,25.2,6.8,29.97,West,268,0.0,0.0,45,0.00,,---,0.00,VWS V14.01,2013-02-17 10:12:00,
2013-02-17 05:13:00,25.2,6.8,29.97,WNW,286,0.0,0.0,45,0.00,,---,0.00,VWS V14.01,2013-02-17 10:13:00,
2013-02-17 05:14:00,25.2,6.8,29.97,West,275,0.0,0.0,45,0.00,,---,0.00,VWS V14.01,2013-02-17 10:14:00,
2013-02-17 05:15:00,25.2,6.8,29.97,NW,304,0.0,0.0,45,0.00,,---,0.00,VWS V14.01,2013-02-17 10:15:00,
2013-02-17 05:16:00,25.2,6.8,29.97,NW,322,0.0,0.0,45,0.00,,---,0.00,VWS V14.01,2013-02-17 10:16:00,
2013-02-17 05:17:00,25.2,6.8,29.97,WSW,251,0.0,0.0,45,0.00,,---,0.00,VWS V14.01,2013-02-17 10:17:00,
2013-02-17 05:18:00,25.2,6.8,29.97,WNW,287,0.0,0.0,45,0.00,,---,0.00,VWS V14.01,2013-02-17 10:18:00,
2013-02-17 05:19:00,25.2,6.8,29.97,NW,312,0.0,0.0,45,0.00,,---,0.00,VWS V14.01,2013-02-17 10:19:00,
2013-02-17 05:20:00,25.2,6.3,29.97,WNW,303,0.0,0.0,44,0.00,,---,0.00,VWS V14.01,2013-02-17 10:20:00,
2013-02-17 05:21:00,25.2,6.3,29.97,WNW,301,0.0,0.0,44,0.00,,---,0.00,VWS V14.01,2013-02-17 10:21:00,
2013-02-17 05:22:00,25.0,6.2,29.97,NW,309,0.0,0.0,44,0.00,,---,0.00,VWS V14.01,2013-02-17 10:22:00,
2013-02-17 05:23:00,25.0,6.2,29.97,West,280,0.0,0.0,44,0.00,,---,0.00,VWS V14.01,2013-02-17 10:23:00,
2013-02-17 05:24:00,25.0,6.2,29.97,NW,313,0.0,0.0,44,0.00,,---,0.00,VWS V14.01,2013-02-17 10:24:00,
2013-02-17 05:25:00,25.0,6.2,29.97,West,278,0.0,0.0,44,0.00,,---,0.00,VWS V14.01,2013-02-17 10:25:00,
2013-02-17 05:26:00,25.0,6.2,29.97,WNW,299,0.0,0.0,44,0.00,,---,0.00,VWS V14.01,2013-02-17 10:26:00,
2013-02-17 05:27:00,25.0,6.2,30.00,NW,326,0.0,0.0,44,0.00,,---,0.00,VWS V14.01,2013-02-17 10:27:00,
2013-02-17 05:28:00,25.0,6.2,30.00,WNW,292,0.0,0.0,44,0.00,,---,0.00,VWS V14.01,2013-02-17 10:28:00,
2013-02-17 05:29:00,25.0,6.2,30.00,WNW,291,0.0,0.0,44,0.00,,---,0.00,VWS V14.01,2013-02-17 10:29:00,
2013-02-17 05:30:00,25.0,6.2,30.00,WNW,289,0.0,0.0,44,0.00,,---,0.00,VWS V14.01,2013-02-17 10:30:00,
2013-02-17 05:31:00,24.8,6.0,30.00,NW,307,0.0,0.0,44,0.00,,---,0.00,VWS V14.01,2013-02-17 10:31:00,
2013-02-17 05:32:00,24.8,6.0,30.00,WNW,283,0.0,0.0,44,0.00,,---,0.00,VWS V14.01,2013-02-17 10:32:00,
2013-02-17 05:33:00,24.8,6.0,30.00,WNW,300,0.0,0.0,44,0.00,,---,0.00,VWS V14.01,2013-02-17 10:33:00,
2013-02-17 05:34:00,24.8,6.0,30.00,WNW,287,0.0,0.0,44,0.00,,---,0.00,VWS V14.01,2013-02-17 10:34:00,
2013-02-17 05:35:00,24.8,6.0,30.00,West,277,0.0,0.0,44,0.00,,---,0.00,VWS V14.01,2013-02-17 10:35:00,
2013-02-17 05:36:00,24.8,6.0,30.00,WNW,303,0.0,0.0,44,0.00,,---,0.00,VWS V14.01,2013-02-17 10:36:00,
2013-02-17 05:37:00,24.8,6.0,30.00,WNW,300,0.0,0.0,44,0.00,,---,0.00,VWS V14.01,2013-02-17 10:37:00,
2013-02-17 05:38:00,24.8,6.0,30.00,WNW,298,0.0,0.0,44,0.00,,---,0.00,VWS V14.01,2013-02-17 10:38:00,
2013-02-17 05:39:00,24.8,6.0,30.00,WNW,301,0.0,0.0,44,0.00,,---,0.00,VWS V14.01,2013-02-17 10:39:00,
2013-02-17 05:40:00,24.8,6.0,30.00,NW,305,0.0,0.0,44,0.00,,---,0.00,VWS V14.01,2013-02-17 10:40:00,
2013-02-17 05:41:00,24.6,5.8,30.00,NW,324,0.0,0.0,44,0.00,,---,0.00,VWS V14.01,2013-02-17 10:41:00,
2013-02-17 05:42:00,24.6,5.8,30.00,WNW,290,0.0,0.0,44,0.00,,---,0.00,VWS V14.01,2013-02-17 10:42:00,
2013-02-17 05:43:00,24.6,5.8,30.00,NW,317,0.0,0.0,44,0.00,,---,0.00,VWS V14.01,2013-02-17 10:43:00,
2013-02-17 05:44:00,24.6,5.8,30.00,NW,318,0.0,0.0,44,0.00,,---,0.00,VWS V14.01,2013-02-17 10:44:00,
2013-02-17 05:45:00,24.6,5.8,30.00,WNW,298,0.0,0.0,44,0.00,,---,0.00,VWS V14.01,2013-02-17 10:45:00,
2013-02-17 05:46:00,24.6,5.8,30.00,WNW,293,0.0,0.0,44,0.00,,---,0.00,VWS V14.01,2013-02-17 10:46:00,
2013-02-17 05:47:00,24.6,5.8,30.00,West,274,0.0,0.0,44,0.00,,---,0.00,VWS V14.01,2013-02-17 10:47:00,
2013-02-17 05:48:00,24.6,5.8,30.00,NW,306,0.0,0.0,44,0.00,,---,0.00,VWS V14.01,2013-02-17 10:48:00,
2013-02-17 05:49:00,24.6,5.8,30.00,NW,312,0.0,0.0,44,0.00,,---,0.00,VWS V14.01,2013-02-17 10:49:00,
2013-02-17 05:50:00,24.4,5.7,30.00,WNW,282,0.0,0.0,44,0.00,,---,0.00,VWS V14.01,2013-02-17 10:50:00,
2013-02-17 05:51:00,24.4,5.7,30.00,NW,312,0.0,0.0,44,0.00,,---,0.00,VWS V14.01,2013-02-17 10:51:00,
2013-02-17 05:52:00,24.4,5.7,30.00,West,275,0.0,0.0,44,0.00,,---,0.00,VWS V14.01,2013-02-17 10:52:00,
2013-02-17 05:53:00,24.4,5.7,30.00,WNW,303,0.0,0.0,44,0.00,,---,0.00,VWS V14.01,2013-02-17 10:53:00,
2013-02-17 05:54:00,24.4,5.7,30.00,West,276,0.0,0.0,44,0.00,,---,0.00,VWS V14.01,2013-02-17 10:54:00,
2013-02-17 05:55:00,24.4,5.7,30.00,NW,314,0.0,0.0,44,0.00,,---,0.00,VWS V14.01,2013-02-17 10:55:00,
2013-02-17 05:56:00,24.4,5.7,30.00,West,274,0.0,0.0,44,0.00,,---,0.00,VWS V14.01,2013-02-17 10:56:00,
2013-02-17 05:57:00,24.4,5.7,30.00,North,353,0.0,0.0,44,0.00,,---,0.00,VWS V14.01,2013-02-17 10:57:00,
2013-02-17 05:58:00,24.4,5.7,30.00,NW,321,0.0,0.0,44,0.00,,---,0.00,VWS V14.01,2013-02-17 10:58:00,
2013-02-17 05:59:00,24.3,5.5,30.00,West,264,0.0,0.0,44,0.00,,---,0.00,VWS V14.01,2013-02-17 10:59:00,
2013-02-17 06:00:00,24.3,5.5,30.00,WNW,293,0.0,0.0,44,0.00,,---,0.00,VWS V14.01,2013-02-17 11:00:00,
2013-02-17 06:01:00,24.3,5.5,30.00,WNW,292,0.0,0.0,44,0.00,,---,0.00,VWS V14.01,2013-02-17 11:01:00,
2013-02-17 06:02:00,24.3,5.5,30.00,WSW,257,0.0,0.0,44,0.00,,---,0.00,VWS V14.01,2013-02-17 11:02:00,
2013-02-17 06:03:00,24.3,5.5,30.00,WNW,301,0.0,0.0,44,0.00,,---,0.00,VWS V14.01,2013-02-17 11:03:00,
2013-02-17 06:04:00,24.3,5.5,30.00,NW,314,0.0,0.0,44,0.00,,---,0.00,VWS V14.01,2013-02-17 11:04:00,
2013-02-17 06:05:00,24.1,5.3,30.00,NW,307,0.0,0.0,44,0.00,,---,0.00,VWS V14.01,2013-02-17 11:05:00,
2013-02-17 06:06:00,24.1,5.3,30.00,NW,308,0.0,0.0,44,0.00,,---,0.00,VWS V14.01,2013-02-17 11:06:00,
2013-02-17 06:07:00,24.1,5.3,30.00,WSW,239,0.0,0.0,44,0.00,,---,0.00,VWS V14.01,2013-02-17 11:07:00,
2013-02-17 06:08:00,24.1,5.3,30.00,NW,313,0.0,0.0,44,0.00,,---,0.00,VWS V14.01,2013-02-17 11:08:00,
2013-02-17 06:09:00,24.1,5.3,30.00,NW,317,0.0,0.0,44,0.00,,---,0.00,VWS V14.01,2013-02-17 11:09:00,
2013-02-17 06:10:00,24.1,5.3,30.00,West,279,0.0,0.0,44,0.00,,---,0.00,VWS V14.01,2013-02-17 11:10:00,
2013-02-17 06:11:00,24.1,5.3,30.00,NW,312,0.0,0.0,44,0.00,,---,0.00,VWS V14.01,2013-02-17 11:11:00,
2013-02-17 06:12:00,24.1,5.3,30.00,WNW,294,0.0,0.0,44,0.00,,---,0.00,VWS V14.01,2013-02-17 11:12:00,
2013-02-17 06:13:00,23.9,5.2,30.00,WNW,300,0.0,0.0,44,0.00,,---,0.00,VWS V14.01,2013-02-17 11:13:00,
2013-02-17 06:14:00,23.9,5.2,30.00,WNW,303,0.0,0.0,44,0.00,,---,0.00,VWS V14.01,2013-02-17 11:14:00,
2013-02-17 06:15:00,23.9,5.2,30.00,NW,317,0.0,0.0,44,0.00,,---,0.00,VWS V14.01,2013-02-17 11:15:00,
2013-02-17 06:16:00,23.9,5.2,30.00,WNW,287,0.0,0.0,44,0.00,,---,0.00,VWS V14.01,2013-02-17 11:16:00,
2013-02-17 06:17:00,23.9,5.2,30.00,West,271,0.0,0.0,44,0.00,,---,0.00,VWS V14.01,2013-02-17 11:17:00,
2013-02-17 06:18:00,23.9,5.2,30.00,WNW,289,0.0,0.0,44,0.00,,---,0.00,VWS V14.01,2013-02-17 11:18:00,
2013-02-17 06:19:00,23.9,5.2,30.00,NW,305,0.0,0.0,44,0.00,,---,0.00,VWS V14.01,2013-02-17 11:19:00,
2013-02-17 06:20:00,23.9,5.2,30.00,WNW,302,0.0,0.0,44,0.00,,---,0.00,VWS V14.01,2013-02-17 11:20:00,
2013-02-17 06:21:00,23.9,5.2,30.00,West,278,0.0,0.0,44,0.00,,---,0.00,VWS V14.01,2013-02-17 11:21:00,
2013-02-17 06:22:00,23.9,5.2,30.00,NW,307,0.0,0.0,44,0.00,,---,0.00,VWS V14.01,2013-02-17 11:22:00,
2013-02-17 06:23:00,23.9,5.2,30.00,SSW,210,0.0,0.0,44,0.00,,---,0.00,VWS V14.01,2013-02-17 11:23:00,
2013-02-17 06:24:00,23.7,5.0,30.00,West,272,0.0,0.0,44,0.00,,---,0.00,VWS V14.01,2013-02-17 11:24:00,
2013-02-17 06:25:00,23.7,5.0,30.00,NNW,335,0.0,0.0,44,0.00,,---,0.00,VWS V14.01,2013-02-17 11:25:00,
2013-02-17 06:26:00,23.7,5.0,30.00,NW,316,0.0,0.0,44,0.00,,---,0.00,VWS V14.01,2013-02-17 11:26:00,
2013-02-17 06:27:00,23.7,5.0,30.03,WNW,289,0.0,0.0,44,0.00,,---,0.00,VWS V14.01,2013-02-17 11:27:00,
2013-02-17 06:28:00,23.7,5.0,30.03,NW,313,0.0,0.0,44,0.00,,---,0.00,VWS V14.01,2013-02-17 11:28:00,
2013-02-17 06:29:00,23.7,5.0,30.03,NW,318,0.0,0.0,44,0.00,,---,0.00,VWS V14.01,2013-02-17 11:29:00,
2013-02-17 06:30:00,23.7,5.0,30.03,West,278,0.0,0.0,44,0.00,,---,0.00,VWS V14.01,2013-02-17 11:30:00,
2013-02-17 06:31:00,23.7,5.0,30.03,NW,310,0.0,0.0,44,0.00,,---,0.00,VWS V14.01,2013-02-17 11:31:00,
2013-02-17 06:32:00,23.7,5.0,30.03,West,281,0.0,0.0,44,0.00,,---,0.00,VWS V14.01,2013-02-17 11:32:00,
2013-02-17 06:33:00,23.7,5.0,30.03,WNW,299,0.0,0.0,44,0.00,,---,0.00,VWS V14.01,2013-02-17 11:33:00,
2013-02-17 06:34:00,23.5,4.8,30.03,WNW,288,0.0,0.0,44,0.00,,---,0.00,VWS V14.01,2013-02-17 11:34:00,
2013-02-17 06:35:00,23.5,4.8,30.03,WNW,283,0.0,0.0,44,0.00,,---,0.00,VWS V14.01,2013-02-17 11:35:00,
2013-02-17 06:36:00,23.5,4.8,30.03,WNW,288,0.0,0.0,44,0.00,,---,0.00,VWS V14.01,2013-02-17 11:36:00,
2013-02-17 06:37:00,23.5,4.8,30.03,WNW,296,0.0,0.0,44,0.00,,---,0.00,VWS V14.01,2013-02-17 11:37:00,
2013-02-17 06:38:00,23.5,4.8,30.03,West,267,0.0,0.0,44,0.00,,---,0.00,VWS V14.01,2013-02-17 11:38:00,
2013-02-17 06:39:00,23.4,4.7,30.03,WNW,285,0.0,0.0,44,0.00,,---,0.00,VWS V14.01,2013-02-17 11:39:00,
2013-02-17 06:40:00,23.4,4.7,30.03,WNW,299,0.0,0.0,44,0.00,,---,0.00,VWS V14.01,2013-02-17 11:40:00,
2013-02-17 06:41:00,23.4,4.7,30.03,West,265,0.0,0.0,44,0.00,,---,0.00,VWS V14.01,2013-02-17 11:41:00,
2013-02-17 06:42:00,23.4,4.7,30.03,WNW,285,0.0,0.0,44,0.00,,---,0.00,VWS V14.01,2013-02-17 11:42:00,
2013-02-17 06:43:00,23.2,4.5,30.03,WNW,289,0.0,0.0,44,0.00,,---,0.00,VWS V14.01,2013-02-17 11:43:00,
2013-02-17 06:44:00,23.2,4.0,30.03,WNW,288,0.0,0.0,43,0.00,,---,0.00,VWS V14.01,2013-02-17 11:44:00,
2013-02-17 06:45:00,23.2,4.0,30.03,WNW,300,0.0,0.0,43,0.00,,---,0.00,VWS V14.01,2013-02-17 11:45:00,
2013-02-17 06:46:00,23.2,4.0,30.03,WNW,301,0.0,0.0,43,0.00,,---,0.00,VWS V14.01,2013-02-17 11:46:00,
2013-02-17 06:47:00,23.2,4.0,30.03,NW,310,0.0,0.0,43,0.00,,---,0.00,VWS V14.01,2013-02-17 11:47:00,
2013-02-17 06:48:00,23.2,4.0,30.03,WNW,298,0.0,0.0,43,0.00,,---,0.00,VWS V14.01,2013-02-17 11:48:00,
2013-02-17 06:49:00,23.2,4.0,30.03,West,266,0.0,0.0,43,0.00,,---,0.00,VWS V14.01,2013-02-17 11:49:00,
2013-02-17 06:50:00,23.2,4.0,30.03,NW,309,0.0,0.0,43,0.00,,---,0.00,VWS V14.01,2013-02-17 11:50:00,
2013-02-17 06:51:00,23.0,4.3,30.03,WNW,294,0.0,0.0,44,0.00,,---,0.00,VWS V14.01,2013-02-17 11:51:00,
2013-02-17 06:52:00,23.0,4.3,30.03,West,275,0.0,0.0,44,0.00,,---,0.00,VWS V14.01,2013-02-17 11:52:00,
2013-02-17 06:53:00,23.0,4.3,30.03,NW,304,0.0,0.0,44,0.00,,---,0.00,VWS V14.01,2013-02-17 11:53:00,
2013-02-17 06:54:00,23.0,4.3,30.03,WNW,303,0.0,0.0,44,0.00,,---,0.00,VWS V14.01,2013-02-17 11:54:00,
2013-02-17 06:55:00,22.8,4.2,30.03,NW,310,0.0,0.0,44,0.00,,---,0.00,VWS V14.01,2013-02-17 11:55:00,
2013-02-17 06:56:00,23.0,3.8,30.03,WSW,252,0.0,0.0,43,0.00,,---,0.00,VWS V14.01,2013-02-17 11:56:00,
2013-02-17 06:57:00,22.8,3.7,30.03,West,272,0.0,0.0,43,0.00,,---,0.00,VWS V14.01,2013-02-17 11:57:00,
2013-02-17 06:58:00,22.8,3.7,30.03,WNW,293,0.0,0.0,43,0.00,,---,0.00,VWS V14.01,2013-02-17 11:58:00,
2013-02-17 06:59:00,22.8,3.7,30.03,West,261,0.0,0.0,43,0.00,,---,0.00,VWS V14.01,2013-02-17 11:59:00,
2013-02-17 07:00:00,22.8,3.7,30.03,WNW,303,0.0,0.0,43,0.00,,---,0.00,VWS V14.01,2013-02-17 12:00:00,
2013-02-17 07:01:00,22.8,3.7,30.03,West,266,0.0,0.0,43,0.00,,---,0.00,VWS V14.01,2013-02-17 12:01:00,
2013-02-17 07:02:00,22.8,3.7,30.03,WSW,258,0.0,0.0,43,0.00,,---,0.00,VWS V14.01,2013-02-17 12:02:00,
2013-02-17 07:03:00,22.8,3.7,30.03,WSW,249,0.0,0.0,43,0.00,,---,0.00,VWS V14.01,2013-02-17 12:03:00,
2013-02-17 07:04:00,22.8,3.7,30.03,WNW,283,0.0,0.0,43,0.00,,---,0.00,VWS V14.01,2013-02-17 12:04:00,
2013-02-17 07:05:00,22.8,3.7,30.03,NW,309,0.0,0.0,43,0.00,,---,0.00,VWS V14.01,2013-02-17 12:05:00,
2013-02-17 07:06:00,22.8,3.7,30.03,West,272,0.0,0.0,43,0.00,,---,0.00,VWS V14.01,2013-02-17 12:06:00,
2013-02-17 07:07:00,22.6,3.5,30.03,WNW,289,0.0,0.0,43,0.00,,---,0.00,VWS V14.01,2013-02-17 12:07:00,
2013-02-17 07:08:00,22.8,3.7,30.03,West,271,0.0,0.0,43,0.00,,---,0.00,VWS V14.01,2013-02-17 12:08:00,
2013-02-17 07:09:00,22.6,3.5,30.03,West,263,0.0,0.0,43,0.00,,---,0.00,VWS V14.01,2013-02-17 12:09:00,
2013-02-17 07:10:00,22.6,3.5,30.03,WNW,297,0.0,0.0,43,0.00,,---,0.00,VWS V14.01,2013-02-17 12:10:00,
2013-02-17 07:11:00,22.6,3.5,30.03,West,260,0.0,0.0,43,0.00,,---,0.00,VWS V14.01,2013-02-17 12:11:00,
2013-02-17 07:12:00,22.6,3.5,30.03,West,277,0.0,0.0,43,0.00,,---,0.00,VWS V14.01,2013-02-17 12:12:00,
2013-02-17 07:13:00,22.6,3.5,30.03,WNW,292,0.0,0.0,43,0.00,,---,0.00,VWS V14.01,2013-02-17 12:13:00,
2013-02-17 07:14:00,22.6,3.5,30.03,NNW,327,0.0,0.0,43,0.00,,---,0.00,VWS V14.01,2013-02-17 12:14:00,
2013-02-17 07:15:00,22.6,3.5,30.03,NW,313,0.0,0.0,43,0.00,,---,0.00,VWS V14.01,2013-02-17 12:15:00,
2013-02-17 07:16:00,22.6,3.5,30.03,West,278,0.0,0.0,43,0.00,,---,0.00,VWS V14.01,2013-02-17 12:16:00,
2013-02-17 07:17:00,22.6,3.5,30.03,West,262,0.0,0.0,43,0.00,,---,0.00,VWS V14.01,2013-02-17 12:17:00,
2013-02-17 07:18:00,22.6,3.5,30.03,NW,307,0.0,0.0,43,0.00,,---,0.00,VWS V14.01,2013-02-17 12:18:00,
2013-02-17 07:19:00,22.6,3.5,30.03,West,271,0.0,0.0,43,0.00,,---,0.00,VWS V14.01,2013-02-17 12:19:00,
2013-02-17 07:20:00,22.6,3.5,30.03,NW,305,0.0,0.0,43,0.00,,---,0.00,VWS V14.01,2013-02-17 12:20:00,
2013-02-17 07:21:00,22.5,3.4,30.03,West,272,0.0,0.0,43,0.00,,---,0.00,VWS V14.01,2013-02-17 12:21:00,
2013-02-17 07:22:00,22.5,3.4,30.03,WNW,293,0.0,0.0,43,0.00,,---,0.00,VWS V14.01,2013-02-17 12:22:00,
2013-02-17 07:23:00,22.5,3.4,30.03,NW,319,0.0,0.0,43,0.00,,---,0.00,VWS V14.01,2013-02-17 12:23:00,
2013-02-17 07:24:00,22.5,3.4,30.03,NW,311,0.0,0.0,43,0.00,,---,0.00,VWS V14.01,2013-02-17 12:24:00,
2013-02-17 07:25:00,22.5,3.4,30.03,WNW,294,0.0,0.0,43,0.00,,---,0.00,VWS V14.01,2013-02-17 12:25:00,
2013-02-17 07:26:00,22.5,3.4,30.03,West,281,0.0,0.0,43,0.00,,---,0.00,VWS V14.01,2013-02-17 12:26:00,
2013-02-17 07:27:00,22.5,3.4,30.06,WNW,295,0.0,0.0,43,0.00,,---,0.00,VWS V14.01,2013-02-17 12:27:00,
2013-02-17 07:28:00,22.5,3.4,30.06,West,271,0.0,0.0,43,0.00,,---,0.00,VWS V14.01,2013-02-17 12:28:00,
2013-02-17 07:29:00,22.5,3.4,30.06,NW,311,0.0,0.0,43,0.00,,---,0.00,VWS V14.01,2013-02-17 12:29:00,
2013-02-17 07:30:00,22.5,3.4,30.06,NW,305,0.0,0.0,43,0.00,,---,0.00,VWS V14.01,2013-02-17 12:30:00,
2013-02-17 07:31:00,22.5,3.4,30.06,West,281,0.0,0.0,43,0.00,,---,0.00,VWS V14.01,2013-02-17 12:31:00,
2013-02-17 07:32:00,22.3,3.2,30.06,WNW,300,0.0,0.0,43,0.00,,---,0.00,VWS V14.01,2013-02-17 12:32:00,
2013-02-17 07:33:00,22.5,3.4,30.06,WNW,301,0.0,0.0,43,0.00,,---,0.00,VWS V14.01,2013-02-17 12:33:00,
2013-02-17 07:34:00,22.5,3.4,30.06,NW,314,0.0,0.0,43,0.00,,---,0.00,VWS V14.01,2013-02-17 12:34:00,
2013-02-17 07:35:00,22.5,3.4,30.06,WNW,300,0.0,0.0,43,0.00,,---,0.00,VWS V14.01,2013-02-17 12:35:00,
2013-02-17 07:36:00,22.5,3.4,30.06,NW,319,0.0,0.0,43,0.00,,---,0.00,VWS V14.01,2013-02-17 12:36:00,
2013-02-17 07:37:00,22.5,3.4,30.06,West,266,0.0,0.0,43,0.00,,---,0.00,VWS V14.01,2013-02-17 12:37:00,
2013-02-17 07:38:00,22.5,3.4,30.06,West,265,0.0,0.0,43,0.00,,---,0.00,VWS V14.01,2013-02-17 12:38:00,
2013-02-17 07:39:00,22.5,3.4,30.06,West,269,0.0,0.0,43,0.00,,---,0.00,VWS V14.01,2013-02-17 12:39:00,
2013-02-17 07:40:00,22.5,3.4,30.06,WNW,297,0.0,0.0,43,0.00,,---,0.00,VWS V14.01,2013-02-17 12:40:00,
2013-02-17 07:41:00,22.5,3.4,30.06,West,264,0.0,0.0,43,0.00,,---,0.00,VWS V14.01,2013-02-17 12:41:00,
2013-02-17 07:42:00,22.5,3.4,30.06,WNW,302,0.0,0.0,43,0.00,,---,0.00,VWS V14.01,2013-02-17 12:42:00,
2013-02-17 07:43:00,22.3,3.2,30.06,NW,305,0.0,0.0,43,0.00,,---,0.00,VWS V14.01,2013-02-17 12:43:00,
2013-02-17 07:44:00,22.5,3.4,30.06,WNW,291,0.0,0.0,43,0.00,,---,0.00,VWS V14.01,2013-02-17 12:44:00,
2013-02-17 07:45:00,22.5,3.4,30.06,NW,317,0.0,0.0,43,0.00,,---,0.00,VWS V14.01,2013-02-17 12:45:00,
2013-02-17 07:46:00,22.5,3.4,30.06,NW,309,0.0,0.0,43,0.00,,---,0.00,VWS V14.01,2013-02-17 12:46:00,
2013-02-17 07:47:00,22.5,3.4,30.06,NW,304,0.0,0.0,43,0.00,,---,0.00,VWS V14.01,2013-02-17 12:47:00,
2013-02-17 07:48:00,22.5,3.4,30.06,WNW,291,0.0,0.0,43,0.00,,---,0.00,VWS V14.01,2013-02-17 12:48:00,
2013-02-17 07:49:00,22.5,3.4,30.06,West,272,0.0,0.0,43,0.00,,---,0.00,VWS V14.01,2013-02-17 12:49:00,
2013-02-17 07:50:00,22.5,3.4,30.06,WNW,293,0.0,0.0,43,0.00,,---,0.00,VWS V14.01,2013-02-17 12:50:00,
2013-02-17 07:51:00,22.5,3.4,30.06,NW,313,0.0,0.0,43,0.00,,---,0.00,VWS V14.01,2013-02-17 12:51:00,
2013-02-17 07:52:00,22.5,3.4,30.06,WNW,290,0.0,0.0,43,0.00,,---,0.00,VWS V14.01,2013-02-17 12:52:00,
2013-02-17 07:53:00,22.5,3.4,30.06,WNW,297,0.0,0.0,43,0.00,,---,0.00,VWS V14.01,2013-02-17 12:53:00,
2013-02-17 07:54:00,22.5,3.4,30.06,WNW,300,0.0,0.0,43,0.00,,---,0.00,VWS V14.01,2013-02-17 12:54:00,
2013-02-17 07:55:00,22.5,3.4,30.06,WNW,287,0.0,0.0,43,0.00,,---,0.00,VWS V14.01,2013-02-17 12:55:00,
2013-02-17 07:56:00,22.5,3.4,30.06,NW,315,0.0,0.0,43,0.00,,---,0.00,VWS V14.01,2013-02-17 12:56:00,
2013-02-17 07:57:00,22.5,3.4,30.03,WNW,299,0.0,0.0,43,0.00,,---,0.00,VWS V14.01,2013-02-17 12:57:00,
2013-02-17 07:58:00,22.5,3.4,30.03,WNW,303,0.0,0.0,43,0.00,,---,0.00,VWS V14.01,2013-02-17 12:58:00,
2013-02-17 07:59:00,22.5,3.4,30.03,WNW,303,0.0,0.0,43,0.00,,---,0.00,VWS V14.01,2013-02-17 12:59:00,
2013-02-17 08:00:00,22.5,3.4,30.03,WNW,302,0.0,0.0,43,0.00,,---,0.00,VWS V14.01,2013-02-17 13:00:00,
2013-02-17 08:01:00,22.5,3.4,30.03,West,270,0.0,0.0,43,0.00,,---,0.00,VWS V14.01,2013-02-17 13:01:00,
2013-02-17 08:02:00,22.6,3.5,30.03,West,274,0.0,0.0,43,0.00,,---,0.00,VWS V14.01,2013-02-17 13:02:00,
2013-02-17 08:03:00,22.5,3.4,30.03,West,268,0.0,0.0,43,0.00,,---,0.00,VWS V14.01,2013-02-17 13:03:00,
2013-02-17 08:04:00,22.6,3.5,30.03,WNW,288,0.0,0.0,43,0.00,,---,0.00,VWS V14.01,2013-02-17 13:04:00,
2013-02-17 08:05:00,22.6,3.5,30.03,West,263,0.0,0.0,43,0.00,,---,0.00,VWS V14.01,2013-02-17 13:05:00,
2013-02-17 08:06:00,22.6,3.5,30.03,West,277,0.0,0.0,43,0.00,,---,0.00,VWS V14.01,2013-02-17 13:06:00,
2013-02-17 08:07:00,22.6,3.5,30.03,West,264,0.0,0.0,43,0.00,,---,0.00,VWS V14.01,2013-02-17 13:07:00,
2013-02-17 08:08:00,22.6,3.5,30.03,WNW,301,0.0,0.0,43,0.00,,---,0.00,VWS V14.01,2013-02-17 13:08:00,
2013-02-17 08:09:00,22.8,3.7,30.03,WSW,251,0.0,0.0,43,0.00,,---,0.00,VWS V14.01,2013-02-17 13:09:00,
2013-02-17 08:10:00,22.8,3.7,30.03,WSW,242,0.0,0.0,43,0.00,,---,0.00,VWS V14.01,2013-02-17 13:10:00,
2013-02-17 08:11:00,22.8,3.7,30.03,West,269,0.0,0.0,43,0.00,,---,0.00,VWS V14.01,2013-02-17 13:11:00,
2013-02-17 08:12:00,22.8,3.7,30.06,NW,304,0.0,0.0,43,0.00,,---,0.00,VWS V14.01,2013-02-17 13:12:00,
2013-02-17 08:13:00,22.8,3.7,30.06,WNW,284,0.0,0.0,43,0.00,,---,0.00,VWS V14.01,2013-02-17 13:13:00,
2013-02-17 08:14:00,22.8,3.7,30.06,West,273,0.0,0.0,43,0.00,,---,0.00,VWS V14.01,2013-02-17 13:14:00,
2013-02-17 08:15:00,22.8,3.7,30.06,WNW,303,0.0,0.0,43,0.00,,---,0.00,VWS V14.01,2013-02-17 13:15:00,
2013-02-17 08:16:00,22.8,3.7,30.06,NW,315,0.0,0.0,43,0.00,,---,0.00,VWS V14.01,2013-02-17 13:16:00,
2013-02-17 08:17:00,23.0,3.8,30.06,West,267,0.0,0.0,43,0.00,,---,0.00,VWS V14.01,2013-02-17 13:17:00,
2013-02-17 08:18:00,23.0,3.8,30.06,West,262,0.0,0.0,43,0.00,,---,0.00,VWS V14.01,2013-02-17 13:18:00,
2013-02-17 08:19:00,23.0,3.8,30.06,NNW,330,0.0,0.0,43,0.00,,---,0.00,VWS V14.01,2013-02-17 13:19:00,
2013-02-17 08:20:00,23.0,3.8,30.06,NNW,344,0.0,0.0,43,0.00,,---,0.00,VWS V14.01,2013-02-17 13:20:00,
2013-02-17 08:21:00,23.2,3.5,30.06,WNW,302,0.0,0.0,42,0.00,,---,0.00,VWS V14.01,2013-02-17 13:21:00,
2013-02-17 08:22:00,23.2,3.5,30.06,WNW,303,0.0,0.0,42,0.00,,---,0.00,VWS V14.01,2013-02-17 13:22:00,
2013-02-17 08:23:00,23.2,3.5,30.06,NW,318,0.0,0.0,42,0.00,,---,0.00,VWS V14.01,2013-02-17 13:23:00,
2013-02-17 08:24:00,23.2,3.5,30.06,West,281,0.0,0.0,42,0.00,,---,0.00,VWS V14.01,2013-02-17 13:24:00,
2013-02-17 08:25:00,23.2,3.5,30.06,West,279,0.0,0.0,42,0.00,,---,0.00,VWS V14.01,2013-02-17 13:25:00,
2013-02-17 08:26:00,23.2,3.5,30.06,WNW,293,0.0,0.0,42,0.00,,---,0.00,VWS V14.01,2013-02-17 13:26:00,
2013-02-17 08:27:00,23.2,3.5,30.06,West,266,0.0,0.0,42,0.00,,---,0.00,VWS V14.01,2013-02-17 13:27:00,
2013-02-17 08:28:00,23.4,3.7,30.06,West,277,0.0,0.0,42,0.00,,---,0.00,VWS V14.01,2013-02-17 13:28:00,
2013-02-17 08:29:00,23.4,3.7,30.06,WSW,245,0.0,0.0,42,0.00,,---,0.00,VWS V14.01,2013-02-17 13:29:00,
2013-02-17 08:30:00,23.5,3.8,30.06,WNW,292,0.0,0.0,42,0.00,,---,0.00,VWS V14.01,2013-02-17 13:30:00,
2013-02-17 08:31:00,23.5,3.8,30.06,NNW,333,0.0,0.0,42,0.00,,---,0.00,VWS V14.01,2013-02-17 13:31:00,
2013-02-17 08:32:00,23.5,3.8,30.06,West,280,0.0,0.0,42,0.00,,---,0.00,VWS V14.01,2013-02-17 13:32:00,
2013-02-17 08:33:00,23.5,3.8,30.06,WNW,301,0.0,0.0,42,0.00,,---,0.00,VWS V14.01,2013-02-17 13:33:00,
2013-02-17 08:34:00,23.5,3.8,30.06,NW,307,0.0,0.0,42,0.00,,---,0.00,VWS V14.01,2013-02-17 13:34:00,
2013-02-17 08:35:00,23.5,3.8,30.06,WNW,282,0.0,0.0,42,0.00,,---,0.00,VWS V14.01,2013-02-17 13:35:00,
2013-02-17 08:36:00,23.5,3.8,30.06,West,279,0.0,0.0,42,0.00,,---,0.00,VWS V14.01,2013-02-17 13:36:00,
2013-02-17 08:37:00,23.5,3.8,30.06,WNW,286,0.0,0.0,42,0.00,,---,0.00,VWS V14.01,2013-02-17 13:37:00,
2013-02-17 08:38:00,23.7,4.0,30.06,WNW,289,0.0,0.0,42,0.00,,---,0.00,VWS V14.01,2013-02-17 13:38:00,
2013-02-17 08:39:00,23.7,4.0,30.06,WNW,301,0.0,0.0,42,0.00,,---,0.00,VWS V14.01,2013-02-17 13:39:00,
2013-02-17 08:40:00,23.7,4.0,30.06,NNW,329,0.0,0.0,42,0.00,,---,0.00,VWS V14.01,2013-02-17 13:40:00,
2013-02-17 08:41:00,23.7,4.0,30.06,WNW,298,0.0,0.0,42,0.00,,---,0.00,VWS V14.01,2013-02-17 13:41:00,
2013-02-17 08:42:00,23.9,4.2,30.09,WNW,300,0.0,0.0,42,0.00,,---,0.00,VWS V14.01,2013-02-17 13:42:00,
2013-02-17 08:43:00,23.7,4.0,30.08,NW,305,0.0,0.0,42,0.00,,---,0.00,VWS V14.01,2013-02-17 13:43:00,
2013-02-17 08:44:00,23.9,4.2,30.08,NW,316,0.0,0.0,42,0.00,,---,0.00,VWS V14.01,2013-02-17 13:44:00,
2013-02-17 08:45:00,23.9,4.2,30.08,NW,311,0.0,0.0,42,0.00,,---,0.00,VWS V14.01,2013-02-17 13:45:00,
2013-02-17 08:46:00,23.9,4.2,30.08,WNW,287,0.0,0.0,42,0.00,,---,0.00,VWS V14.01,2013-02-17 13:46:00,
2013-02-17 08:47:00,23.9,4.2,30.09,NW,320,0.0,0.0,42,0.00,,---,0.00,VWS V14.01,2013-02-17 13:47:00,
2013-02-17 08:48:00,23.9,4.2,30.08,NW,319,0.0,0.0,42,0.00,,---,0.00,VWS V14.01,2013-02-17 13:48:00,
2013-02-17 08:49:00,24.1,4.3,30.08,NW,308,0.0,0.0,42,0.00,,---,0.00,VWS V14.01,2013-02-17 13:49:00,
2013-02-17 08:50:00,24.1,4.3,30.08,WNW,295,0.0,0.0,42,0.00,,---,0.00,VWS V14.01,2013-02-17 13:50:00,
2013-02-17 08:51:00,24.1,4.3,30.08,NW,308,0.0,0.0,42,0.00,,---,0.00,VWS V14.01,2013-02-17 13:51:00,
2013-02-17 08:52:00,24.1,4.3,30.09,West,268,0.0,0.0,42,0.00,,---,0.00,VWS V14.01,2013-02-17 13:52:00,
2013-02-17 08:53:00,24.3,4.5,30.08,WNW,294,0.0,0.0,42,0.00,,---,0.00,VWS V14.01,2013-02-17 13:53:00,
2013-02-17 08:54:00,24.3,4.5,30.08,WNW,285,0.0,0.0,42,0.00,,---,0.00,VWS V14.01,2013-02-17 13:54:00,
2013-02-17 08:55:00,24.3,4.5,30.08,WNW,302,0.0,0.0,42,0.00,,---,0.00,VWS V14.01,2013-02-17 13:55:00,
2013-02-17 08:56:00,24.3,4.5,30.08,WNW,300,0.0,0.0,42,0.00,,---,0.00,VWS V14.01,2013-02-17 13:56:00,
2013-02-17 08:57:00,24.3,4.5,30.09,West,272,0.0,0.0,42,0.00,,---,0.00,VWS V14.01,2013-02-17 13:57:00,
2013-02-17 08:58:00,24.3,4.5,30.08,West,266,0.0,0.0,42,0.00,,---,0.00,VWS V14.01,2013-02-17 13:58:00,
2013-02-17 08:59:00,24.4,4.7,30.08,West,278,0.0,0.0,42,0.00,,---,0.00,VWS V14.01,2013-02-17 13:59:00,
2013-02-17 09:00:00,24.4,4.7,30.08,NW,324,0.0,0.0,42,0.00,,---,0.00,VWS V14.01,2013-02-17 14:00:00,
2013-02-17 09:01:00,24.4,4.7,30.08,NW,309,0.0,0.0,42,0.00,,---,0.00,VWS V14.01,2013-02-17 14:01:00,
2013-02-17 09:02:00,24.4,4.7,30.09,West,267,0.0,0.0,42,0.00,,---,0.00,VWS V14.01,2013-02-17 14:02:00,
2013-02-17 09:03:00,24.4,4.7,30.08,NW,314,0.0,0.0,42,0.00,,---,0.00,VWS V14.01,2013-02-17 14:03:00,
2013-02-17 09:04:00,24.4,4.7,30.08,WNW,286,0.0,0.0,42,0.00,,---,0.00,VWS V14.01,2013-02-17 14:04:00,
2013-02-17 09:05:00,24.4,4.7,30.08,West,275,0.0,0.0,42,0.00,,---,0.00,VWS V14.01,2013-02-17 14:05:00,
2013-02-17 09:06:00,24.4,4.7,30.08,WNW,293,0.0,0.0,42,0.00,,---,0.00,VWS V14.01,2013-02-17 14:06:00,
2013-02-17 09:07:00,24.6,4.8,30.09,NW,310,0.0,0.0,42,0.00,,---,0.00,VWS V14.01,2013-02-17 14:07:00,
2013-02-17 09:08:00,24.6,4.8,30.08,WNW,286,0.0,0.0,42,0.00,,---,0.00,VWS V14.01,2013-02-17 14:08:00,
2013-02-17 09:09:00,24.6,4.8,30.08,WNW,291,0.0,0.0,42,0.00,,---,0.00,VWS V14.01,2013-02-17 14:09:00,
2013-02-17 09:10:00,24.6,4.8,30.08,WNW,286,0.0,0.0,42,0.00,,---,0.00,VWS V14.01,2013-02-17 14:10:00,
2013-02-17 09:11:00,24.8,5.0,30.08,WNW,290,0.0,0.0,42,0.00,,---,0.00,VWS V14.01,2013-02-17 14:11:00,
2013-02-17 09:12:00,24.6,4.8,30.09,WNW,298,0.0,0.0,42,0.00,,---,0.00,VWS V14.01,2013-02-17 14:12:00,
2013-02-17 09:13:00,24.8,5.0,30.08,WNW,292,0.0,0.0,42,0.00,,---,0.00,VWS V14.01,2013-02-17 14:13:00,
2013-02-17 09:14:00,24.8,5.0,30.08,West,279,0.0,0.0,42,0.00,,---,0.00,VWS V14.01,2013-02-17 14:14:00,
2013-02-17 09:15:00,24.8,5.0,30.08,NW,325,0.0,0.0,42,0.00,,---,0.00,VWS V14.01,2013-02-17 14:15:00,
2013-02-17 09:16:00,24.8,5.0,30.08,WNW,297,0.0,0.0,42,0.00,,---,0.00,VWS V14.01,2013-02-17 14:16:00,
2013-02-17 09:17:00,24.8,5.0,30.09,West,276,0.0,0.0,42,0.00,,---,0.00,VWS V14.01,2013-02-17 14:17:00,
2013-02-17 09:18:00,24.8,5.0,30.08,NNW,339,0.0,0.0,42,0.00,,---,0.00,VWS V14.01,2013-02-17 14:18:00,
2013-02-17 09:19:00,25.0,5.1,30.08,WNW,289,0.0,0.0,42,0.00,,---,0.00,VWS V14.01,2013-02-17 14:19:00,
2013-02-17 09:20:00,25.0,5.1,30.08,West,278,0.0,0.0,42,0.00,,---,0.00,VWS V14.01,2013-02-17 14:20:00,
2013-02-17 09:21:00,25.0,5.1,30.08,NNW,327,0.0,0.0,42,0.00,,---,0.00,VWS V14.01,2013-02-17 14:21:00,
2013-02-17 09:22:00,25.0,5.1,30.09,WNW,300,0.0,0.0,42,0.00,,---,0.00,VWS V14.01,2013-02-17 14:22:00,
2013-02-17 09:23:00,25.0,5.1,30.08,WSW,250,0.0,0.0,42,0.00,,---,0.00,VWS V14.01,2013-02-17 14:23:00,
2013-02-17 09:24:00,25.0,5.1,30.08,WNW,299,0.0,0.0,42,0.00,,---,0.00,VWS V14.01,2013-02-17 14:24:00,
2013-02-17 09:25:00,25.0,5.1,30.08,NW,314,0.0,0.0,42,0.00,,---,0.00,VWS V14.01,2013-02-17 14:25:00,
2013-02-17 09:26:00,25.2,5.3,30.08,NW,309,0.0,0.0,42,0.00,,---,0.00,VWS V14.01,2013-02-17 14:26:00,
2013-02-17 09:27:00,25.2,5.3,30.09,WNW,300,0.0,0.0,42,0.00,,---,0.00,VWS V14.01,2013-02-17 14:27:00,
2013-02-17 09:28:00,25.2,5.3,30.08,WNW,283,0.0,0.0,42,0.00,,---,0.00,VWS V14.01,2013-02-17 14:28:00,
2013-02-17 09:29:00,25.2,5.3,30.08,WNW,300,0.0,0.0,42,0.00,,---,0.00,VWS V14.01,2013-02-17 14:29:00,
2013-02-17 09:30:00,25.2,5.3,30.08,WNW,303,0.0,0.0,42,0.00,,---,0.00,VWS V14.01,2013-02-17 14:30:00,
2013-02-17 09:31:00,25.2,5.3,30.08,West,281,0.0,0.0,42,0.00,,---,0.00,VWS V14.01,2013-02-17 14:31:00,
2013-02-17 09:32:00,25.2,5.3,30.09,WNW,299,0.0,0.0,42,0.00,,---,0.00,VWS V14.01,2013-02-17 14:32:00,
2013-02-17 09:33:00,25.2,5.3,30.08,WNW,294,0.0,0.0,42,0.00,,---,0.00,VWS V14.01,2013-02-17 14:33:00,
2013-02-17 09:34:00,25.3,5.5,30.08,WNW,283,0.0,0.0,42,0.00,,---,0.00,VWS V14.01,2013-02-17 14:34:00,
2013-02-17 09:35:00,25.3,5.5,30.08,WNW,299,0.0,0.0,42,0.00,,---,0.00,VWS V14.01,2013-02-17 14:35:00,
2013-02-17 09:36:00,25.3,5.5,30.08,WNW,296,0.0,0.0,42,0.00,,---,0.00,VWS V14.01,2013-02-17 14:36:00,
2013-02-17 09:37:00,25.3,5.5,30.09,NW,321,0.0,0.0,42,0.00,,---,0.00,VWS V14.01,2013-02-17 14:37:00,
2013-02-17 09:38:00,25.3,5.5,30.08,NNW,328,0.0,0.0,42,0.00,,---,0.00,VWS V14.01,2013-02-17 14:38:00,
2013-02-17 09:39:00,25.3,5.5,30.08,NW,325,0.0,0.0,42,0.00,,---,0.00,VWS V14.01,2013-02-17 14:39:00,
2013-02-17 09:40:00,25.5,5.6,30.08,NW,324,0.0,0.0,42,0.00,,---,0.00,VWS V14.01,2013-02-17 14:40:00,
2013-02-17 09:41:00,25.5,5.6,30.08,West,277,0.0,0.0,42,0.00,,---,0.00,VWS V14.01,2013-02-17 14:41:00,
2013-02-17 09:42:00,25.5,5.6,30.09,WSW,251,0.0,0.0,42,0.00,,---,0.00,VWS V14.01,2013-02-17 14:42:00,
2013-02-17 09:43:00,25.5,5.6,30.08,NNW,336,0.0,0.0,42,0.00,,---,0.00,VWS V14.01,2013-02-17 14:43:00,
2013-02-17 09:44:00,25.7,5.8,30.08,NW,325,0.0,0.0,42,0.00,,---,0.00,VWS V14.01,2013-02-17 14:44:00,
2013-02-17 09:45:00,25.7,5.8,30.08,West,265,0.0,0.0,42,0.00,,---,0.00,VWS V14.01,2013-02-17 14:45:00,
2013-02-17 09:46:00,25.7,5.8,30.08,NW,305,0.0,0.0,42,0.00,,---,0.00,VWS V14.01,2013-02-17 14:46:00,
2013-02-17 09:47:00,25.7,5.8,30.09,WNW,292,0.0,0.0,42,0.00,,---,0.00,VWS V14.01,2013-02-17 14:47:00,
2013-02-17 09:48:00,25.7,5.8,30.08,West,266,0.0,0.0,42,0.00,,---,0.00,VWS V14.01,2013-02-17 14:48:00,
2013-02-17 09:49:00,25.7,5.8,30.08,WNW,291,0.0,0.0,42,0.00,,---,0.00,VWS V14.01,2013-02-17 14:49:00,
2013-02-17 09:50:00,25.7,5.8,30.08,WNW,302,0.0,0.0,42,0.00,,---,0.00,VWS V14.01,2013-02-17 14:50:00,
2013-02-17 09:51:00,25.7,5.8,30.08,NW,304,0.0,0.0,42,0.00,,---,0.00,VWS V14.01,2013-02-17 14:51:00,
2013-02-17 09:52:00,25.7,5.8,30.09,NW,322,0.0,0.0,42,0.00,,---,0.00,VWS V14.01,2013-02-17 14:52:00,
2013-02-17 09:53:00,25.7,5.8,30.08,WSW,258,0.0,0.0,42,0.00,,---,0.00,VWS V14.01,2013-02-17 14:53:00,
2013-02-17 09:54:00,25.7,5.8,30.08,NW,307,0.0,0.0,42,0.00,,---,0.00,VWS V14.01,2013-02-17 14:54:00,
2013-02-17 09:55:00,25.7,5.8,30.08,NNW,329,0.0,0.0,42,0.00,,---,0.00,VWS V14.01,2013-02-17 14:55:00,
2013-02-17 09:56:00,25.7,5.8,30.08,WNW,299,0.0,0.0,42,0.00,,---,0.00,VWS V14.01,2013-02-17 14:56:00,
2013-02-17 09:57:00,25.5,5.6,30.09,NW,315,0.0,0.0,42,0.00,,---,0.00,VWS V14.01,2013-02-17 14:57:00,
2013-02-17 09:58:00,25.7,5.8,30.08,NNW,327,0.0,0.0,42,0.00,,---,0.00,VWS V14.01,2013-02-17 14:58:00,
2013-02-17 09:59:00,25.7,5.8,30.08,WNW,300,0.0,0.0,42,0.00,,---,0.00,VWS V14.01,2013-02-17 14:59:00,
2013-02-17 10:00:00,25.9,6.0,30.08,NW,310,0.0,0.0,42,0.00,,---,0.00,VWS V14.01,2013-02-17 15:00:00,
2013-02-17 10:01:00,25.9,6.0,30.08,WNW,286,0.0,0.0,42,0.00,,---,0.00,VWS V14.01,2013-02-17 15:01:00,
2013-02-17 10:02:00,25.9,6.0,30.09,West,264,0.0,0.0,42,0.00,,---,0.00,VWS V14.01,2013-02-17 15:02:00,
2013-02-17 10:03:00,25.9,6.0,30.08,WNW,295,0.0,0.0,42,0.00,,---,0.00,VWS V14.01,2013-02-17 15:03:00,
2013-02-17 10:04:00,25.9,6.0,30.08,NW,322,0.0,0.0,42,0.00,,---,0.00,VWS V14.01,2013-02-17 15:04:00,
2013-02-17 10:05:00,26.1,6.1,30.08,NW,322,0.0,0.0,42,0.00,,---,0.00,VWS V14.01,2013-02-17 15:05:00,
2013-02-17 10:06:00,26.1,6.1,30.08,NW,314,0.0,0.0,42,0.00,,---,0.00,VWS V14.01,2013-02-17 15:06:00,
2013-02-17 10:07:00,26.1,6.1,30.09,WNW,290,0.0,0.0,42,0.00,,---,0.00,VWS V14.01,2013-02-17 15:07:00,
2013-02-17 10:08:00,26.1,6.1,30.08,West,262,0.0,0.0,42,0.00,,---,0.00,VWS V14.01,2013-02-17 15:08:00,
2013-02-17 10:09:00,26.1,6.1,30.08,WNW,286,0.0,0.0,42,0.00,,---,0.00,VWS V14.01,2013-02-17 15:09:00,
2013-02-17 10:10:00,26.1,6.1,30.08,WNW,286,0.0,0.0,42,0.00,,---,0.00,VWS V14.01,2013-02-17 15:10:00,
2013-02-17 10:11:00,26.1,6.1,30.08,WNW,300,0.0,0.0,42,0.00,,---,0.00,VWS V14.01,2013-02-17 15:11:00,
2013-02-17 10:12:00,26.1,6.1,30.09,WNW,290,0.0,0.0,42,0.00,,---,0.00,VWS V14.01,2013-02-17 15:12:00,
2013-02-17 10:13:00,26.1,6.1,30.08,WNW,292,0.0,0.0,42,0.00,,---,0.00,VWS V14.01,2013-02-17 15:13:00,
2013-02-17 10:14:00,26.2,6.3,30.08,WNW,293,0.0,0.0,42,0.00,,---,0.00,VWS V14.01,2013-02-17 15:14:00,
2013-02-17 10:15:00,26.1,6.1,30.08,WNW,293,0.0,0.0,42,0.00,,---,0.00,VWS V14.01,2013-02-17 15:15:00,
2013-02-17 10:16:00,26.2,6.3,30.08,West,265,0.0,0.0,42,0.00,,---,0.00,VWS V14.01,2013-02-17 15:16:00,
2013-02-17 10:17:00,26.2,6.3,30.09,West,279,0.0,0.0,42,0.00,,---,0.00,VWS V14.01,2013-02-17 15:17:00,
2013-02-17 10:18:00,26.2,6.3,30.08,WNW,287,0.0,0.0,42,0.00,,---,0.00,VWS V14.01,2013-02-17 15:18:00,
2013-02-17 10:19:00,26.2,6.3,30.08,NW,313,0.0,0.0,42,0.00,,---,0.00,VWS V14.01,2013-02-17 15:19:00,
2013-02-17 10:20:00,26.2,6.3,30.08,WSW,251,0.0,0.0,42,0.00,,---,0.00,VWS V14.01,2013-02-17 15:20:00,
2013-02-17 10:21:00,26.2,6.3,30.08,WNW,282,0.0,0.0,42,0.00,,---,0.00,VWS V14.01,2013-02-17 15:21:00,
2013-02-17 10:22:00,26.2,6.3,30.09,WNW,288,0.0,0.0,42,0.00,,---,0.00,VWS V14.01,2013-02-17 15:22:00,
2013-02-17 10:23:00,26.2,6.3,30.08,West,278,0.0,0.0,42,0.00,,---,0.00,VWS V14.01,2013-02-17 15:23:00,
2013-02-17 10:24:00,26.4,6.4,30.08,WNW,297,0.0,0.0,42,0.00,,---,0.00,VWS V14.01,2013-02-17 15:24:00,
2013-02-17 10:25:00,26.4,6.4,30.08,WSW,258,0.0,0.0,42,0.00,,---,0.00,VWS V14.01,2013-02-17 15:25:00,
2013-02-17 10:26:00,26.4,6.4,30.08,WSW,253,0.0,0.0,42,0.00,,---,0.00,VWS V14.01,2013-02-17 15:26:00,
2013-02-17 10:27:00,26.6,6.6,30.11,WNW,291,0.0,0.0,42,0.00,,---,0.00,VWS V14.01,2013-02-17 15:27:00,
2013-02-17 10:28:00,26.6,6.6,30.11,WNW,296,0.0,0.0,42,0.00,,---,0.00,VWS V14.01,2013-02-17 15:28:00,
2013-02-17 10:29:00,26.6,6.6,30.11,NW,311,0.0,0.0,42,0.00,,---,0.00,VWS V14.01,2013-02-17 15:29:00,
2013-02-17 10:30:00,26.6,6.6,30.11,NW,317,0.0,0.0,42,0.00,,---,0.00,VWS V14.01,2013-02-17 15:30:00,
2013-02-17 10:31:00,26.6,6.6,30.11,NW,324,0.0,0.0,42,0.00,,---,0.00,VWS V14.01,2013-02-17 15:31:00,
2013-02-17 10:32:00,26.8,6.2,30.11,NW,304,0.0,0.0,41,0.00,,---,0.00,VWS V14.01,2013-02-17 15:32:00,
2013-02-17 10:33:00,26.8,6.2,30.11,WNW,292,0.0,0.0,41,0.00,,---,0.00,VWS V14.01,2013-02-17 15:33:00,
2013-02-17 10:34:00,26.8,6.2,30.11,WNW,300,0.0,0.0,41,0.00,,---,0.00,VWS V14.01,2013-02-17 15:34:00,
2013-02-17 10:35:00,27.0,6.4,30.11,NW,324,0.0,0.0,41,0.00,,---,0.00,VWS V14.01,2013-02-17 15:35:00,
2013-02-17 10:36:00,27.0,6.4,30.11,NW,319,0.0,0.0,41,0.00,,---,0.00,VWS V14.01,2013-02-17 15:36:00,
2013-02-17 10:37:00,27.0,6.4,30.11,WNW,295,0.0,0.0,41,0.00,,---,0.00,VWS V14.01,2013-02-17 15:37:00,
2013-02-17 10:38:00,27.0,6.4,30.11,WNW,295,0.0,0.0,41,0.00,,---,0.00,VWS V14.01,2013-02-17 15:38:00,
2013-02-17 10:39:00,27.0,6.4,30.11,WSW,252,0.0,0.0,41,0.00,,---,0.00,VWS V14.01,2013-02-17 15:39:00,
2013-02-17 10:40:00,27.0,6.4,30.11,West,272,0.0,0.0,41,0.00,,---,0.00,VWS V14.01,2013-02-17 15:40:00,
2013-02-17 10:41:00,27.0,6.4,30.11,NW,312,0.0,0.0,41,0.00,,---,0.00,VWS V14.01,2013-02-17 15:41:00,
2013-02-17 10:42:00,27.0,6.4,30.11,WNW,293,0.0,0.0,41,0.00,,---,0.00,VWS V14.01,2013-02-17 15:42:00,
2013-02-17 10:43:00,27.1,6.6,30.11,WNW,293,0.0,0.0,41,0.00,,---,0.00,VWS V14.01,2013-02-17 15:43:00,
2013-02-17 10:44:00,27.1,6.6,30.11,West,276,0.0,0.0,41,0.00,,---,0.00,VWS V14.01,2013-02-17 15:44:00,
2013-02-17 10:45:00,27.1,6.6,30.11,WNW,290,0.0,0.0,41,0.00,,---,0.00,VWS V14.01,2013-02-17 15:45:00,
2013-02-17 10:46:00,27.3,6.7,30.11,NW,305,0.0,0.0,41,0.00,,---,0.00,VWS V14.01,2013-02-17 15:46:00,
2013-02-17 10:47:00,27.3,6.7,30.11,West,279,0.0,0.0,41,0.00,,---,0.00,VWS V14.01,2013-02-17 15:47:00,
2013-02-17 10:48:00,27.1,6.6,30.11,WNW,295,0.0,0.0,41,0.00,,---,0.00,VWS V14.01,2013-02-17 15:48:00,
2013-02-17 10:49:00,27.1,6.6,30.11,West,278,0.0,0.0,41,0.00,,---,0.00,VWS V14.01,2013-02-17 15:49:00,
2013-02-17 10:50:00,27.0,6.4,30.11,WSW,257,0.0,0.0,41,0.00,,---,0.00,VWS V14.01,2013-02-17 15:50:00,
2013-02-17 10:51:00,27.0,6.4,30.11,West,261,0.0,0.0,41,0.00,,---,0.00,VWS V14.01,2013-02-17 15:51:00,
2013-02-17 10:52:00,27.0,6.4,30.11,West,280,0.0,0.0,41,0.00,,---,0.00,VWS V14.01,2013-02-17 15:52:00,
2013-02-17 10:53:00,27.0,6.4,30.11,NW,305,0.0,0.0,41,0.00,,---,0.00,VWS V14.01,2013-02-17 15:53:00,
2013-02-17 10:54:00,27.0,6.4,30.11,WNW,287,0.0,0.0,41,0.00,,---,0.00,VWS V14.01,2013-02-17 15:54:00,
2013-02-17 10:55:00,26.8,6.2,30.11,WNW,283,0.0,0.0,41,0.00,,---,0.00,VWS V14.01,2013-02-17 15:55:00,
2013-02-17 10:56:00,26.8,6.2,30.11,NW,322,0.0,0.0,41,0.00,,---,0.00,VWS V14.01,2013-02-17 15:56:00,
2013-02-17 10:57:00,26.8,6.2,30.11,NW,318,0.0,0.0,41,0.00,,---,0.00,VWS V14.01,2013-02-17 15:57:00,
2013-02-17 10:58:00,26.8,6.2,30.11,WNW,286,0.0,0.0,41,0.00,,---,0.00,VWS V14.01,2013-02-17 15:58:00,
2013-02-17 10:59:00,26.8,6.2,30.11,NW,308,0.0,0.0,41,0.00,,---,0.00,VWS V14.01,2013-02-17 15:59:00,
2013-02-17 11:00:00,26.8,6.2,30.11,WNW,286,0.0,0.0,41,0.00,,---,0.00,VWS V14.01,2013-02-17 16:00:00,
2013-02-17 11:01:00,26.8,6.2,30.11,WNW,293,0.0,0.0,41,0.00,,---,0.00,VWS V14.01,2013-02-17 16:01:00,
2013-02-17 11:02:00,26.8,6.2,30.11,NW,314,0.0,0.0,41,0.00,,---,0.00,VWS V14.01,2013-02-17 16:02:00,
2013-02-17 11:03:00,27.0,6.4,30.11,NW,320,0.0,0.0,41,0.00,,---,0.00,VWS V14.01,2013-02-17 16:03:00,
2013-02-17 11:04:00,27.0,6.4,30.11,WNW,282,0.0,0.0,41,0.00,,---,0.00,VWS V14.01,2013-02-17 16:04:00,
2013-02-17 11:05:00,27.0,6.4,30.11,WSW,249,0.0,0.0,41,0.00,,---,0.00,VWS V14.01,2013-02-17 16:05:00,
2013-02-17 11:06:00,27.0,6.4,30.11,NW,304,0.0,0.0,41,0.00,,---,0.00,VWS V14.01,2013-02-17 16:06:00,
2013-02-17 11:07:00,27.1,6.6,30.11,West,271,0.0,0.0,41,0.00,,---,0.00,VWS V14.01,2013-02-17 16:07:00,
2013-02-17 11:08:00,27.1,6.6,30.11,NW,314,0.0,0.0,41,0.00,,---,0.00,VWS V14.01,2013-02-17 16:08:00,
2013-02-17 11:09:00,27.3,6.7,30.11,WNW,284,0.0,0.0,41,0.00,,---,0.00,VWS V14.01,2013-02-17 16:09:00,
2013-02-17 11:10:00,27.3,6.7,30.11,WNW,282,0.0,0.0,41,0.00,,---,0.00,VWS V14.01,2013-02-17 16:10:00,
2013-02-17 11:11:00,27.1,6.6,30.11,WNW,282,0.0,0.0,41,0.00,,---,0.00,VWS V14.01,2013-02-17 16:11:00,
2013-02-17 11:12:00,27.3,6.7,30.11,NW,314,0.0,0.0,41,0.00,,---,0.00,VWS V14.01,2013-02-17 16:12:00,
2013-02-17 11:13:00,27.3,6.7,30.11,NNW,341,0.0,0.0,41,0.00,,---,0.00,VWS V14.01,2013-02-17 16:13:00,
2013-02-17 11:14:00,27.3,6.7,30.11,NW,326,0.0,0.0,41,0.00,,---,0.00,VWS V14.01,2013-02-17 16:14:00,
2013-02-17 11:15:00,27.1,6.6,30.11,NW,310,0.0,0.0,41,0.00,,---,0.00,VWS V14.01,2013-02-17 16:15:00,
2013-02-17 11:16:00,27.1,6.6,30.11,NNW,330,0.0,0.0,41,0.00,,---,0.00,VWS V14.01,2013-02-17 16:16:00,
2013-02-17 11:17:00,27.1,6.6,30.11,NW,310,0.0,0.0,41,0.00,,---,0.00,VWS V14.01,2013-02-17 16:17:00,
2013-02-17 11:18:00,27.1,6.6,30.11,North,353,0.0,0.0,41,0.00,,---,0.00,VWS V14.01,2013-02-17 16:18:00,
2013-02-17 11:19:00,27.1,6.6,30.11,WNW,293,0.0,0.0,41,0.00,,---,0.00,VWS V14.01,2013-02-17 16:19:00,
2013-02-17 11:20:00,27.1,6.6,30.11,NW,304,0.0,0.0,41,0.00,,---,0.00,VWS V14.01,2013-02-17 16:20:00,
2013-02-17 11:21:00,27.1,6.6,30.11,WNW,296,0.0,0.0,41,0.00,,---,0.00,VWS V14.01,2013-02-17 16:21:00,
2013-02-17 11:22:00,27.1,6.6,30.11,NW,320,0.0,0.0,41,0.00,,---,0.00,VWS V14.01,2013-02-17 16:22:00,
2013-02-17 11:23:00,27.1,6.6,30.11,NW,313,0.0,0.0,41,0.00,,---,0.00,VWS V14.01,2013-02-17 16:23:00,
2013-02-17 11:24:00,27.3,6.7,30.11,WNW,290,0.0,0.0,41,0.00,,---,0.00,VWS V14.01,2013-02-17 16:24:00,
2013-02-17 11:25:00,27.3,6.7,30.11,WSW,240,0.0,0.0,41,0.00,,---,0.00,VWS V14.01,2013-02-17 16:25:00,
2013-02-17 11:26:00,27.3,6.7,30.11,SW,215,0.0,0.0,41,0.00,,---,0.00,VWS V14.01,2013-02-17 16:26:00,
2013-02-17 11:27:00,27.3,6.7,30.11,WNW,296,0.0,0.0,41,0.00,,---,0.00,VWS V14.01,2013-02-17 16:27:00,
2013-02-17 11:28:00,27.3,6.7,30.11,West,280,0.0,0.0,41,0.00,,---,0.00,VWS V14.01,2013-02-17 16:28:00,
2013-02-17 11:29:00,27.5,6.9,30.11,WNW,302,0.0,0.0,41,0.00,,---,0.00,VWS V14.01,2013-02-17 16:29:00,
2013-02-17 11:30:00,27.5,6.9,30.11,WNW,286,0.0,0.0,41,0.00,,---,0.00,VWS V14.01,2013-02-17 16:30:00,
2013-02-17 11:31:00,27.5,6.9,30.11,NW,313,0.0,0.0,41,0.00,,---,0.00,VWS V14.01,2013-02-17 16:31:00,
2013-02-17 11:32:00,27.7,7.1,30.11,NW,315,0.0,0.0,41,0.00,,---,0.00,VWS V14.01,2013-02-17 16:32:00,
2013-02-17 11:33:00,27.5,6.9,30.11,West,281,0.0,0.0,41,0.00,,---,0.00,VWS V14.01,2013-02-17 16:33:00,
2013-02-17 11:34:00,27.7,7.1,30.11,WSW,254,0.0,0.0,41,0.00,,---,0.00,VWS V14.01,2013-02-17 16:34:00,
2013-02-17 11:35:00,27.5,6.9,30.11,NW,312,0.0,0.0,41,0.00,,---,0.00,VWS V14.01,2013-02-17 16:35:00,
2013-02-17 11:36:00,27.7,7.1,30.11,WNW,284,0.0,0.0,41,0.00,,---,0.00,VWS V14.01,2013-02-17 16:36:00,
2013-02-17 11:37:00,27.9,7.2,30.11,NW,306,0.0,0.0,41,0.00,,---,0.00,VWS V14.01,2013-02-17 16:37:00,
2013-02-17 11:38:00,27.9,7.2,30.11,WSW,255,0.0,0.0,41,0.00,,---,0.00,VWS V14.01,2013-02-17 16:38:00,
2013-02-17 11:39:00,27.9,7.2,30.11,WSW,248,0.0,0.0,41,0.00,,---,0.00,VWS V14.01,2013-02-17 16:39:00,
2013-02-17 11:40:00,28.0,7.4,30.11,West,280,0.0,0.0,41,0.00,,---,0.00,VWS V14.01,2013-02-17 16:40:00,
2013-02-17 11:41:00,28.0,7.4,30.11,NW,309,0.0,0.0,41,0.00,,---,0.00,VWS V14.01,2013-02-17 16:41:00,
2013-02-17 11:42:00,28.2,7.6,30.11,WNW,301,0.0,0.0,41,0.00,,---,0.00,VWS V14.01,2013-02-17 16:42:00,
2013-02-17 11:43:00,28.0,7.4,30.11,NW,320,0.0,0.0,41,0.00,,---,0.00,VWS V14.01,2013-02-17 16:43:00,
2013-02-17 11:44:00,28.2,7.6,30.11,NW,306,0.0,0.0,41,0.00,,---,0.00,VWS V14.01,2013-02-17 16:44:00,
2013-02-17 11:45:00,28.2,7.6,30.11,NW,317,0.0,0.0,41,0.00,,---,0.00,VWS V14.01,2013-02-17 16:45:00,
2013-02-17 11:46:00,28.2,7.6,30.11,NW,317,0.0,0.0,41,0.00,,---,0.00,VWS V14.01,2013-02-17 16:46:00,
2013-02-17 11:47:00,28.2,7.6,30.11,NNW,330,0.0,0.0,41,0.00,,---,0.00,VWS V14.01,2013-02-17 16:47:00,
2013-02-17 11:48:00,28.0,7.4,30.11,WNW,301,0.0,0.0,41,0.00,,---,0.00,VWS V14.01,2013-02-17 16:48:00,
2013-02-17 11:49:00,28.0,7.4,30.11,WNW,293,0.0,0.0,41,0.00,,---,0.00,VWS V14.01,2013-02-17 16:49:00,
2013-02-17 11:50:00,27.9,7.2,30.11,NW,304,0.0,0.0,41,0.00,,---,0.00,VWS V14.01,2013-02-17 16:50:00,
2013-02-17 11:51:00,28.0,7.4,30.11,NNW,330,0.0,0.0,41,0.00,,---,0.00,VWS V14.01,2013-02-17 16:51:00,
2013-02-17 11:52:00,27.9,7.2,30.11,WNW,303,0.0,0.0,41,0.00,,---,0.00,VWS V14.01,2013-02-17 16:52:00,
2013-02-17 11:53:00,27.9,7.2,30.11,WNW,302,0.0,0.0,41,0.00,,---,0.00,VWS V14.01,2013-02-17 16:53:00,
2013-02-17 11:54:00,27.9,7.2,30.11,West,277,0.0,0.0,41,0.00,,---,0.00,VWS V14.01,2013-02-17 16:54:00,
2013-02-17 11:55:00,27.9,7.2,30.11,NNW,336,0.0,0.0,41,0.00,,---,0.00,VWS V14.01,2013-02-17 16:55:00,
2013-02-17 11:56:00,27.9,7.2,30.11,West,268,0.0,0.0,41,0.00,,---,0.00,VWS V14.01,2013-02-17 16:56:00,
2013-02-17 11:57:00,27.9,7.2,30.11,West,279,0.0,0.0,41,0.00,,---,0.00,VWS V14.01,2013-02-17 16:57:00,
2013-02-17 11:58:00,28.0,7.4,30.11,NW,321,0.0,0.0,41,0.00,,---,0.00,VWS V14.01,2013-02-17 16:58:00,
2013-02-17 11:59:00,28.0,7.4,30.11,WNW,302,0.0,0.0,41,0.00,,---,0.00,VWS V14.01,2013-02-17 16:59:00,
2013-02-17 12:00:00,28.0,7.4,30.11,West,279,0.0,0.0,41,0.00,,---,0.00,VWS V14.01,2013-02-17 17:00:00,
2013-02-17 12:01:00,28.0,7.4,30.11,NNW,327,0.0,0.0,41,0.00,,---,0.00,VWS V14.01,2013-02-17 17:01:00,
2013-02-17 12:02:00,28.2,7.6,30.11,NW,326,0.0,0.0,41,0.00,,---,0.00,VWS V14.01,2013-02-17 17:02:00,
2013-02-17 12:03:00,28.4,7.7,30.11,WNW,302,0.0,0.0,41,0.00,,---,0.00,VWS V14.01,2013-02-17 17:03:00,
2013-02-17 12:04:00,28.4,7.7,30.11,WNW,287,0.0,0.0,41,0.00,,---,0.00,VWS V14.01,2013-02-17 17:04:00,
2013-02-17 12:05:00,28.2,7.6,30.11,WNW,298,0.0,0.0,41,0.00,,---,0.00,VWS V14.01,2013-02-17 17:05:00,
2013-02-17 12:06:00,28.2,7.6,30.11,West,274,0.0,0.0,41,0.00,,---,0.00,VWS V14.01,2013-02-17 17:06:00,
2013-02-17 12:07:00,28.4,7.7,30.11,NW,325,0.0,0.0,41,0.00,,---,0.00,VWS V14.01,2013-02-17 17:07:00,
2013-02-17 12:08:00,28.4,7.7,30.11,NW,310,0.0,0.0,41,0.00,,---,0.00,VWS V14.01,2013-02-17 17:08:00,
2013-02-17 12:09:00,28.2,7.6,30.11,WNW,297,0.0,0.0,41,0.00,,---,0.00,VWS V14.01,2013-02-17 17:09:00,
2013-02-17 12:10:00,28.2,7.6,30.11,WNW,293,0.0,0.0,41,0.00,,---,0.00,VWS V14.01,2013-02-17 17:10:00,
2013-02-17 12:11:00,28.2,7.6,30.11,WNW,290,0.0,0.0,41,0.00,,---,0.00,VWS V14.01,2013-02-17 17:11:00,
2013-02-17 12:12:00,28.2,7.6,30.11,WNW,299,0.0,0.0,41,0.00,,---,0.00,VWS V14.01,2013-02-17 17:12:00,
2013-02-17 12:13:00,28.0,7.4,30.11,WNW,290,0.0,0.0,41,0.00,,---,0.00,VWS V14.01,2013-02-17 17:13:00,
2013-02-17 12:14:00,28.2,7.6,30.11,WNW,300,0.0,0.0,41,0.00,,---,0.00,VWS V14.01,2013-02-17 17:14:00,
2013-02-17 12:15:00,28.0,7.4,30.11,NW,326,0.0,0.0,41,0.04,,---,0.04,VWS V14.01,2013-02-17 17:15:00,
2013-02-17 12:16:00,28.2,7.6,30.11,NNW,335,0.0,0.0,41,0.04,,---,0.04,VWS V14.01,2013-02-17 17:16:00,
2013-02-17 12:17:00,28.2,7.6,30.11,NNW,329,0.0,0.0,41,0.04,,---,0.04,VWS V14.01,2013-02-17 17:17:00,
2013-02-17 12:18:00,28.2,7.6,30.11,NW,325,0.0,0.0,41,0.04,,---,0.04,VWS V14.01,2013-02-17 17:18:00,
2013-02-17 12:19:00,28.2,7.6,30.11,WNW,297,0.0,0.0,41,0.04,,---,0.04,VWS V14.01,2013-02-17 17:19:00,
2013-02-17 12:20:00,28.2,7.6,30.11,NW,311,0.0,0.0,41,0.04,,---,0.04,VWS V14.01,2013-02-17 17:20:00,
2013-02-17 12:21:00,28.4,7.7,30.11,WNW,301,0.0,0.0,41,0.04,,---,0.04,VWS V14.01,2013-02-17 17:21:00,
2013-02-17 12:22:00,28.4,7.7,30.11,NW,322,0.0,0.0,41,0.04,,---,0.04,VWS V14.01,2013-02-17 17:22:00,
2013-02-17 12:23:00,28.6,7.9,30.11,WSW,252,0.0,0.0,41,0.04,,---,0.04,VWS V14.01,2013-02-17 17:23:00,
2013-02-17 12:24:00,28.6,7.9,30.11,WNW,298,0.0,0.0,41,0.04,,---,0.04,VWS V14.01,2013-02-17 17:24:00,
2013-02-17 12:25:00,28.6,7.9,30.11,WNW,299,0.0,0.0,41,0.04,,---,0.04,VWS V14.01,2013-02-17 17:25:00,
2013-02-17 12:26:00,28.6,7.9,30.11,WNW,302,0.0,0.0,41,0.04,,---,0.04,VWS V14.01,2013-02-17 17:26:00,
2013-02-17 12:27:00,28.6,7.9,30.11,NW,313,0.0,0.0,41,0.04,,---,0.04,VWS V14.01,2013-02-17 17:27:00,
2013-02-17 12:28:00,28.6,7.9,30.11,WSW,258,0.0,0.0,41,0.04,,---,0.04,VWS V14.01,2013-02-17 17:28:00,
2013-02-17 12:29:00,28.6,7.9,30.11,NW,311,0.0,0.0,41,0.04,,---,0.04,VWS V14.01,2013-02-17 17:29:00,
2013-02-17 12:30:00,28.4,7.7,30.11,WNW,295,0.0,0.0,41,0.04,,---,0.04,VWS V14.01,2013-02-17 17:30:00,
2013-02-17 12:31:00,28.4,7.7,30.11,WNW,294,0.0,0.0,41,0.04,,---,0.04,VWS V14.01,2013-02-17 17:31:00,
2013-02-17 12:32:00,28.2,7.6,30.11,NW,317,0.0,0.0,41,0.04,,---,0.04,VWS V14.01,2013-02-17 17:32:00,
2013-02-17 12:33:00,28.0,7.4,30.11,NW,324,15.4,15.4,41,0.04,,---,0.04,VWS V14.01,2013-02-17 17:33:00,
2013-02-17 12:34:00,28.0,7.4,30.11,NW,305,10.5,10.5,41,0.04,,---,0.04,VWS V14.01,2013-02-17 17:34:00,
2013-02-17 12:35:00,28.0,7.4,30.11,NW,305,10.5,10.5,41,0.04,,---,0.04,VWS V14.01,2013-02-17 17:35:00,
2013-02-17 12:36:00,27.9,7.2,30.11,WNW,292,8.1,8.1,41,0.04,,---,0.04,VWS V14.01,2013-02-17 17:36:00,
2013-02-17 12:37:00,27.9,7.2,30.11,NW,318,10.1,10.1,41,0.04,,---,0.04,VWS V14.01,2013-02-17 17:37:00,
2013-02-17 12:38:00,27.9,7.2,30.11,WNW,287,8.7,8.7,41,0.04,,---,0.04,VWS V14.01,2013-02-17 17:38:00,
2013-02-17 12:39:00,27.9,7.2,30.11,West,273,15.4,15.4,41,0.04,,---,0.04,VWS V14.01,2013-02-17 17:39:00,
2013-02-17 12:40:00,27.9,7.2,30.11,NW,310,12.8,12.8,41,0.04,,---,0.04,VWS V14.01,2013-02-17 17:40:00,
2013-02-17 12:41:00,27.7,7.1,30.11,WSW,243,8.1,8.1,41,0.04,,---,0.04,VWS V14.01,2013-02-17 17:41:00,
2013-02-17 12:42:00,27.7,7.1,30.11,NW,315,8.7,8.7,41,0.04,,---,0.04,VWS V14.01,2013-02-17 17:42:00,
2013-02-17 12:43:00,27.7,7.1,30.11,NW,326,7.6,7.6,41,0.04,,---,0.04,VWS V14.01,2013-02-17 17:43:00,
2013-02-17 12:44:00,27.7,7.1,30.11,WNW,298,10.1,10.1,41,0.04,,---,0.04,VWS V14.01,2013-02-17 17:44:00,
2013-02-17 12:45:00,27.9,7.2,30.11,WNW,298,12.8,12.8,41,0.04,,---,0.04,VWS V14.01,2013-02-17 17:45:00,
2013-02-17 12:46:00,27.9,7.2,30.11,NW,320,12.8,12.8,41,0.04,,---,0.04,VWS V14.01,2013-02-17 17:46:00,
2013-02-17 12:47:00,27.9,7.2,30.11,West,268,10.5,10.5,41,0.04,,---,0.04,VWS V14.01,2013-02-17 17:47:00,
2013-02-17 12:48:00,27.9,7.2,30.11,NW,325,10.5,10.5,41,0.04,,---,0.04,VWS V14.01,2013-02-17 17:48:00,
2013-02-17 12:49:00,27.9,7.2,30.11,WNW,287,8.3,8.3,41,0.04,,---,0.04,VWS V14.01,2013-02-17 17:49:00,
2013-02-17 12:50:00,27.9,7.2,30.11,NW,325,16.8,16.8,41,0.04,,---,0.04,VWS V14.01,2013-02-17 17:50:00,
2013-02-17 12:51:00,28.0,7.4,30.11,West,275,11.0,11.0,41,0.04,,---,0.04,VWS V14.01,2013-02-17 17:51:00,
2013-02-17 12:52:00,28.0,7.4,30.11,WNW,301,13.2,13.2,41,0.04,,---,0.04,VWS V14.01,2013-02-17 17:52:00,
2013-02-17 12:53:00,28.4,7.7,30.11,West,274,10.5,10.5,41,0.04,,---,0.04,VWS V14.01,2013-02-17 17:53:00,
2013-02-17 12:54:00,28.4,7.7,30.11,West,281,16.3,16.3,41,0.04,,---,0.04,VWS V14.01,2013-02-17 17:54:00,
2013-02-17 12:55:00,28.6,7.9,30.11,NNW,329,10.5,10.5,41,0.04,,---,0.04,VWS V14.01,2013-02-17 17:55:00,
2013-02-17 12:56:00,28.6,7.9,30.11,NW,319,10.1,10.1,41,0.04,,---,0.04,VWS V14.01,2013-02-17 17:56:00,
2013-02-17 12:57:00,28.9,8.2,30.11,NW,318,14.5,14.5,41,0.04,,---,0.04,VWS V14.01,2013-02-17 17:57:00,
2013-02-17 12:58:00,29.1,8.4,30.11,NW,312,11.0,11.0,41,0.04,,---,0.04,VWS V14.01,2013-02-17 17:58:00,
2013-02-17 12:59:00,28.9,8.2,30.11,WSW,253,5.8,5.8,41,0.04,,---,0.04,VWS V14.01,2013-02-17 17:59:00,
2013-02-17 13:00:00,29.1,8.4,30.11,West,262,10.1,10.1,41,0.04,,---,0.04,VWS V14.01,2013-02-17 18:00:00,
2013-02-17 13:01:00,29.1,8.4,30.11,WSW,252,12.8,12.8,41,0.04,,---,0.04,VWS V14.01,2013-02-17 18:01:00,
2013-02-17 13:02:00,29.3,8.5,30.11,WNW,295,10.1,10.1,41,0.04,,---,0.04,VWS V14.01,2013-02-17 18:02:00,
2013-02-17 13:03:00,29.3,8.5,30.11,NW,312,13.2,13.2,41,0.04,,---,0.04,VWS V14.01,2013-02-17 18:03:00,
2013-02-17 13:04:00,29.3,8.5,30.11,WNW,293,15.4,15.4,41,0.04,,---,0.04,VWS V14.01,2013-02-17 18:04:00,
2013-02-17 13:05:00,29.3,8.5,30.11,WNW,302,14.5,14.5,41,0.04,,---,0.04,VWS V14.01,2013-02-17 18:05:00,
2013-02-17 13:06:00,29.3,8.5,30.11,WNW,298,11.0,11.0,41,0.04,,---,0.04,VWS V14.01,2013-02-17 18:06:00,
2013-02-17 13:07:00,29.3,8.5,30.11,NW,305,8.3,8.3,41,0.04,,---,0.04,VWS V14.01,2013-02-17 18:07:00,
2013-02-17 13:08:00,29.5,8.7,30.11,NW,304,11.9,11.9,41,0.04,,---,0.04,VWS V14.01,2013-02-17 18:08:00,
2013-02-17 13:09:00,29.5,8.7,30.11,NW,324,11.9,11.9,41,0.04,,---,0.04,VWS V14.01,2013-02-17 18:09:00,
2013-02-17 13:10:00,29.5,8.7,30.11,NNW,334,8.7,8.7,41,0.04,,---,0.04,VWS V14.01,2013-02-17 18:10:00,
2013-02-17 13:11:00,29.5,8.7,30.11,NW,317,15.0,15.0,41,0.04,,---,0.04,VWS V14.01,2013-02-17 18:11:00,
2013-02-17 13:12:00,29.5,8.7,30.11,NW,310,8.7,8.7,41,0.04,,---,0.04,VWS V14.01,2013-02-17 18:12:00,
2013-02-17 13:13:00,29.5,8.7,30.11,NW,307,13.6,13.6,41,0.04,,---,0.04,VWS V14.01,2013-02-17 18:13:00,
2013-02-17 13:14:00,29.5,8.7,30.11,WNW,302,11.0,11.0,41,0.04,,---,0.04,VWS V14.01,2013-02-17 18:14:00,
2013-02-17 13:15:00,29.5,8.7,30.11,NW,304,15.4,15.4,41,0.04,,---,0.04,VWS V14.01,2013-02-17 18:15:00,
2013-02-17 13:16:00,29.5,8.7,30.11,NW,325,22.4,22.4,41,0.00,,---,0.04,VWS V14.01,2013-02-17 18:16:00,
2013-02-17 13:17:00,29.7,8.9,30.11,NW,311,15.4,15.4,41,0.00,,---,0.04,VWS V14.01,2013-02-17 18:17:00,
2013-02-17 13:18:00,29.5,8.7,30.11,NW,315,10.5,10.5,41,0.00,,---,0.04,VWS V14.01,2013-02-17 18:18:00,
2013-02-17 13:19:00,29.5,8.7,30.11,WSW,237,8.7,8.7,41,0.00,,---,0.04,VWS V14.01,2013-02-17 18:19:00,
2013-02-17 13:20:00,29.7,8.9,30.11,NW,319,11.0,11.0,41,0.00,,---,0.04,VWS V14.01,2013-02-17 18:20:00,
2013-02-17 13:21:00,29.7,8.9,30.11,WNW,303,8.7,8.7,41,0.00,,---,0.04,VWS V14.01,2013-02-17 18:21:00,
2013-02-17 13:22:00,29.7,8.9,30.11,NW,309,12.8,12.8,41,0.00,,---,0.04,VWS V14.01,2013-02-17 18:22:00,
2013-02-17 13:23:00,29.8,9.0,30.11,NW,307,8.1,8.1,41,0.00,,---,0.04,VWS V14.01,2013-02-17 18:23:00,
2013-02-17 13:24:00,29.8,9.0,30.11,WNW,288,7.6,7.6,41,0.00,,---,0.04,VWS V14.01,2013-02-17 18:24:00,
2013-02-17 13:25:00,30.0,9.2,30.11,WNW,283,13.6,13.6,41,0.00,,---,0.04,VWS V14.01,2013-02-17 18:25:00,
2013-02-17 13:26:00,30.0,9.2,30.11,North,353,11.0,11.0,41,0.00,,---,0.04,VWS V14.01,2013-02-17 18:26:00,
2013-02-17 13:27:00,30.2,9.4,30.11,West,261,10.5,10.5,41,0.00,,---,0.04,VWS V14.01,2013-02-17 18:27:00,
2013-02-17 13:28:00,30.2,9.4,30.11,NW,325,13.2,13.2,41,0.00,,---,0.04,VWS V14.01,2013-02-17 18:28:00,
2013-02-17 13:29:00,30.2,9.4,30.11,NW,307,7.6,7.6,41,0.00,,---,0.04,VWS V14.01,2013-02-17 18:29:00,
2013-02-17 13:30:00,30.2,9.4,30.11,WNW,303,13.6,13.6,41,0.00,,---,0.04,VWS V14.01,2013-02-17 18:30:00,
2013-02-17 13:31:00,30.0,9.2,30.11,WNW,294,14.5,14.5,41,0.00,,---,0.04,VWS V14.01,2013-02-17 18:31:00,
2013-02-17 13:32:00,30.0,9.2,30.11,NW,323,14.1,14.1,41,0.00,,---,0.04,VWS V14.01,2013-02-17 18:32:00,
2013-02-17 13:33:00,30.0,9.2,30.11,NNW,333,17.4,17.4,41,0.00,,---,0.04,VWS V14.01,2013-02-17 18:33:00,
2013-02-17 13:34:00,30.0,9.2,30.11,West,273,15.9,15.9,41,0.00,,---,0.04,VWS V14.01,2013-02-17 18:34:00,
2013-02-17 13:35:00,30.0,9.2,30.11,WNW,290,11.0,11.0,41,0.00,,---,0.04,VWS V14.01,2013-02-17 18:35:00,
2013-02-17 13:36:00,29.8,9.0,30.11,NW,310,12.3,12.3,41,0.00,,---,0.04,VWS V14.01,2013-02-17 18:36:00,
2013-02-17 13:37:00,30.0,9.2,30.11,WNW,287,10.5,10.5,41,0.00,,---,0.04,VWS V14.01,2013-02-17 18:37:00,
2013-02-17 13:38:00,30.0,9.2,30.11,WNW,288,11.0,11.0,41,0.00,,---,0.04,VWS V14.01,2013-02-17 18:38:00,
2013-02-17 13:39:00,29.8,9.0,30.11,WNW,285,15.4,15.4,41,0.00,,---,0.04,VWS V14.01,2013-02-17 18:39:00,
2013-02-17 13:40:00,29.8,9.0,30.11,WNW,295,13.2,13.2,41,0.00,,---,0.04,VWS V14.01,2013-02-17 18:40:00,
2013-02-17 13:41:00,29.7,8.9,30.11,NW,304,8.3,8.3,41,0.00,,---,0.04,VWS V14.01,2013-02-17 18:41:00,
2013-02-17 13:42:00,29.7,8.9,30.11,NW,323,9.2,9.2,41,0.00,,---,0.04,VWS V14.01,2013-02-17 18:42:00,
2013-02-17 13:43:00,29.5,8.7,30.11,WNW,287,11.0,11.0,41,0.00,,---,0.04,VWS V14.01,2013-02-17 18:43:00,
2013-02-17 13:44:00,29.5,8.7,30.11,West,267,15.4,15.4,41,0.00,,---,0.04,VWS V14.01,2013-02-17 18:44:00,
2013-02-17 13:45:00,29.5,8.7,30.11,West,281,10.5,10.5,41,0.00,,---,0.04,VWS V14.01,2013-02-17 18:45:00,
2013-02-17 13:46:00,29.5,8.7,30.11,NW,316,11.0,11.0,41,0.00,,---,0.04,VWS V14.01,2013-02-17 18:46:00,
2013-02-17 13:47:00,29.5,8.7,30.11,NNW,337,6.3,6.3,41,0.00,,---,0.04,VWS V14.01,2013-02-17 18:47:00,
2013-02-17 13:48:00,29.5,8.7,30.11,West,281,11.0,11.0,41,0.00,,---,0.04,VWS V14.01,2013-02-17 18:48:00,
2013-02-17 13:49:00,29.5,8.7,30.11,WNW,286,11.4,11.4,41,0.00,,---,0.04,VWS V14.01,2013-02-17 18:49:00,
2013-02-17 13:50:00,29.5,8.7,30.11,WNW,286,13.2,13.2,41,0.00,,---,0.04,VWS V14.01,2013-02-17 18:50:00,
2013-02-17 13:51:00,29.3,8.5,30.11,WNW,289,9.6,9.6,41,0.00,,---,0.04,VWS V14.01,2013-02-17 18:51:00,
2013-02-17 13:52:00,29.3,8.5,30.11,WNW,299,15.0,15.0,41,0.00,,---,0.04,VWS V14.01,2013-02-17 18:52:00,
2013-02-17 13:53:00,29.1,8.4,30.11,NW,313,14.1,14.1,41,0.00,,---,0.04,VWS V14.01,2013-02-17 18:53:00,
2013-02-17 13:54:00,29.1,8.4,30.11,West,275,11.0,11.0,41,0.00,,---,0.04,VWS V14.01,2013-02-17 18:54:00,
2013-02-17 13:55:00,29.1,8.4,30.11,NW,314,13.2,13.2,41,0.00,,---,0.04,VWS V14.01,2013-02-17 18:55:00,
2013-02-17 13:56:00,28.9,8.2,30.11,NW,311,7.6,7.6,41,0.00,,---,0.04,VWS V14.01,2013-02-17 18:56:00,
2013-02-17 13:57:00,29.1,8.4,30.11,NW,312,15.4,15.4,41,0.00,,---,0.04,VWS V14.01,2013-02-17 18:57:00,
2013-02-17 13:58:00,29.3,8.5,30.11,NNW,328,7.6,7.6,41,0.00,,---,0.04,VWS V14.01,2013-02-17 18:58:00,
2013-02-17 13:59:00,29.3,8.5,30.11,NW,309,5.8,5.8,41,0.00,,---,0.04,VWS V14.01,2013-02-17 18:59:00,
2013-02-17 14:00:00,29.5,8.7,30.11,WNW,290,7.6,7.6,41,0.00,,---,0.04,VWS V14.01,2013-02-17 19:00:00,
2013-02-17 14:01:00,29.7,8.9,30.11,WNW,295,19.2,19.2,41,0.00,,---,0.04,VWS V14.01,2013-02-17 19:01:00,
2013-02-17 14:02:00,29.7,8.9,30.11,NW,312,15.0,15.0,41,0.00,,---,0.04,VWS V14.01,2013-02-17 19:02:00,
2013-02-17 14:03:00,29.7,8.9,30.11,NW,317,15.0,15.0,41,0.00,,---,0.04,VWS V14.01,2013-02-17 19:03:00,
2013-02-17 14:04:00,29.7,8.9,30.11,WNW,295,11.0,11.0,41,0.00,,---,0.04,VWS V14.01,2013-02-17 19:04:00,
2013-02-17 14:05:00,29.7,8.9,30.11,NW,308,8.3,8.3,41,0.00,,---,0.04,VWS V14.01,2013-02-17 19:05:00,
2013-02-17 14:06:00,29.7,8.9,30.11,NNW,328,8.7,8.7,41,0.00,,---,0.04,VWS V14.01,2013-02-17 19:06:00,
2013-02-17 14:07:00,29.7,8.9,30.11,West,279,14.1,14.1,41,0.00,,---,0.04,VWS V14.01,2013-02-17 19:07:00,
2013-02-17 14:08:00,29.8,9.0,30.11,WNW,298,12.3,12.3,41,0.00,,---,0.04,VWS V14.01,2013-02-17 19:08:00,
2013-02-17 14:09:00,29.8,9.0,30.11,NW,305,8.3,8.3,41,0.00,,---,0.04,VWS V14.01,2013-02-17 19:09:00,
2013-02-17 14:10:00,29.8,9.0,30.11,NW,307,8.7,8.7,41,0.00,,---,0.04,VWS V14.01,2013-02-17 19:10:00,
2013-02-17 14:11:00,30.0,9.2,30.11,WNW,298,13.2,13.2,41,0.00,,---,0.04,VWS V14.01,2013-02-17 19:11:00,
2013-02-17 14:12:00,30.2,9.4,30.11,WSW,250,9.6,9.6,41,0.00,,---,0.04,VWS V14.01,2013-02-17 19:12:00,
2013-02-17 14:13:00,30.2,9.4,30.11,NW,307,17.0,17.0,41,0.00,,---,0.04,VWS V14.01,2013-02-17 19:13:00,
2013-02-17 14:14:00,30.2,9.4,30.11,WNW,288,12.8,12.8,41,0.00,,---,0.04,VWS V14.01,2013-02-17 19:14:00,
2013-02-17 14:15:00,30.4,9.5,30.11,WNW,283,11.4,11.4,41,0.00,,---,0.04,VWS V14.01,2013-02-17 19:15:00,
2013-02-17 14:16:00,30.4,9.5,30.11,NW,323,15.0,15.0,41,0.00,,---,0.04,VWS V14.01,2013-02-17 19:16:00,
2013-02-17 14:17:00,30.4,9.5,30.11,West,275,5.8,5.8,41,0.00,,---,0.04,VWS V14.01,2013-02-17 19:17:00,
2013-02-17 14:18:00,30.6,9.7,30.11,NNW,334,9.6,9.6,41,0.00,,---,0.04,VWS V14.01,2013-02-17 19:18:00,
2013-02-17 14:19:00,30.6,9.7,30.11,NW,313,10.5,10.5,41,0.00,,---,0.04,VWS V14.01,2013-02-17 19:19:00,
2013-02-17 14:20:00,30.6,9.7,30.11,NW,306,8.1,8.1,41,0.00,,---,0.04,VWS V14.01,2013-02-17 19:20:00,
2013-02-17 14:21:00,30.7,9.8,30.11,North,353,10.5,10.5,41,0.00,,---,0.04,VWS V14.01,2013-02-17 19:21:00,
2013-02-17 14:22:00,30.9,10.0,30.11,WSW,254,13.2,13.2,41,0.00,,---,0.04,VWS V14.01,2013-02-17 19:22:00,
2013-02-17 14:23:00,31.1,10.2,30.11,West,281,10.1,10.1,41,0.00,,---,0.04,VWS V14.01,2013-02-17 19:23:00,
2013-02-17 14:24:00,31.1,10.2,30.11,NW,317,5.8,5.8,41,0.00,,---,0.04,VWS V14.01,2013-02-17 19:24:00,
2013-02-17 14:25:00,31.3,10.3,30.11,NNW,344,8.7,8.7,41,0.00,,---,0.04,VWS V14.01,2013-02-17 19:25:00,
2013-02-17 14:26:00,31.3,10.3,30.11,WNW,284,13.2,13.2,41,0.00,,---,0.04,VWS V14.01,2013-02-17 19:26:00,
2013-02-17 14:27:00,31.5,10.5,30.11,NW,326,10.1,10.1,41,0.00,,---,0.04,VWS V14.01,2013-02-17 19:27:00,
2013-02-17 14:28:00,31.6,10.6,30.11,NW,313,8.1,8.1,41,0.00,,---,0.04,VWS V14.01,2013-02-17 19:28:00,
2013-02-17 14:29:00,31.6,10.6,30.11,NNW,346,10.5,10.5,41,0.00,,---,0.04,VWS V14.01,2013-02-17 19:29:00,
2013-02-17 14:30:00,31.6,10.6,30.11,NNW,341,16.8,16.8,41,0.00,,---,0.04,VWS V14.01,2013-02-17 19:30:00,
2013-02-17 14:31:00,31.5,10.5,30.11,West,271,7.6,7.6,41,0.00,,---,0.04,VWS V14.01,2013-02-17 19:31:00,
2013-02-17 14:32:00,31.6,10.6,30.11,NW,308,11.0,11.0,41,0.00,,---,0.04,VWS V14.01,2013-02-17 19:32:00,
2013-02-17 14:33:00,31.5,10.5,30.11,West,265,10.5,10.5,41,0.00,,---,0.04,VWS V14.01,2013-02-17 19:33:00,
2013-02-17 14:34:00,31.5,10.5,30.11,North,353,4.0,4.0,41,0.00,,---,0.04,VWS V14.01,2013-02-17 19:34:00,
2013-02-17 14:35:00,31.5,10.5,30.11,WNW,303,5.8,5.8,41,0.00,,---,0.04,VWS V14.01,2013-02-17 19:35:00,
2013-02-17 14:36:00,31.3,10.3,30.11,NW,306,11.0,11.0,41,0.00,,---,0.04,VWS V14.01,2013-02-17 19:36:00,
2013-02-17 14:37:00,31.3,10.3,30.11,WNW,284,12.3,12.3,41,0.00,,---,0.04,VWS V14.01,2013-02-17 19:37:00,
2013-02-17 14:38:00,31.5,10.5,30.11,West,271,7.6,7.6,41,0.00,,---,0.04,VWS V14.01,2013-02-17 19:38:00,
2013-02-17 14:39:00,31.5,10.5,30.11,NW,318,12.8,12.8,41,0.00,,---,0.04,VWS V14.01,2013-02-17 19:39:00,
2013-02-17 14:40:00,31.6,10.6,30.11,WNW,299,8.7,8.7,41,0.00,,---,0.04,VWS V14.01,2013-02-17 19:40:00,
2013-02-17 14:41:00,31.6,10.6,30.11,WNW,297,15.4,15.4,41,0.00,,---,0.04,VWS V14.01,2013-02-17 19:41:00,
2013-02-17 14:42:00,31.8,10.8,30.11,WNW,292,8.3,8.3,41,0.00,,---,0.04,VWS V14.01,2013-02-17 19:42:00,
2013-02-17 14:43:00,31.8,10.8,30.11,WSW,257,14.1,14.1,41,0.00,,---,0.04,VWS V14.01,2013-02-17 19:43:00,
2013-02-17 14:44:00,31.8,10.8,30.11,West,263,6.3,6.3,41,0.00,,---,0.04,VWS V14.01,2013-02-17 19:44:00,
2013-02-17 14:45:00,31.6,10.6,30.11,West,264,12.8,12.8,41,0.00,,---,0.04,VWS V14.01,2013-02-17 19:45:00,
2013-02-17 14:46:00,31.8,10.8,30.11,SW,221,4.9,4.9,41,0.00,,---,0.04,VWS V14.01,2013-02-17 19:46:00,
2013-02-17 14:47:00,31.6,10.6,30.11,West,259,7.6,7.6,41,0.00,,---,0.04,VWS V14.01,2013-02-17 19:47:00,
2013-02-17 14:48:00,31.6,10.6,30.11,WNW,303,6.3,6.3,41,0.00,,---,0.04,VWS V14.01,2013-02-17 19:48:00,
2013-02-17 14:49:00,31.8,10.8,30.11,NW,304,8.1,8.1,41,0.00,,---,0.04,VWS V14.01,2013-02-17 19:49:00,
2013-02-17 14:50:00,31.8,10.8,30.11,North,353,7.6,7.6,41,0.00,,---,0.04,VWS V14.01,2013-02-17 19:50:00,
2013-02-17 14:51:00,31.8,10.8,30.11,NW,315,8.3,8.3,41,0.00,,---,0.04,VWS V14.01,2013-02-17 19:51:00,
2013-02-17 14:52:00,32.0,11.0,30.11,NNW,335,5.8,5.8,41,0.00,,---,0.04,VWS V14.01,2013-02-17 19:52:00,
2013-02-17 14:53:00,32.2,11.1,30.11,NW,304,7.6,7.6,41,0.00,,---,0.04,VWS V14.01,2013-02-17 19:53:00,
2013-02-17 14:54:00,32.2,11.1,30.11,NW,304,7.6,7.6,41,0.00,,---,0.04,VWS V14.01,2013-02-17 19:54:00,
2013-02-17 14:55:00,32.2,11.1,30.11,WNW,288,11.0,11.0,41,0.00,,---,0.04,VWS V14.01,2013-02-17 19:55:00,
2013-02-17 14:56:00,32.4,11.3,30.11,NNW,330,7.6,7.6,41,0.00,,---,0.04,VWS V14.01,2013-02-17 19:56:00,
2013-02-17 14:57:00,32.4,11.3,30.11,West,276,5.4,5.4,41,0.00,,---,0.04,VWS V14.01,2013-02-17 19:57:00,
2013-02-17 14:58:00,32.4,11.3,30.11,NNW,329,12.8,12.8,41,0.00,,---,0.04,VWS V14.01,2013-02-17 19:58:00,
2013-02-17 14:59:00,32.4,11.3,30.11,NW,324,10.5,10.5,41,0.00,,---,0.04,VWS V14.01,2013-02-17 19:59:00,
2013-02-17 15:00:00,32.5,11.5,30.11,WNW,303,12.3,12.3,41,0.00,,---,0.04,VWS V14.01,2013-02-17 20:00:00,
2013-02-17 15:01:00,32.4,11.3,30.11,West,273,21.5,21.5,41,0.00,,---,0.04,VWS V14.01,2013-02-17 20:01:00,
2013-02-17 15:02:00,32.4,11.3,30.11,NW,313,18.8,18.8,41,0.00,,---,0.04,VWS V14.01,2013-02-17 20:02:00,
2013-02-17 15:03:00,32.2,11.1,30.11,WNW,285,14.1,14.1,41,0.00,,---,0.04,VWS V14.01,2013-02-17 20:03:00,
2013-02-17 15:04:00,32.2,11.1,30.11,WNW,285,14.1,14.1,41,0.00,,---,0.04,VWS V14.01,2013-02-17 20:04:00,
2013-02-17 15:05:00,32.4,11.3,30.11,WNW,300,10.1,10.1,41,0.00,,---,0.04,VWS V14.01,2013-02-17 20:05:00,
2013-02-17 15:06:00,32.4,11.3,30.11,West,271,11.0,11.0,41,0.00,,---,0.04,VWS V14.01,2013-02-17 20:06:00,
2013-02-17 15:07:00,32.4,11.3,30.11,WNW,290,10.5,10.5,41,0.00,,---,0.04,VWS V14.01,2013-02-17 20:07:00,
2013-02-17 15:08:00,32.4,11.3,30.11,WNW,301,8.1,8.1,41,0.00,,---,0.04,VWS V14.01,2013-02-17 20:08:00,
2013-02-17 15:09:00,32.5,11.5,30.11,WSW,246,10.5,10.5,41,0.00,,---,0.04,VWS V14.01,2013-02-17 20:09:00,
2013-02-17 15:10:00,32.5,11.5,30.11,WSW,251,14.5,14.5,41,0.00,,---,0.04,VWS V14.01,2013-02-17 20:10:00,
2013-02-17 15:11:00,32.5,11.5,30.11,West,268,16.8,16.8,41,0.00,,---,0.04,VWS V14.01,2013-02-17 20:11:00,
2013-02-17 15:12:00,32.4,11.3,30.11,WNW,289,17.4,17.4,41,0.00,,---,0.04,VWS V14.01,2013-02-17 20:12:00,
2013-02-17 15:13:00,32.4,11.3,30.11,WNW,286,15.4,15.4,41,0.00,,---,0.04,VWS V14.01,2013-02-17 20:13:00,
2013-02-17 15:14:00,32.4,11.3,30.11,WNW,285,8.1,8.1,41,0.00,,---,0.04,VWS V14.01,2013-02-17 20:14:00,
2013-02-17 15:15:00,32.4,11.3,30.11,NW,310,10.5,10.5,41,0.00,,---,0.04,VWS V14.01,2013-02-17 20:15:00,
2013-02-17 15:16:00,32.2,11.1,30.11,WNW,298,18.3,18.3,41,0.00,,---,0.04,VWS V14.01,2013-02-17 20:16:00,
2013-02-17 15:17:00,32.4,11.3,30.11,NW,320,12.3,12.3,41,0.00,,---,0.04,VWS V14.01,2013-02-17 20:17:00,
2013-02-17 15:18:00,32.4,11.3,30.11,WSW,252,7.6,7.6,41,0.00,,---,0.04,VWS V14.01,2013-02-17 20:18:00,
2013-02-17 15:19:00,32.2,11.1,30.11,NW,317,10.5,10.5,41,0.00,,---,0.04,VWS V14.01,2013-02-17 20:19:00,
2013-02-17 15:20:00,32.2,11.1,30.11,NNW,337,14.1,14.1,41,0.00,,---,0.04,VWS V14.01,2013-02-17 20:20:00,
2013-02-17 15:21:00,32.2,11.1,30.11,NW,323,10.5,10.5,41,0.00,,---,0.04,VWS V14.01,2013-02-17 20:21:00,
2013-02-17 15:22:00,32.2,11.1,30.11,WNW,301,8.7,8.7,41,0.00,,---,0.04,VWS V14.01,2013-02-17 20:22:00,
2013-02-17 15:23:00,32.2,11.1,30.11,West,272,10.5,10.5,41,0.00,,---,0.04,VWS V14.01,2013-02-17 20:23:00,
2013-02-17 15:24:00,32.2,11.1,30.11,NNW,338,10.5,10.5,41,0.00,,---,0.04,VWS V14.01,2013-02-17 20:24:00,
2013-02-17 15:25:00,32.2,11.1,30.11,WNW,287,8.1,8.1,41,0.00,,---,0.04,VWS V14.01,2013-02-17 20:25:00,
2013-02-17 15:26:00,32.2,11.1,30.11,WNW,287,10.1,10.1,41,0.00,,---,0.04,VWS V14.01,2013-02-17 20:26:00,
2013-02-17 15:27:00,32.2,11.1,30.11,West,260,10.5,10.5,41,0.00,,---,0.04,VWS V14.01,2013-02-17 20:27:00,
2013-02-17 15:28:00,32.2,11.1,30.11,NNW,338,6.3,6.3,41,0.00,,---,0.04,VWS V14.01,2013-02-17 20:28:00,
2013-02-17 15:29:00,32.2,11.1,30.11,NNW,342,11.0,11.0,41,0.00,,---,0.04,VWS V14.01,2013-02-17 20:29:00,
2013-02-17 15:30:00,32.2,11.1,30.11,NNW,342,8.3,8.3,41,0.00,,---,0.04,VWS V14.01,2013-02-17 20:30:00,
2013-02-17 15:31:00,32.2,11.1,30.11,NW,322,10.5,10.5,41,0.00,,---,0.04,VWS V14.01,2013-02-17 20:31:00,
2013-02-17 15:32:00,32.2,11.1,30.11,North,353,7.6,7.6,41,0.00,,---,0.04,VWS V14.01,2013-02-17 20:32:00,
2013-02-17 15:33:00,32.0,11.0,30.11,WNW,286,14.5,14.5,41,0.00,,---,0.04,VWS V14.01,2013-02-17 20:33:00,
2013-02-17 15:34:00,32.0,11.0,30.11,West,261,8.1,8.1,41,0.00,,---,0.04,VWS V14.01,2013-02-17 20:34:00,
2013-02-17 15:35:00,32.2,11.1,30.11,West,270,8.7,8.7,41,0.00,,---,0.04,VWS V14.01,2013-02-17 20:35:00,
2013-02-17 15:36:00,32.0,11.0,30.11,WSW,246,13.2,13.2,41,0.00,,---,0.04,VWS V14.01,2013-02-17 20:36:00,
2013-02-17 15:37:00,32.0,11.0,30.11,WSW,248,14.5,14.5,41,0.00,,---,0.04,VWS V14.01,2013-02-17 20:37:00,
2013-02-17 15:38:00,32.0,11.0,30.11,WSW,241,12.8,12.8,41,0.00,,---,0.04,VWS V14.01,2013-02-17 20:38:00,
2013-02-17 15:39:00,31.8,10.8,30.11,WSW,249,8.1,8.1,41,0.00,,---,0.04,VWS V14.01,2013-02-17 20:39:00,
2013-02-17 15:40:00,31.8,10.8,30.11,NW,316,15.0,15.0,41,0.00,,---,0.04,VWS V14.01,2013-02-17 20:40:00,
2013-02-17 15:41:00,32.0,11.0,30.11,WNW,294,12.8,12.8,41,0.00,,---,0.04,VWS V14.01,2013-02-17 20:41:00,
2013-02-17 15:42:00,32.0,11.0,30.11,NW,323,12.3,12.3,41,0.00,,---,0.04,VWS V14.01,2013-02-17 20:42:00,
2013-02-17 15:43:00,32.0,11.0,30.11,NNW,327,11.0,11.0,41,0.00,,---,0.04,VWS V14.01,2013-02-17 20:43:00,
2013-02-17 15:44:00,32.0,11.0,30.11,WNW,292,13.2,13.2,41,0.00,,---,0.04,VWS V14.01,2013-02-17 20:44:00,
2013-02-17 15:45:00,32.2,11.1,30.11,WNW,285,6.3,6.3,41,0.00,,---,0.04,VWS V14.01,2013-02-17 20:45:00,
2013-02-17 15:46:00,32.2,11.1,30.11,WNW,288,8.3,8.3,41,0.00,,---,0.04,VWS V14.01,2013-02-17 20:46:00,
2013-02-17 15:47:00,32.2,11.1,30.11,WNW,284,8.1,8.1,41,0.00,,---,0.04,VWS V14.01,2013-02-17 20:47:00,
2013-02-17 15:48:00,32.2,11.1,30.11,NNW,338,15.4,15.4,41,0.00,,---,0.04,VWS V14.01,2013-02-17 20:48:00,
2013-02-17 15:49:00,32.2,11.1,30.11,NW,326,7.2,7.2,41,0.00,,---,0.04,VWS V14.01,2013-02-17 20:49:00,
2013-02-17 15:50:00,32.4,11.3,30.11,WNW,295,10.1,10.1,41,0.00,,---,0.04,VWS V14.01,2013-02-17 20:50:00,
2013-02-17 15:51:00,32.4,11.3,30.11,West,270,10.1,10.1,41,0.00,,---,0.04,VWS V14.01,2013-02-17 20:51:00,
2013-02-17 15:52:00,32.2,11.1,30.11,NW,318,7.6,7.6,41,0.00,,---,0.04,VWS V14.01,2013-02-17 20:52:00,
2013-02-17 15:53:00,32.4,11.3,30.11,WSW,251,17.0,17.0,41,0.00,,---,0.04,VWS V14.01,2013-02-17 20:53:00,
2013-02-17 15:54:00,32.2,11.1,30.11,WSW,249,10.1,10.1,41,0.00,,---,0.04,VWS V14.01,2013-02-17 20:54:00,
2013-02-17 15:55:00,32.4,11.3,30.11,NW,314,12.8,12.8,41,0.00,,---,0.04,VWS V14.01,2013-02-17 20:55:00,
2013-02-17 15:56:00,32.4,11.3,30.11,WNW,288,8.3,8.3,41,0.00,,---,0.04,VWS V14.01,2013-02-17 20:56:00,
2013-02-17 15:57:00,32.4,11.3,30.11,WNW,290,5.8,5.8,41,0.00,,---,0.04,VWS V14.01,2013-02-17 20:57:00,
2013-02-17 15:58:00,32.4,11.3,30.11,WNW,284,10.1,10.1,41,0.00,,---,0.04,VWS V14.01,2013-02-17 20:58:00,
2013-02-17 15:59:00,32.4,11.3,30.11,WNW,298,10.1,10.1,41,0.00,,---,0.04,VWS V14.01,2013-02-17 20:59:00,
2013-02-17 16:00:00,32.4,11.3,30.11,WNW,287,10.5,10.5,41,0.00,,---,0.04,VWS V14.01,2013-02-17 21:00:00,
2013-02-17 16:01:00,32.4,11.3,30.11,West,281,16.8,16.8,41,0.00,,---,0.04,VWS V14.01,2013-02-17 21:01:00,
2013-02-17 16:02:00,32.4,11.3,30.11,WSW,245,8.7,8.7,41,0.00,,---,0.04,VWS V14.01,2013-02-17 21:02:00,
2013-02-17 16:03:00,32.2,11.1,30.11,NW,310,13.2,13.2,41,0.00,,---,0.04,VWS V14.01,2013-02-17 21:03:00,
2013-02-17 16:04:00,32.4,11.3,30.11,NW,305,10.1,10.1,41,0.00,,---,0.04,VWS V14.01,2013-02-17 21:04:00,
2013-02-17 16:05:00,32.4,11.3,30.11,NW,307,6.3,6.3,41,0.00,,---,0.04,VWS V14.01,2013-02-17 21:05:00,
2013-02-17 16:06:00,32.4,11.3,30.11,WNW,290,7.6,7.6,41,0.00,,---,0.04,VWS V14.01,2013-02-17 21:06:00,
2013-02-17 16:07:00,32.4,11.3,30.11,NW,316,8.3,8.3,41,0.00,,---,0.04,VWS V14.01,2013-02-17 21:07:00,
2013-02-17 16:08:00,32.4,11.3,30.11,WNW,293,8.3,8.3,41,0.00,,---,0.04,VWS V14.01,2013-02-17 21:08:00,
2013-02-17 16:09:00,32.4,11.3,30.11,NW,314,8.3,8.3,41,0.00,,---,0.04,VWS V14.01,2013-02-17 21:09:00,
2013-02-17 16:10:00,32.5,11.5,30.11,NW,319,10.5,10.5,41,0.00,,---,0.04,VWS V14.01,2013-02-17 21:10:00,
2013-02-17 16:11:00,32.5,11.5,30.11,NW,312,13.2,13.2,41,0.00,,---,0.04,VWS V14.01,2013-02-17 21:11:00,
2013-02-17 16:12:00,32.5,11.5,30.14,WSW,249,10.5,10.5,41,0.00,,---,0.04,VWS V14.01,2013-02-17 21:12:00,
2013-02-17 16:13:00,32.5,11.5,30.14,NW,307,12.3,12.3,41,0.00,,---,0.04,VWS V14.01,2013-02-17 21:13:00,
2013-02-17 16:14:00,32.5,11.5,30.14,West,276,6.3,6.3,41,0.00,,---,0.04,VWS V14.01,2013-02-17 21:14:00,
2013-02-17 16:15:00,32.5,11.5,30.14,NW,307,7.2,7.2,41,0.00,,---,0.04,VWS V14.01,2013-02-17 21:15:00,
2013-02-17 16:16:00,32.5,11.5,30.14,WNW,283,10.1,10.1,41,0.00,,---,0.04,VWS V14.01,2013-02-17 21:16:00,
2013-02-17 16:17:00,32.5,11.5,30.14,NW,304,8.3,8.3,41,0.00,,---,0.04,VWS V14.01,2013-02-17 21:17:00,
2013-02-17 16:18:00,32.5,11.5,30.14,WNW,293,11.0,11.0,41,0.00,,---,0.04,VWS V14.01,2013-02-17 21:18:00,
2013-02-17 16:19:00,32.5,11.5,30.14,WNW,288,8.3,8.3,41,0.00,,---,0.04,VWS V14.01,2013-02-17 21:19:00,
2013-02-17 16:20:00,32.5,11.5,30.14,NNW,332,9.6,9.6,41,0.00,,---,0.04,VWS V14.01,2013-02-17 21:20:00,
2013-02-17 16:21:00,32.7,11.6,30.14,WNW,298,8.3,8.3,41,0.00,,---,0.04,VWS V14.01,2013-02-17 21:21:00,
2013-02-17 16:22:00,32.7,11.6,30.14,West,279,15.4,15.4,41,0.00,,---,0.04,VWS V14.01,2013-02-17 21:22:00,
2013-02-17 16:23:00,32.7,11.6,30.14,WNW,282,15.0,15.0,41,0.00,,---,0.04,VWS V14.01,2013-02-17 21:23:00,
2013-02-17 16:24:00,32.5,11.5,30.14,WNW,300,11.0,11.0,41,0.00,,---,0.04,VWS V14.01,2013-02-17 21:24:00,
2013-02-17 16:25:00,32.5,11.5,30.14,NW,307,11.0,11.0,41,0.00,,---,0.04,VWS V14.01,2013-02-17 21:25:00,
2013-02-17 16:26:00,32.5,11.5,30.14,NW,312,10.1,10.1,41,0.00,,---,0.04,VWS V14.01,2013-02-17 21:26:00,
2013-02-17 16:27:00,32.5,11.5,30.14,NNW,330,7.6,7.6,41,0.00,,---,0.04,VWS V14.01,2013-02-17 21:27:00,
2013-02-17 16:28:00,32.5,11.5,30.14,WNW,296,12.3,12.3,41,0.00,,---,0.04,VWS V14.01,2013-02-17 21:28:00,
2013-02-17 16:29:00,32.5,11.5,30.14,West,277,4.9,4.9,41,0.00,,---,0.04,VWS V14.01,2013-02-17 21:29:00,
2013-02-17 16:30:00,32.5,11.5,30.14,WNW,291,15.0,15.0,41,0.00,,---,0.04,VWS V14.01,2013-02-17 21:30:00,
2013-02-17 16:31:00,32.5,11.5,30.14,NNW,342,7.6,7.6,41,0.00,,---,0.04,VWS V14.01,2013-02-17 21:31:00,
2013-02-17 16:32:00,32.5,11.5,30.14,WNW,297,12.8,12.8,41,0.00,,---,0.04,VWS V14.01,2013-02-17 21:32:00,
2013-02-17 16:33:00,32.5,11.5,30.14,NW,322,15.4,15.4,41,0.00,,---,0.04,VWS V14.01,2013-02-17 21:33:00,
2013-02-17 16:34:00,32.4,11.3,30.14,NW,313,13.6,13.6,41,0.00,,---,0.04,VWS V14.01,2013-02-17 21:34:00,
2013-02-17 16:35:00,32.4,11.3,30.14,WNW,289,10.1,10.1,41,0.00,,---,0.04,VWS V14.01,2013-02-17 21:35:00,
2013-02-17 16:36:00,32.4,11.3,30.14,WNW,289,15.0,15.0,41,0.00,,---,0.04,VWS V14.01,2013-02-17 21:36:00,
2013-02-17 16:37:00,32.2,11.1,30.14,NW,316,12.8,12.8,41,0.00,,---,0.04,VWS V14.01,2013-02-17 21:37:00,
2013-02-17 16:38:00,32.2,11.1,30.14,West,277,10.1,10.1,41,0.00,,---,0.04,VWS V14.01,2013-02-17 21:38:00,
2013-02-17 16:39:00,32.2,11.1,30.14,West,268,15.0,15.0,41,0.00,,---,0.04,VWS V14.01,2013-02-17 21:39:00,
2013-02-17 16:40:00,32.2,11.1,30.14,NNW,339,13.2,13.2,41,0.00,,---,0.04,VWS V14.01,2013-02-17 21:40:00,
2013-02-17 16:41:00,32.2,11.1,30.14,WNW,291,10.5,10.5,41,0.00,,---,0.04,VWS V14.01,2013-02-17 21:41:00,
2013-02-17 16:42:00,32.2,11.1,30.14,NW,326,4.0,4.0,41,0.00,,---,0.04,VWS V14.01,2013-02-17 21:42:00,
2013-02-17 16:43:00,32.2,11.1,30.14,NW,326,9.2,9.2,41,0.00,,---,0.04,VWS V14.01,2013-02-17 21:43:00,
2013-02-17 16:44:00,32.2,11.1,30.14,NW,305,8.7,8.7,41,0.00,,---,0.04,VWS V14.01,2013-02-17 21:44:00,
2013-02-17 16:45:00,32.2,11.1,30.14,WNW,290,8.7,8.7,41,0.00,,---,0.04,VWS V14.01,2013-02-17 21:45:00,
2013-02-17 16:46:00,32.2,11.1,30.14,WNW,290,7.6,7.6,41,0.00,,---,0.04,VWS V14.01,2013-02-17 21:46:00,
2013-02-17 16:47:00,32.2,11.1,30.14,West,265,8.3,8.3,41,0.00,,---,0.04,VWS V14.01,2013-02-17 21:47:00,
2013-02-17 16:48:00,32.2,11.1,30.14,NNW,333,15.4,15.4,41,0.00,,---,0.04,VWS V14.01,2013-02-17 21:48:00,
2013-02-17 16:49:00,32.2,11.1,30.14,WNW,301,13.2,13.2,41,0.00,,---,0.04,VWS V14.01,2013-02-17 21:49:00,
2013-02-17 16:50:00,32.0,11.0,30.14,WNW,297,7.6,7.6,41,0.00,,---,0.04,VWS V14.01,2013-02-17 21:50:00,
2013-02-17 16:51:00,32.0,11.0,30.14,WNW,283,8.7,8.7,41,0.00,,---,0.04,VWS V14.01,2013-02-17 21:51:00,
2013-02-17 16:52:00,32.0,11.0,30.14,NNW,341,8.3,8.3,41,0.00,,---,0.04,VWS V14.01,2013-02-17 21:52:00,
2013-02-17 16:53:00,32.0,11.0,30.14,West,281,7.6,7.6,41,0.00,,---,0.04,VWS V14.01,2013-02-17 21:53:00,
2013-02-17 16:54:00,32.0,11.0,30.14,WNW,294,7.2,7.2,41,0.00,,---,0.04,VWS V14.01,2013-02-17 21:54:00,
2013-02-17 16:55:00,32.0,11.0,30.14,WNW,294,7.6,7.6,41,0.00,,---,0.04,VWS V14.01,2013-02-17 21:55:00,
2013-02-17 16:56:00,32.0,11.0,30.14,WNW,303,5.8,5.8,41,0.00,,---,0.04,VWS V14.01,2013-02-17 21:56:00,
2013-02-17 16:57:00,31.8,10.8,30.14,West,270,5.8,5.8,41,0.00,,---,0.04,VWS V14.01,2013-02-17 21:57:00,
2013-02-17 16:58:00,31.8,10.8,30.14,NW,317,8.3,8.3,41,0.00,,---,0.04,VWS V14.01,2013-02-17 21:58:00,
2013-02-17 16:59:00,31.8,10.8,30.14,NNW,335,6.3,6.3,41,0.00,,---,0.04,VWS V14.01,2013-02-17 21:59:00,
2013-02-17 17:00:00,31.8,10.8,30.14,NNW,343,10.5,10.5,41,0.00,,---,0.04,VWS V14.01,2013-02-17 22:00:00,
2013-02-17 17:01:00,31.8,10.8,30.14,West,271,8.7,8.7,41,0.00,,---,0.04,VWS V14.01,2013-02-17 22:01:00,
2013-02-17 17:02:00,31.8,10.8,30.14,WNW,287,10.1,10.1,41,0.00,,---,0.04,VWS V14.01,2013-02-17 22:02:00,
2013-02-17 17:03:00,31.8,10.8,30.14,NNW,328,13.2,13.2,41,0.00,,---,0.04,VWS V14.01,2013-02-17 22:03:00,
2013-02-17 17:04:00,31.8,10.8,30.14,NW,321,8.3,8.3,41,0.00,,---,0.04,VWS V14.01,2013-02-17 22:04:00,
2013-02-17 17:05:00,31.8,10.8,30.14,NNW,328,13.2,13.2,41,0.00,,---,0.04,VWS V14.01,2013-02-17 22:05:00,
2013-02-17 17:06:00,31.8,10.8,30.14,West,277,11.0,11.0,41,0.00,,---,0.04,VWS V14.01,2013-02-17 22:06:00,
2013-02-17 17:07:00,31.8,10.8,30.14,WNW,301,11.0,11.0,41,0.00,,---,0.04,VWS V14.01,2013-02-17 22:07:00,
2013-02-17 17:08:00,31.8,10.8,30.14,NW,320,4.0,4.0,41,0.00,,---,0.04,VWS V14.01,2013-02-17 22:08:00,
2013-02-17 17:09:00,31.6,10.6,30.14,NW,322,12.3,12.3,41,0.00,,---,0.04,VWS V14.01,2013-02-17 22:09:00,
2013-02-17 17:10:00,31.6,10.6,30.14,NW,312,11.0,11.0,41,0.00,,---,0.04,VWS V14.01,2013-02-17 22:10:00,
2013-02-17 17:11:00,31.6,10.6,30.14,WNW,290,8.1,8.1,41,0.00,,---,0.04,VWS V14.01,2013-02-17 22:11:00,
2013-02-17 17:12:00,31.6,10.6,30.14,WNW,283,16.3,16.3,41,0.00,,---,0.04,VWS V14.01,2013-02-17 22:12:00,
2013-02-17 17:13:00,31.5,10.5,30.14,NNW,344,11.0,11.0,41,0.00,,---,0.04,VWS V14.01,2013-02-17 22:13:00,
2013-02-17 17:14:00,31.5,10.5,30.14,NNW,339,5.4,5.4,41,0.00,,---,0.04,VWS V14.01,2013-02-17 22:14:00,
2013-02-17 17:15:00,31.5,10.5,30.14,WNW,292,8.7,8.7,41,0.00,,---,0.04,VWS V14.01,2013-02-17 22:15:00,
2013-02-17 17:16:00,31.5,10.5,30.14,West,277,8.1,8.1,41,0.00,,---,0.04,VWS V14.01,2013-02-17 22:16:00,
2013-02-17 17:17:00,31.3,10.3,30.14,NW,308,7.2,7.2,41,0.00,,---,0.04,VWS V14.01,2013-02-17 22:17:00,
2013-02-17 17:18:00,31.3,10.3,30.14,West,280,7.6,7.6,41,0.00,,---,0.04,VWS V14.01,2013-02-17 22:18:00,
2013-02-17 17:19:00,31.3,10.3,30.14,NNW,327,6.3,6.3,41,0.00,,---,0.04,VWS V14.01,2013-02-17 22:19:00,
2013-02-17 17:20:00,31.1,10.2,30.14,NW,308,5.8,5.8,41,0.00,,---,0.04,VWS V14.01,2013-02-17 22:20:00,
2013-02-17 17:21:00,31.1,10.2,30.14,NW,323,7.6,7.6,41,0.00,,---,0.04,VWS V14.01,2013-02-17 22:21:00,
2013-02-17 17:22:00,31.1,10.2,30.14,NW,307,8.3,8.3,41,0.00,,---,0.04,VWS V14.01,2013-02-17 22:22:00,
2013-02-17 17:23:00,31.1,10.2,30.14,NW,316,7.6,7.6,41,0.00,,---,0.04,VWS V14.01,2013-02-17 22:23:00,
2013-02-17 17:24:00,31.1,10.2,30.14,WNW,286,6.7,6.7,41,0.00,,---,0.04,VWS V14.01,2013-02-17 22:24:00,
2013-02-17 17:25:00,31.1,10.2,30.14,NW,304,10.1,10.1,41,0.00,,---,0.04,VWS V14.01,2013-02-17 22:25:00,
2013-02-17 17:26:00,30.9,10.0,30.14,NW,304,8.3,8.3,41,0.00,,---,0.04,VWS V14.01,2013-02-17 22:26:00,
2013-02-17 17:27:00,30.9,10.0,30.14,WNW,303,7.6,7.6,41,0.00,,---,0.04,VWS V14.01,2013-02-17 22:27:00,
2013-02-17 17:28:00,30.9,10.0,30.14,NW,315,5.8,5.8,41,0.00,,---,0.04,VWS V14.01,2013-02-17 22:28:00,
2013-02-17 17:29:00,30.9,10.0,30.14,West,275,5.8,5.8,41,0.00,,---,0.04,VWS V14.01,2013-02-17 22:29:00,
2013-02-17 17:30:00,30.7,9.8,30.14,NW,306,7.2,7.2,41,0.00,,---,0.04,VWS V14.01,2013-02-17 22:30:00,
2013-02-17 17:31:00,30.7,9.8,30.14,NW,317,7.6,7.6,41,0.00,,---,0.04,VWS V14.01,2013-02-17 22:31:00,
2013-02-17 17:32:00,30.7,9.8,30.14,West,271,6.3,6.3,41,0.00,,---,0.04,VWS V14.01,2013-02-17 22:32:00,
2013-02-17 17:33:00,30.7,9.8,30.14,WNW,303,5.8,5.8,41,0.00,,---,0.04,VWS V14.01,2013-02-17 22:33:00,
2013-02-17 17:34:00,30.6,9.7,30.14,West,276,7.2,7.2,41,0.00,,---,0.04,VWS V14.01,2013-02-17 22:34:00,
2013-02-17 17:35:00,30.6,9.7,30.14,NNW,338,6.3,6.3,41,0.00,,---,0.04,VWS V14.01,2013-02-17 22:35:00,
2013-02-17 17:36:00,30.6,9.7,30.14,NW,313,2.7,2.7,41,0.00,,---,0.04,VWS V14.01,2013-02-17 22:36:00,
2013-02-17 17:37:00,30.6,9.7,30.14,NW,307,5.4,5.4,41,0.00,,---,0.04,VWS V14.01,2013-02-17 22:37:00,
2013-02-17 17:38:00,30.4,9.5,30.14,West,279,6.3,6.3,41,0.00,,---,0.04,VWS V14.01,2013-02-17 22:38:00,
2013-02-17 17:39:00,30.4,9.5,30.14,WNW,290,7.6,7.6,41,0.00,,---,0.04,VWS V14.01,2013-02-17 22:39:00,
2013-02-17 17:40:00,30.4,9.5,30.14,NW,320,7.6,7.6,41,0.00,,---,0.04,VWS V14.01,2013-02-17 22:40:00,
2013-02-17 17:41:00,30.4,9.5,30.14,NW,310,5.4,5.4,41,0.00,,---,0.04,VWS V14.01,2013-02-17 22:41:00,
2013-02-17 17:42:00,30.4,9.5,30.14,NW,311,5.4,5.4,41,0.00,,---,0.04,VWS V14.01,2013-02-17 22:42:00,
2013-02-17 17:43:00,30.2,9.4,30.14,North,0,5.8,5.8,41,0.00,,---,0.04,VWS V14.01,2013-02-17 22:43:00,
2013-02-17 17:44:00,30.2,9.4,30.14,NW,318,7.6,7.6,41,0.00,,---,0.04,VWS V14.01,2013-02-17 22:44:00,
2013-02-17 17:45:00,30.2,9.4,30.14,West,279,6.3,6.3,41,0.00,,---,0.04,VWS V14.01,2013-02-17 22:45:00,
2013-02-17 17:46:00,30.2,9.4,30.14,NW,320,6.3,6.3,41,0.00,,---,0.04,VWS V14.01,2013-02-17 22:46:00,
2013-02-17 17:47:00,30.2,9.4,30.14,WNW,284,3.1,3.1,41,0.00,,---,0.04,VWS V14.01,2013-02-17 22:47:00,
2013-02-17 17:48:00,30.2,9.4,30.14,NW,316,5.4,5.4,41,0.00,,---,0.04,VWS V14.01,2013-02-17 22:48:00,
2013-02-17 17:49:00,30.2,9.4,30.14,NW,313,6.3,6.3,41,0.00,,---,0.04,VWS V14.01,2013-02-17 22:49:00,
2013-02-17 17:50:00,30.0,9.2,30.14,WNW,291,4.9,4.9,41,0.00,,---,0.04,VWS V14.01,2013-02-17 22:50:00,
2013-02-17 17:51:00,30.0,9.2,30.14,WNW,299,4.0,4.0,41,0.00,,---,0.04,VWS V14.01,2013-02-17 22:51:00,
2013-02-17 17:52:00,30.0,9.2,30.14,WNW,295,5.4,5.4,41,0.00,,---,0.04,VWS V14.01,2013-02-17 22:52:00,
2013-02-17 17:53:00,30.0,9.2,30.14,NNW,345,5.8,5.8,41,0.00,,---,0.04,VWS V14.01,2013-02-17 22:53:00,
2013-02-17 17:54:00,29.8,9.0,30.14,NW,313,8.3,8.3,41,0.00,,---,0.04,VWS V14.01,2013-02-17 22:54:00,
2013-02-17 17:55:00,29.8,9.0,30.14,West,281,7.6,7.6,41,0.00,,---,0.04,VWS V14.01,2013-02-17 22:55:00,
2013-02-17 17:56:00,29.8,9.0,30.14,NW,319,8.3,8.3,41,0.00,,---,0.04,VWS V14.01,2013-02-17 22:56:00,
2013-02-17 17:57:00,29.8,9.0,30.17,NW,310,5.4,5.4,41,0.00,,---,0.04,VWS V14.01,2013-02-17 22:57:00,
2013-02-17 17:58:00,29.7,8.9,30.17,NNW,327,8.7,8.7,41,0.00,,---,0.04,VWS V14.01,2013-02-17 22:58:00,
2013-02-17 17:59:00,29.7,8.9,30.17,NW,316,7.2,7.2,41,0.00,,---,0.04,VWS V14.01,2013-02-17 22:59:00,
2013-02-17 18:00:00,29.7,8.9,30.17,NW,313,4.9,4.9,41,0.00,,---,0.04,VWS V14.01,2013-02-17 23:00:00,
2013-02-17 18:01:00,29.7,8.9,30.17,WNW,297,6.7,6.7,41,0.00,,---,0.04,VWS V14.01,2013-02-17 23:01:00,
2013-02-17 18:02:00,29.7,8.9,30.17,WNW,301,7.6,7.6,41,0.00,,---,0.04,VWS V14.01,2013-02-17 23:02:00,
2013-02-17 18:03:00,29.7,8.9,30.17,NW,311,4.9,4.9,41,0.00,,---,0.04,VWS V14.01,2013-02-17 23:03:00,
2013-02-17 18:04:00,29.7,8.9,30.17,NNW,329,4.9,4.9,41,0.00,,---,0.04,VWS V14.01,2013-02-17 23:04:00,
2013-02-17 18:05:00,29.5,8.7,30.17,NW,322,6.3,6.3,41,0.00,,---,0.04,VWS V14.01,2013-02-17 23:05:00,
2013-02-17 18:06:00,29.5,8.7,30.17,NW,322,3.1,3.1,41,0.00,,---,0.04,VWS V14.01,2013-02-17 23:06:00,
2013-02-17 18:07:00,29.5,8.7,30.17,WNW,297,3.6,3.6,41,0.00,,---,0.04,VWS V14.01,2013-02-17 23:07:00,
2013-02-17 18:08:00,29.5,8.7,30.17,NW,304,2.7,2.7,41,0.00,,---,0.04,VWS V14.01,2013-02-17 23:08:00,
2013-02-17 18:09:00,29.5,8.7,30.17,WNW,286,2.7,2.7,41,0.00,,---,0.04,VWS V14.01,2013-02-17 23:09:00,
2013-02-17 18:10:00,29.5,8.7,30.17,WNW,291,0.0,0.0,41,0.00,,---,0.04,VWS V14.01,2013-02-17 23:10:00,
2013-02-17 18:11:00,29.5,8.7,30.17,NW,311,3.6,3.6,41,0.00,,---,0.04,VWS V14.01,2013-02-17 23:11:00,
2013-02-17 18:12:00,29.3,8.5,30.17,WSW,254,3.1,3.1,41,0.00,,---,0.04,VWS V14.01,2013-02-17 23:12:00,
2013-02-17 18:13:00,29.3,8.5,30.17,NW,316,6.3,6.3,41,0.00,,---,0.04,VWS V14.01,2013-02-17 23:13:00,
2013-02-17 18:14:00,29.3,8.5,30.17,West,277,4.0,4.0,41,0.00,,---,0.04,VWS V14.01,2013-02-17 23:14:00,
2013-02-17 18:15:00,29.3,8.5,30.17,West,278,4.0,4.0,41,0.00,,---,0.04,VWS V14.01,2013-02-17 23:15:00,
2013-02-17 18:16:00,29.3,8.5,30.17,West,276,2.7,2.7,41,0.00,,---,0.04,VWS V14.01,2013-02-17 23:16:00,
2013-02-17 18:17:00,29.1,8.4,30.17,West,281,5.8,5.8,41,0.00,,---,0.04,VWS V14.01,2013-02-17 23:17:00,
2013-02-17 18:18:00,29.1,8.4,30.17,WNW,298,4.0,4.0,41,0.00,,---,0.04,VWS V14.01,2013-02-17 23:18:00,
2013-02-17 18:19:00,28.9,8.2,30.17,WNW,293,8.7,8.7,41,0.00,,---,0.04,VWS V14.01,2013-02-17 23:19:00,
2013-02-17 18:20:00,28.9,8.2,30.17,West,278,4.0,4.0,41,0.00,,---,0.04,VWS V14.01,2013-02-17 23:20:00,
2013-02-17 18:21:00,28.9,8.2,30.17,NW,306,4.9,4.9,41,0.00,,---,0.04,VWS V14.01,2013-02-17 23:21:00,
2013-02-17 18:22:00,28.9,8.2,30.17,WNW,288,5.8,5.8,41,0.00,,---,0.04,VWS V14.01,2013-02-17 23:22:00,
2013-02-17 18:23:00,28.9,8.2,30.17,West,264,3.6,3.6,41,0.00,,---,0.04,VWS V14.01,2013-02-17 23:23:00,
2013-02-17 18:24:00,28.8,8.0,30.17,WNW,299,3.6,3.6,41,0.00,,---,0.04,VWS V14.01,2013-02-17 23:24:00,
2013-02-17 18:25:00,28.8,8.0,30.17,NW,313,3.6,3.6,41,0.00,,---,0.04,VWS V14.01,2013-02-17 23:25:00,
2013-02-17 18:26:00,28.8,8.0,30.17,NW,315,4.9,4.9,41,0.00,,---,0.04,VWS V14.01,2013-02-17 23:26:00,
2013-02-17 18:27:00,28.8,8.0,30.17,WNW,290,4.5,4.5,41,0.00,,---,0.04,VWS V14.01,2013-02-17 23:27:00,
2013-02-17 18:28:00,28.8,8.0,30.17,NW,304,2.7,2.7,41,0.00,,---,0.04,VWS V14.01,2013-02-17 23:28:00,
2013-02-17 18:29:00,28.8,8.0,30.17,NW,314,4.0,4.0,41,0.00,,---,0.04,VWS V14.01,2013-02-17 23:29:00,
2013-02-17 18:30:00,28.6,7.9,30.17,NW,311,3.1,3.1,41,0.00,,---,0.04,VWS V14.01,2013-02-17 23:30:00,
2013-02-17 18:31:00,28.6,7.9,30.17,NW,306,5.4,5.4,41,0.00,,---,0.04,VWS V14.01,2013-02-17 23:31:00,
2013-02-17 18:32:00,28.6,7.9,30.17,WNW,302,4.9,4.9,41,0.00,,---,0.04,VWS V14.01,2013-02-17 23:32:00,
2013-02-17 18:33:00,28.6,7.9,30.17,WNW,303,4.0,4.0,41,0.00,,---,0.04,VWS V14.01,2013-02-17 23:33:00,
2013-02-17 18:34:00,28.6,7.9,30.17,NNW,330,3.6,3.6,41,0.00,,---,0.04,VWS V14.01,2013-02-17 23:34:00,
2013-02-17 18:35:00,28.6,7.9,30.17,NW,318,3.6,3.6,41,0.00,,---,0.04,VWS V14.01,2013-02-17 23:35:00,
2013-02-17 18:36:00,28.6,7.9,30.17,WNW,302,3.6,3.6,41,0.00,,---,0.04,VWS V14.01,2013-02-17 23:36:00,
2013-02-17 18:37:00,28.6,7.9,30.17,NNW,327,5.4,5.4,41,0.00,,---,0.04,VWS V14.01,2013-02-17 23:37:00,
2013-02-17 18:38:00,28.4,7.7,30.17,WNW,289,4.0,4.0,41,0.00,,---,0.04,VWS V14.01,2013-02-17 23:38:00,
2013-02-17 18:39:00,28.4,7.7,30.17,WNW,287,5.4,5.4,41,0.00,,---,0.04,VWS V14.01,2013-02-17 23:39:00,
2013-02-17 18:40:00,28.4,7.7,30.17,NW,307,4.9,4.9,41,0.00,,---,0.04,VWS V14.01,2013-02-17 23:40:00,
2013-02-17 18:41:00,28.4,7.7,30.17,NNW,341,4.0,4.0,41,0.00,,---,0.04,VWS V14.01,2013-02-17 23:41:00,
2013-02-17 18:42:00,28.2,7.6,30.17,WNW,302,4.9,4.9,41,0.00,,---,0.04,VWS V14.01,2013-02-17 23:42:00,
2013-02-17 18:43:00,28.2,7.6,30.17,NW,321,4.0,4.0,41,0.00,,---,0.04,VWS V14.01,2013-02-17 23:43:00,
2013-02-17 18:44:00,28.2,7.6,30.17,NW,311,4.0,4.0,41,0.00,,---,0.04,VWS V14.01,2013-02-17 23:44:00,
2013-02-17 18:45:00,28.2,7.6,30.17,WNW,290,3.6,3.6,41,0.00,,---,0.04,VWS V14.01,2013-02-17 23:45:00,
2013-02-17 18:46:00,28.2,7.6,30.17,WNW,290,3.6,3.6,41,0.00,,---,0.04,VWS V14.01,2013-02-17 23:46:00,
2013-02-17 18:47:00,28.2,7.6,30.17,WNW,299,3.6,3.6,41,0.00,,---,0.04,VWS V14.01,2013-02-17 23:47:00,
2013-02-17 18:48:00,28.0,7.4,30.17,WNW,303,3.6,3.6,41,0.00,,---,0.04,VWS V14.01,2013-02-17 23:48:00,
2013-02-17 18:49:00,28.0,7.4,30.17,WNW,296,2.7,2.7,41,0.00,,---,0.04,VWS V14.01,2013-02-17 23:49:00,
2013-02-17 18:50:00,28.0,7.4,30.17,NNW,327,6.3,6.3,41,0.00,,---,0.04,VWS V14.01,2013-02-17 23:50:00,
2013-02-17 18:51:00,28.0,7.4,30.17,NW,311,4.0,4.0,41,0.00,,---,0.04,VWS V14.01,2013-02-17 23:51:00,
2013-02-17 18:52:00,28.0,7.4,30.17,WNW,294,5.4,5.4,41,0.00,,---,0.04,VWS V14.01,2013-02-17 23:52:00,
2013-02-17 18:53:00,28.0,7.4,30.17,WNW,301,5.4,5.4,41,0.00,,---,0.04,VWS V14.01,2013-02-17 23:53:00,
2013-02-17 18:54:00,28.0,7.4,30.17,NW,310,4.0,4.0,41,0.00,,---,0.04,VWS V14.01,2013-02-17 23:54:00,
2013-02-17 18:55:00,27.9,7.2,30.17,WNW,298,3.1,3.1,41,0.00,,---,0.04,VWS V14.01,2013-02-17 23:55:00,
2013-02-17 18:56:00,28.0,7.4,30.17,NW,309,3.6,3.6,41,0.00,,---,0.04,VWS V14.01,2013-02-17 23:56:00,
2013-02-17 18:57:00,28.0,7.4,30.20,NNW,341,4.0,4.0,41,0.00,,---,0.04,VWS V14.01,2013-02-17 23:57:00,
2013-02-17 18:58:00,27.9,7.2,30.20,NNW,333,3.6,3.6,41,0.00,,---,0.04,VWS V14.01,2013-02-17 23:58:00,
2013-02-17 18:59:00,27.9,7.2,30.20,NW,316,3.6,3.6,41,0.00,,---,0.04,VWS V14.01,2013-02-17 23:59:00,
2013-02-17 19:00:00,27.9,7.2,30.20,NW,305,5.4,5.4,41,0.00,,---,0.04,VWS V14.01,2013-02-18 00:00:00,
2013-02-17 19:01:00,27.9,7.2,30.20,NW,310,3.6,3.6,41,0.00,,---,0.04,VWS V14.01,2013-02-18 00:01:00,
2013-02-17 19:02:00,27.9,7.2,30.20,NNW,336,4.0,4.0,41,0.00,,---,0.04,VWS V14.01,2013-02-18 00:02:00,
2013-02-17 19:03:00,27.9,7.2,30.20,NW,309,3.6,3.6,41,0.00,,---,0.04,VWS V14.01,2013-02-18 00:03:00,
2013-02-17 19:04:00,27.9,7.2,30.20,NW,326,4.0,4.0,41,0.00,,---,0.04,VWS V14.01,2013-02-18 00:04:00,
2013-02-17 19:05:00,27.9,7.2,30.20,NW,306,3.6,3.6,41,0.00,,---,0.04,VWS V14.01,2013-02-18 00:05:00,
2013-02-17 19:06:00,27.9,7.2,30.20,NW,310,2.7,2.7,41,0.00,,---,0.04,VWS V14.01,2013-02-18 00:06:00,
2013-02-17 19:07:00,27.9,7.2,30.20,NW,313,4.0,4.0,41,0.00,,---,0.04,VWS V14.01,2013-02-18 00:07:00,
2013-02-17 19:08:00,27.9,7.2,30.20,NW,306,3.1,3.1,41,0.00,,---,0.04,VWS V14.01,2013-02-18 00:08:00,
2013-02-17 19:09:00,27.9,7.2,30.20,NW,320,3.6,3.6,41,0.00,,---,0.04,VWS V14.01,2013-02-18 00:09:00,
2013-02-17 19:10:00,27.9,7.2,30.20,NW,324,2.7,2.7,41,0.00,,---,0.04,VWS V14.01,2013-02-18 00:10:00,
2013-02-17 19:11:00,27.9,7.2,30.20,NW,313,4.0,4.0,41,0.00,,---,0.04,VWS V14.01,2013-02-18 00:11:00,
2013-02-17 19:12:00,27.9,7.2,30.20,NNW,342,5.4,5.4,41,0.00,,---,0.04,VWS V14.01,2013-02-18 00:12:00,
2013-02-17 19:13:00,27.9,7.2,30.20,North,353,5.8,5.8,41,0.00,,---,0.04,VWS V14.01,2013-02-18 00:13:00,
2013-02-17 19:14:00,27.9,7.2,30.20,NNW,331,3.6,3.6,41,0.00,,---,0.04,VWS V14.01,2013-02-18 00:14:00,
2013-02-17 19:15:00,27.7,7.1,30.20,NW,306,5.8,5.8,41,0.00,,---,0.04,VWS V14.01,2013-02-18 00:15:00,
2013-02-17 19:16:00,27.7,7.1,30.20,NNW,329,3.6,3.6,41,0.00,,---,0.04,VWS V14.01,2013-02-18 00:16:00,
2013-02-17 19:17:00,27.7,7.1,30.20,NW,324,4.0,4.0,41,0.00,,---,0.04,VWS V14.01,2013-02-18 00:17:00,
2013-02-17 19:18:00,27.7,7.1,30.20,NNW,334,3.6,3.6,41,0.00,,---,0.04,VWS V14.01,2013-02-18 00:18:00,
2013-02-17 19:19:00,27.7,7.1,30.20,NW,318,3.6,3.6,41,0.00,,---,0.04,VWS V14.01,2013-02-18 00:19:00,
2013-02-17 19:20:00,27.7,7.1,30.20,NW,325,3.1,3.1,41,0.00,,---,0.04,VWS V14.01,2013-02-18 00:20:00,
2013-02-17 19:21:00,27.7,7.1,30.20,NNW,341,4.5,4.5,41,0.00,,---,0.04,VWS V14.01,2013-02-18 00:21:00,
2013-02-17 19:22:00,27.7,7.1,30.20,NNW,339,6.3,6.3,41,0.00,,---,0.04,VWS V14.01,2013-02-18 00:22:00,
2013-02-17 19:23:00,27.7,7.1,30.20,NNW,342,3.1,3.1,41,0.00,,---,0.04,VWS V14.01,2013-02-18 00:23:00,
2013-02-17 19:24:00,27.5,6.9,30.20,NNW,335,3.6,3.6,41,0.00,,---,0.04,VWS V14.01,2013-02-18 00:24:00,
2013-02-17 19:25:00,27.5,6.9,30.20,North,353,3.6,3.6,41,0.00,,---,0.04,VWS V14.01,2013-02-18 00:25:00,
2013-02-17 19:26:00,27.5,6.9,30.20,NNW,330,4.0,4.0,41,0.00,,---,0.04,VWS V14.01,2013-02-18 00:26:00,
2013-02-17 19:27:00,27.5,6.9,30.20,NW,326,4.0,4.0,41,0.00,,---,0.04,VWS V14.01,2013-02-18 00:27:00,
2013-02-17 19:28:00,27.5,6.9,30.20,NW,325,3.1,3.1,41,0.00,,---,0.04,VWS V14.01,2013-02-18 00:28:00,
2013-02-17 19:29:00,27.5,6.9,30.20,NW,321,4.0,4.0,41,0.00,,---,0.04,VWS V14.01,2013-02-18 00:29:00,
2013-02-17 19:30:00,27.5,6.9,30.20,NNW,336,4.0,4.0,41,0.00,,---,0.04,VWS V14.01,2013-02-18 00:30:00,
2013-02-17 19:31:00,27.5,6.9,30.20,NNW,344,3.6,3.6,41,0.00,,---,0.04,VWS V14.01,2013-02-18 00:31:00,
2013-02-17 19:32:00,27.3,6.7,30.20,NW,321,4.0,4.0,41,0.00,,---,0.04,VWS V14.01,2013-02-18 00:32:00,
2013-02-17 19:33:00,27.3,6.7,30.20,NW,325,2.7,2.7,41,0.00,,---,0.04,VWS V14.01,2013-02-18 00:33:00,
2013-02-17 19:34:00,27.3,6.7,30.20,NW,323,2.7,2.7,41,0.00,,---,0.04,VWS V14.01,2013-02-18 00:34:00,
2013-02-17 19:35:00,27.3,6.7,30.20,NW,323,4.5,4.5,41,0.00,,---,0.04,VWS V14.01,2013-02-18 00:35:00,
2013-02-17 19:36:00,27.3,6.7,30.20,NNW,333,3.6,3.6,41,0.00,,---,0.04,VWS V14.01,2013-02-18 00:36:00,
2013-02-17 19:37:00,27.3,6.7,30.20,NW,325,3.1,3.1,41,0.00,,---,0.04,VWS V14.01,2013-02-18 00:37:00,
2013-02-17 19:38:00,27.3,6.7,30.20,NW,326,2.7,2.7,41,0.00,,---,0.04,VWS V14.01,2013-02-18 00:38:00,
2013-02-17 19:39:00,27.3,6.7,30.20,WNW,303,4.9,4.9,41,0.00,,---,0.04,VWS V14.01,2013-02-18 00:39:00,
2013-02-17 19:40:00,27.3,6.7,30.20,NNW,331,3.6,3.6,41,0.00,,---,0.04,VWS V14.01,2013-02-18 00:40:00,
2013-02-17 19:41:00,27.1,6.6,30.20,NW,319,2.7,2.7,41,0.00,,---,0.04,VWS V14.01,2013-02-18 00:41:00,
2013-02-17 19:42:00,27.1,6.6,30.20,NW,311,3.6,3.6,41,0.00,,---,0.04,VWS V14.01,2013-02-18 00:42:00,
2013-02-17 19:43:00,27.1,6.6,30.20,NW,311,2.7,2.7,41,0.00,,---,0.04,VWS V14.01,2013-02-18 00:43:00,
2013-02-17 19:44:00,27.1,6.6,30.20,NW,310,3.1,3.1,41,0.00,,---,0.04,VWS V14.01,2013-02-18 00:44:00,
2013-02-17 19:45:00,27.1,6.6,30.20,WNW,296,3.6,3.6,41,0.00,,---,0.04,VWS V14.01,2013-02-18 00:45:00,
2013-02-17 19:46:00,27.1,6.6,30.20,WNW,302,3.6,3.6,41,0.00,,---,0.04,VWS V14.01,2013-02-18 00:46:00,
2013-02-17 19:47:00,27.1,6.6,30.20,NW,304,3.1,3.1,41,0.00,,---,0.04,VWS V14.01,2013-02-18 00:47:00,
2013-02-17 19:48:00,27.1,6.6,30.20,West,277,3.1,3.1,41,0.00,,---,0.04,VWS V14.01,2013-02-18 00:48:00,
2013-02-17 19:49:00,27.0,6.4,30.20,NW,307,3.1,3.1,41,0.00,,---,0.04,VWS V14.01,2013-02-18 00:49:00,
2013-02-17 19:50:00,27.0,6.4,30.20,NW,307,3.1,3.1,41,0.00,,---,0.04,VWS V14.01,2013-02-18 00:50:00,
2013-02-17 19:51:00,27.0,6.4,30.20,WNW,287,3.6,3.6,41,0.00,,---,0.04,VWS V14.01,2013-02-18 00:51:00,
2013-02-17 19:52:00,27.0,6.4,30.20,West,272,5.4,5.4,41,0.00,,---,0.04,VWS V14.01,2013-02-18 00:52:00,
2013-02-17 19:53:00,27.0,6.4,30.20,NW,312,4.0,4.0,41,0.00,,---,0.04,VWS V14.01,2013-02-18 00:53:00,
2013-02-17 19:54:00,27.0,6.4,30.20,WNW,300,5.8,5.8,41,0.00,,---,0.04,VWS V14.01,2013-02-18 00:54:00,
2013-02-17 19:55:00,27.0,6.4,30.20,WNW,289,4.0,4.0,41,0.00,,---,0.04,VWS V14.01,2013-02-18 00:55:00,
2013-02-17 19:56:00,26.8,6.2,30.20,WNW,298,4.0,4.0,41,0.00,,---,0.04,VWS V14.01,2013-02-18 00:56:00,
2013-02-17 19:57:00,26.8,6.2,30.20,WNW,299,6.3,6.3,41,0.00,,---,0.04,VWS V14.01,2013-02-18 00:57:00,
2013-02-17 19:58:00,26.8,6.2,30.20,WNW,297,5.8,5.8,41,0.00,,---,0.04,VWS V14.01,2013-02-18 00:58:00,
2013-02-17 19:59:00,26.6,6.6,30.20,WNW,285,5.8,5.8,42,0.00,,---,0.04,VWS V14.01,2013-02-18 00:59:00,
2013-02-17 20:00:00,26.6,6.6,30.20,WNW,285,4.9,4.9,42,0.00,,---,0.04,VWS V14.01,2013-02-18 01:00:00,
2013-02-17 20:01:00,26.6,6.6,30.20,West,277,3.6,3.6,42,0.00,,---,0.04,VWS V14.01,2013-02-18 01:01:00,
2013-02-17 20:02:00,26.6,6.6,30.20,WNW,298,5.4,5.4,42,0.00,,---,0.04,VWS V14.01,2013-02-18 01:02:00,
2013-02-17 20:03:00,26.4,6.4,30.20,West,273,4.9,4.9,42,0.00,,---,0.04,VWS V14.01,2013-02-18 01:03:00,
2013-02-17 20:04:00,26.4,6.4,30.20,WNW,303,6.3,6.3,42,0.00,,---,0.04,VWS V14.01,2013-02-18 01:04:00,
2013-02-17 20:05:00,26.4,6.4,30.20,NW,308,6.3,6.3,42,0.00,,---,0.04,VWS V14.01,2013-02-18 01:05:00,
2013-02-17 20:06:00,26.2,6.3,30.20,NW,304,5.4,5.4,42,0.00,,---,0.04,VWS V14.01,2013-02-18 01:06:00,
2013-02-17 20:07:00,26.2,6.3,30.20,NW,309,4.0,4.0,42,0.00,,---,0.04,VWS V14.01,2013-02-18 01:07:00,
2013-02-17 20:08:00,26.2,6.3,30.20,WNW,298,4.0,4.0,42,0.00,,---,0.04,VWS V14.01,2013-02-18 01:08:00,
2013-02-17 20:09:00,26.2,6.3,30.20,West,277,5.4,5.4,42,0.00,,---,0.04,VWS V14.01,2013-02-18 01:09:00,
2013-02-17 20:10:00,26.2,6.3,30.20,WNW,294,5.8,5.8,42,0.00,,---,0.04,VWS V14.01,2013-02-18 01:10:00,
2013-02-17 20:11:00,26.2,6.3,30.20,West,278,4.0,4.0,42,0.00,,---,0.04,VWS V14.01,2013-02-18 01:11:00,
2013-02-17 20:12:00,26.2,6.3,30.20,WNW,303,4.9,4.9,42,0.00,,---,0.04,VWS V14.01,2013-02-18 01:12:00,
2013-02-17 20:13:00,26.2,6.3,30.23,WNW,284,4.9,4.9,42,0.00,,---,0.04,VWS V14.01,2013-02-18 01:13:00,
2013-02-17 20:14:00,26.2,6.3,30.23,WNW,284,5.4,5.4,42,0.00,,---,0.04,VWS V14.01,2013-02-18 01:14:00,
2013-02-17 20:15:00,26.2,6.3,30.23,WNW,282,5.4,5.4,42,0.00,,---,0.04,VWS V14.01,2013-02-18 01:15:00,
2013-02-17 20:16:00,26.2,6.3,30.23,WNW,287,3.1,3.1,42,0.00,,---,0.04,VWS V14.01,2013-02-18 01:16:00,
2013-02-17 20:17:00,26.2,6.3,30.23,WNW,292,5.4,5.4,42,0.00,,---,0.04,VWS V14.01,2013-02-18 01:17:00,
2013-02-17 20:18:00,26.2,6.3,30.23,WNW,293,5.4,5.4,42,0.00,,---,0.04,VWS V14.01,2013-02-18 01:18:00,
2013-02-17 20:19:00,26.2,6.3,30.23,NW,310,4.9,4.9,42,0.00,,---,0.04,VWS V14.01,2013-02-18 01:19:00,
2013-02-17 20:20:00,26.4,6.4,30.23,WNW,285,3.6,3.6,42,0.00,,---,0.04,VWS V14.01,2013-02-18 01:20:00,
2013-02-17 20:21:00,26.4,6.4,30.23,West,280,5.8,5.8,42,0.00,,---,0.04,VWS V14.01,2013-02-18 01:21:00,
2013-02-17 20:22:00,26.4,6.4,30.23,WNW,301,3.6,3.6,42,0.00,,---,0.04,VWS V14.01,2013-02-18 01:22:00,
2013-02-17 20:23:00,26.4,6.4,30.23,WNW,297,3.1,3.1,42,0.00,,---,0.04,VWS V14.01,2013-02-18 01:23:00,
2013-02-17 20:24:00,26.4,6.4,30.23,WNW,298,0.0,0.0,42,0.00,,---,0.04,VWS V14.01,2013-02-18 01:24:00,
2013-02-17 20:25:00,26.4,6.4,30.23,NW,307,2.7,2.7,42,0.00,,---,0.04,VWS V14.01,2013-02-18 01:25:00,
2013-02-17 20:26:00,26.4,6.4,30.23,NW,312,3.1,3.1,42,0.00,,---,0.04,VWS V14.01,2013-02-18 01:26:00,
2013-02-17 20:27:00,26.2,6.3,30.23,WNW,292,3.1,3.1,42,0.00,,---,0.04,VWS V14.01,2013-02-18 01:27:00,
2013-02-17 20:28:00,26.2,6.3,30.23,WNW,297,4.0,4.0,42,0.00,,---,0.04,VWS V14.01,2013-02-18 01:28:00,
2013-02-17 20:29:00,26.2,6.3,30.23,WNW,298,3.6,3.6,42,0.00,,---,0.04,VWS V14.01,2013-02-18 01:29:00,
2013-02-17 20:30:00,26.2,6.3,30.23,WNW,294,4.0,4.0,42,0.00,,---,0.04,VWS V14.01,2013-02-18 01:30:00,
2013-02-17 20:31:00,26.2,6.3,30.23,WNW,303,2.7,2.7,42,0.00,,---,0.04,VWS V14.01,2013-02-18 01:31:00,
2013-02-17 20:32:00,26.1,6.1,30.23,NW,306,4.0,4.0,42,0.00,,---,0.04,VWS V14.01,2013-02-18 01:32:00,
2013-02-17 20:33:00,26.1,6.1,30.23,WNW,297,2.7,2.7,42,0.00,,---,0.04,VWS V14.01,2013-02-18 01:33:00,
2013-02-17 20:34:00,26.1,6.1,30.23,NW,314,2.2,2.2,42,0.00,,---,0.04,VWS V14.01,2013-02-18 01:34:00,
2013-02-17 20:35:00,26.1,6.1,30.23,NW,308,3.6,3.6,42,0.00,,---,0.04,VWS V14.01,2013-02-18 01:35:00,
2013-02-17 20:36:00,26.1,6.1,30.23,WNW,290,3.6,3.6,42,0.00,,---,0.04,VWS V14.01,2013-02-18 01:36:00,
2013-02-17 20:37:00,26.1,6.1,30.23,WNW,288,3.1,3.1,42,0.00,,---,0.04,VWS V14.01,2013-02-18 01:37:00,
2013-02-17 20:38:00,26.1,6.1,30.23,NW,304,3.6,3.6,42,0.00,,---,0.04,VWS V14.01,2013-02-18 01:38:00,
2013-02-17 20:39:00,26.1,6.1,30.23,NW,308,4.0,4.0,42,0.00,,---,0.04,VWS V14.01,2013-02-18 01:39:00,
2013-02-17 20:40:00,26.1,6.1,30.23,NW,310,3.6,3.6,42,0.00,,---,0.04,VWS V14.01,2013-02-18 01:40:00,
2013-02-17 20:41:00,26.1,6.1,30.23,WNW,289,4.9,4.9,42,0.00,,---,0.04,VWS V14.01,2013-02-18 01:41:00,
2013-02-17 20:42:00,26.1,6.1,30.23,NW,314,3.1,3.1,42,0.00,,---,0.04,VWS V14.01,2013-02-18 01:42:00,
2013-02-17 20:43:00,26.1,6.1,30.23,NW,307,6.3,6.3,42,0.00,,---,0.04,VWS V14.01,2013-02-18 01:43:00,
2013-02-17 20:44:00,26.1,6.1,30.23,WNW,291,4.0,4.0,42,0.00,,---,0.04,VWS V14.01,2013-02-18 01:44:00,
2013-02-17 20:45:00,26.1,6.1,30.23,WNW,295,5.8,5.8,42,0.00,,---,0.04,VWS V14.01,2013-02-18 01:45:00,
2013-02-17 20:46:00,26.1,6.1,30.23,WNW,300,3.6,3.6,42,0.00,,---,0.04,VWS V14.01,2013-02-18 01:46:00,
2013-02-17 20:47:00,26.1,6.1,30.23,WNW,297,3.6,3.6,42,0.00,,---,0.04,VWS V14.01,2013-02-18 01:47:00,
2013-02-17 20:48:00,26.1,6.1,30.23,NNW,336,5.8,5.8,42,0.00,,---,0.04,VWS V14.01,2013-02-18 01:48:00,
2013-02-17 20:49:00,26.1,6.1,30.23,WNW,299,3.6,3.6,42,0.00,,---,0.04,VWS V14.01,2013-02-18 01:49:00,
2013-02-17 20:50:00,26.1,6.1,30.23,WNW,293,2.7,2.7,42,0.00,,---,0.04,VWS V14.01,2013-02-18 01:50:00,
2013-02-17 20:51:00,25.9,6.0,30.23,WNW,298,5.4,5.4,42,0.00,,---,0.04,VWS V14.01,2013-02-18 01:51:00,
2013-02-17 20:52:00,25.9,6.0,30.23,WNW,299,5.8,5.8,42,0.00,,---,0.04,VWS V14.01,2013-02-18 01:52:00,
2013-02-17 20:53:00,25.9,6.0,30.23,WNW,300,5.4,5.4,42,0.00,,---,0.04,VWS V14.01,2013-02-18 01:53:00,
2013-02-17 20:54:00,25.9,6.0,30.23,WNW,291,5.4,5.4,42,0.00,,---,0.04,VWS V14.01,2013-02-18 01:54:00,
2013-02-17 20:55:00,25.9,6.0,30.23,WNW,282,3.1,3.1,42,0.00,,---,0.04,VWS V14.01,2013-02-18 01:55:00,
2013-02-17 20:56:00,25.9,6.0,30.23,WNW,291,3.1,3.1,42,0.00,,---,0.04,VWS V14.01,2013-02-18 01:56:00,
2013-02-17 20:57:00,25.9,6.0,30.23,WNW,293,7.2,7.2,42,0.00,,---,0.04,VWS V14.01,2013-02-18 01:57:00,
2013-02-17 20:58:00,25.9,6.0,30.23,NW,321,4.9,4.9,42,0.00,,---,0.04,VWS V14.01,2013-02-18 01:58:00,
2013-02-17 20:59:00,25.9,6.0,30.23,WNW,296,5.8,5.8,42,0.00,,---,0.04,VWS V14.01,2013-02-18 01:59:00,
2013-02-17 21:00:00,25.9,6.0,30.23,NW,304,4.0,4.0,42,0.00,,---,0.04,VWS V14.01,2013-02-18 02:00:00,
2013-02-17 21:01:00,25.9,6.0,30.23,NW,304,4.0,4.0,42,0.00,,---,0.04,VWS V14.01,2013-02-18 02:01:00,
2013-02-17 21:02:00,25.9,6.0,30.23,NW,312,4.0,4.0,42,0.00,,---,0.04,VWS V14.01,2013-02-18 02:02:00,
2013-02-17 21:03:00,25.7,5.8,30.23,WNW,292,5.4,5.4,42,0.00,,---,0.04,VWS V14.01,2013-02-18 02:03:00,
2013-02-17 21:04:00,25.7,5.8,30.23,WNW,289,5.4,5.4,42,0.00,,---,0.04,VWS V14.01,2013-02-18 02:04:00,
2013-02-17 21:05:00,25.7,5.8,30.23,WNW,302,6.3,6.3,42,0.00,,---,0.04,VWS V14.01,2013-02-18 02:05:00,
2013-02-17 21:06:00,25.7,5.8,30.23,NW,304,4.9,4.9,42,0.00,,---,0.04,VWS V14.01,2013-02-18 02:06:00,
2013-02-17 21:07:00,25.9,6.0,30.23,West,270,5.4,5.4,42,0.00,,---,0.04,VWS V14.01,2013-02-18 02:07:00,
2013-02-17 21:08:00,25.9,6.0,30.23,NW,311,4.9,4.9,42,0.00,,---,0.04,VWS V14.01,2013-02-18 02:08:00,
2013-02-17 21:09:00,25.9,6.0,30.23,WNW,288,3.6,3.6,42,0.00,,---,0.04,VWS V14.01,2013-02-18 02:09:00,
2013-02-17 21:10:00,25.9,6.0,30.23,NNW,339,4.0,4.0,42,0.00,,---,0.04,VWS V14.01,2013-02-18 02:10:00,
2013-02-17 21:11:00,25.9,6.0,30.23,WNW,301,4.9,4.9,42,0.00,,---,0.04,VWS V14.01,2013-02-18 02:11:00,
2013-02-17 21:12:00,25.9,6.0,30.26,West,269,5.4,5.4,42,0.00,,---,0.04,VWS V14.01,2013-02-18 02:12:00,
2013-02-17 21:13:00,25.9,6.0,30.26,West,279,5.4,5.4,42,0.00,,---,0.04,VWS V14.01,2013-02-18 02:13:00,
2013-02-17 21:14:00,25.9,6.0,30.26,WNW,294,5.8,5.8,42,0.00,,---,0.04,VWS V14.01,2013-02-18 02:14:00,
2013-02-17 21:15:00,25.9,6.0,30.26,WNW,293,3.1,3.1,42,0.00,,---,0.04,VWS V14.01,2013-02-18 02:15:00,
2013-02-17 21:16:00,25.9,6.0,30.26,WNW,293,6.3,6.3,42,0.00,,---,0.04,VWS V14.01,2013-02-18 02:16:00,
2013-02-17 21:17:00,25.9,6.0,30.26,NW,312,3.6,3.6,42,0.00,,---,0.04,VWS V14.01,2013-02-18 02:17:00,
2013-02-17 21:18:00,25.9,6.0,30.26,NW,316,6.7,6.7,42,0.00,,---,0.04,VWS V14.01,2013-02-18 02:18:00,
2013-02-17 21:19:00,25.9,6.0,30.26,WNW,286,6.3,6.3,42,0.00,,---,0.04,VWS V14.01,2013-02-18 02:19:00,
2013-02-17 21:20:00,25.7,5.8,30.26,WNW,293,4.0,4.0,42,0.00,,---,0.04,VWS V14.01,2013-02-18 02:20:00,
2013-02-17 21:21:00,25.7,5.8,30.26,West,281,5.4,5.4,42,0.00,,---,0.04,VWS V14.01,2013-02-18 02:21:00,
2013-02-17 21:22:00,25.9,6.0,30.26,NW,310,5.4,5.4,42,0.00,,---,0.04,VWS V14.01,2013-02-18 02:22:00,
2013-02-17 21:23:00,25.7,5.8,30.26,NW,314,4.0,4.0,42,0.00,,---,0.04,VWS V14.01,2013-02-18 02:23:00,
2013-02-17 21:24:00,25.7,5.8,30.26,WNW,289,6.3,6.3,42,0.00,,---,0.04,VWS V14.01,2013-02-18 02:24:00,
2013-02-17 21:25:00,25.7,5.8,30.26,NW,318,5.8,5.8,42,0.00,,---,0.04,VWS V14.01,2013-02-18 02:25:00,
2013-02-17 21:26:00,25.7,5.8,30.26,West,275,4.0,4.0,42,0.00,,---,0.04,VWS V14.01,2013-02-18 02:26:00,
2013-02-17 21:27:00,25.7,5.8,30.26,WNW,286,3.1,3.1,42,0.00,,---,0.04,VWS V14.01,2013-02-18 02:27:00,
2013-02-17 21:28:00,25.7,5.8,30.26,West,265,3.6,3.6,42,0.00,,---,0.04,VWS V14.01,2013-02-18 02:28:00,
2013-02-17 21:29:00,25.7,5.8,30.26,WNW,296,3.6,3.6,42,0.00,,---,0.04,VWS V14.01,2013-02-18 02:29:00,
2013-02-17 21:30:00,25.7,5.8,30.26,WNW,288,3.6,3.6,42,0.00,,---,0.04,VWS V14.01,2013-02-18 02:30:00,
2013-02-17 21:31:00,25.7,5.8,30.26,WNW,294,3.6,3.6,42,0.00,,---,0.04,VWS V14.01,2013-02-18 02:31:00,
2013-02-17 21:32:00,25.7,5.8,30.26,West,280,4.0,4.0,42,0.00,,---,0.04,VWS V14.01,2013-02-18 02:32:00,
2013-02-17 21:33:00,25.7,5.8,30.26,WNW,295,5.8,5.8,42,0.00,,---,0.04,VWS V14.01,2013-02-18 02:33:00,
2013-02-17 21:34:00,25.7,5.8,30.26,WNW,287,5.4,5.4,42,0.00,,---,0.04,VWS V14.01,2013-02-18 02:34:00,
2013-02-17 21:35:00,25.5,5.6,30.26,WNW,283,6.3,6.3,42,0.00,,---,0.04,VWS V14.01,2013-02-18 02:35:00,
2013-02-17 21:36:00,25.5,5.6,30.26,WNW,293,4.9,4.9,42,0.00,,---,0.04,VWS V14.01,2013-02-18 02:36:00,
2013-02-17 21:37:00,25.5,5.6,30.26,West,278,5.4,5.4,42,0.00,,---,0.04,VWS V14.01,2013-02-18 02:37:00,
2013-02-17 21:38:00,25.5,5.6,30.26,NW,313,5.4,5.4,42,0.00,,---,0.04,VWS V14.01,2013-02-18 02:38:00,
2013-02-17 21:39:00,25.5,5.6,30.26,WNW,290,5.8,5.8,42,0.00,,---,0.04,VWS V14.01,2013-02-18 02:39:00,
2013-02-17 21:40:00,25.5,5.6,30.26,NW,310,5.8,5.8,42,0.00,,---,0.04,VWS V14.01,2013-02-18 02:40:00,
2013-02-17 21:41:00,25.5,5.6,30.26,WNW,285,3.6,3.6,42,0.00,,---,0.04,VWS V14.01,2013-02-18 02:41:00,
2013-02-17 21:42:00,25.5,5.6,30.26,NNW,329,3.6,3.6,42,0.00,,---,0.04,VWS V14.01,2013-02-18 02:42:00,
2013-02-17 21:43:00,25.5,5.6,30.26,WNW,286,5.8,5.8,42,0.00,,---,0.04,VWS V14.01,2013-02-18 02:43:00,
2013-02-17 21:44:00,25.5,5.6,30.26,WNW,300,4.0,4.0,42,0.00,,---,0.04,VWS V14.01,2013-02-18 02:44:00,
2013-02-17 21:45:00,25.5,5.6,30.26,NW,312,3.6,3.6,42,0.00,,---,0.04,VWS V14.01,2013-02-18 02:45:00,
2013-02-17 21:46:00,25.5,5.6,30.26,WNW,291,4.0,4.0,42,0.00,,---,0.04,VWS V14.01,2013-02-18 02:46:00,
2013-02-17 21:47:00,25.5,5.6,30.26,NW,316,5.4,5.4,42,0.00,,---,0.04,VWS V14.01,2013-02-18 02:47:00,
2013-02-17 21:48:00,25.3,5.5,30.26,NW,305,4.9,4.9,42,0.00,,---,0.04,VWS V14.01,2013-02-18 02:48:00,
2013-02-17 21:49:00,25.3,5.5,30.26,NNW,335,4.5,4.5,42,0.00,,---,0.04,VWS V14.01,2013-02-18 02:49:00,
2013-02-17 21:50:00,25.3,5.5,30.26,NW,321,3.1,3.1,42,0.00,,---,0.04,VWS V14.01,2013-02-18 02:50:00,
2013-02-17 21:51:00,25.3,5.5,30.26,WNW,286,2.7,2.7,42,0.00,,---,0.04,VWS V14.01,2013-02-18 02:51:00,
2013-02-17 21:52:00,25.3,5.5,30.26,NW,313,3.1,3.1,42,0.00,,---,0.04,VWS V14.01,2013-02-18 02:52:00,
2013-02-17 21:53:00,25.3,5.5,30.26,NW,314,3.6,3.6,42,0.00,,---,0.04,VWS V14.01,2013-02-18 02:53:00,
2013-02-17 21:54:00,25.3,5.5,30.26,NNW,327,4.0,4.0,42,0.00,,---,0.04,VWS V14.01,2013-02-18 02:54:00,
2013-02-17 21:55:00,25.3,5.5,30.26,NW,310,5.8,5.8,42,0.00,,---,0.04,VWS V14.01,2013-02-18 02:55:00,
2013-02-17 21:56:00,25.3,5.5,30.26,NW,325,5.4,5.4,42,0.00,,---,0.04,VWS V14.01,2013-02-18 02:56:00,
2013-02-17 21:57:00,25.3,5.5,30.23,NW,325,3.1,3.1,42,0.00,,---,0.04,VWS V14.01,2013-02-18 02:57:00,
2013-02-17 21:58:00,25.3,5.5,30.23,NW,312,2.2,2.2,42,0.00,,---,0.04,VWS V14.01,2013-02-18 02:58:00,
2013-02-17 21:59:00,25.3,5.5,30.23,NW,314,2.7,2.7,42,0.00,,---,0.04,VWS V14.01,2013-02-18 02:59:00,
2013-02-17 22:00:00,25.3,5.5,30.23,NW,317,5.4,5.4,42,0.00,,---,0.04,VWS V14.01,2013-02-18 03:00:00,
2013-02-17 22:01:00,25.3,5.5,30.23,NNW,329,3.1,3.1,42,0.00,,---,0.04,VWS V14.01,2013-02-18 03:01:00,
2013-02-17 22:02:00,25.3,5.5,30.23,WNW,299,0.0,0.0,42,0.00,,---,0.04,VWS V14.01,2013-02-18 03:02:00,
2013-02-17 22:03:00,25.3,5.5,30.23,NNW,329,4.0,4.0,42,0.00,,---,0.04,VWS V14.01,2013-02-18 03:03:00,
2013-02-17 22:04:00,25.3,5.5,30.23,West,277,3.6,3.6,42,0.00,,---,0.04,VWS V14.01,2013-02-18 03:04:00,
2013-02-17 22:05:00,25.3,5.5,30.23,WNW,295,3.6,3.6,42,0.00,,---,0.04,VWS V14.01,2013-02-18 03:05:00,
2013-02-17 22:06:00,25.3,5.5,30.23,NNW,338,3.6,3.6,42,0.00,,---,0.04,VWS V14.01,2013-02-18 03:06:00,
2013-02-17 22:07:00,25.2,5.3,30.23,West,279,2.2,2.2,42,0.00,,---,0.04,VWS V14.01,2013-02-18 03:07:00,
2013-02-17 22:08:00,25.2,5.3,30.23,NW,310,3.6,3.6,42,0.00,,---,0.04,VWS V14.01,2013-02-18 03:08:00,
2013-02-17 22:09:00,25.2,5.3,30.23,WNW,301,3.1,3.1,42,0.00,,---,0.04,VWS V14.01,2013-02-18 03:09:00,
2013-02-17 22:10:00,25.2,5.3,30.23,NW,316,2.7,2.7,42,0.00,,---,0.04,VWS V14.01,2013-02-18 03:10:00,
2013-02-17 22:11:00,25.2,5.3,30.23,West,276,4.0,4.0,42,0.00,,---,0.04,VWS V14.01,2013-02-18 03:11:00,
2013-02-17 22:12:00,25.0,5.1,30.26,NW,313,5.4,5.4,42,0.00,,---,0.04,VWS V14.01,2013-02-18 03:12:00,
2013-02-17 22:13:00,25.0,5.1,30.26,WNW,292,3.6,3.6,42,0.00,,---,0.04,VWS V14.01,2013-02-18 03:13:00,
2013-02-17 22:14:00,25.0,5.1,30.26,WNW,297,4.9,4.9,42,0.00,,---,0.04,VWS V14.01,2013-02-18 03:14:00,
2013-02-17 22:15:00,25.0,5.1,30.26,NW,318,5.4,5.4,42,0.00,,---,0.04,VWS V14.01,2013-02-18 03:15:00,
2013-02-17 22:16:00,25.0,5.1,30.26,WNW,289,4.0,4.0,42,0.00,,---,0.04,VWS V14.01,2013-02-18 03:16:00,
2013-02-17 22:17:00,25.0,5.1,30.26,WNW,296,4.9,4.9,42,0.00,,---,0.04,VWS V14.01,2013-02-18 03:17:00,
2013-02-17 22:18:00,24.8,5.0,30.26,West,278,3.1,3.1,42,0.00,,---,0.04,VWS V14.01,2013-02-18 03:18:00,
2013-02-17 22:19:00,24.8,5.0,30.26,West,281,3.6,3.6,42,0.00,,---,0.04,VWS V14.01,2013-02-18 03:19:00,
2013-02-17 22:20:00,24.8,5.0,30.26,WSW,253,2.7,2.7,42,0.00,,---,0.04,VWS V14.01,2013-02-18 03:20:00,
2013-02-17 22:21:00,24.8,5.0,30.26,West,280,3.1,3.1,42,0.00,,---,0.04,VWS V14.01,2013-02-18 03:21:00,
2013-02-17 22:22:00,24.8,5.0,30.26,West,264,3.6,3.6,42,0.00,,---,0.04,VWS V14.01,2013-02-18 03:22:00,
2013-02-17 22:23:00,24.8,5.0,30.26,WNW,296,4.9,4.9,42,0.00,,---,0.04,VWS V14.01,2013-02-18 03:23:00,
2013-02-17 22:24:00,24.8,5.0,30.26,WSW,257,5.8,5.8,42,0.00,,---,0.04,VWS V14.01,2013-02-18 03:24:00,
2013-02-17 22:25:00,24.8,5.0,30.26,West,279,5.4,5.4,42,0.00,,---,0.04,VWS V14.01,2013-02-18 03:25:00,
2013-02-17 22:26:00,24.8,5.0,30.26,West,260,3.6,3.6,42,0.00,,---,0.04,VWS V14.01,2013-02-18 03:26:00,
2013-02-17 22:27:00,24.8,5.0,30.26,WNW,294,3.6,3.6,42,0.00,,---,0.04,VWS V14.01,2013-02-18 03:27:00,
2013-02-17 22:28:00,24.8,5.0,30.26,WNW,291,5.4,5.4,42,0.00,,---,0.04,VWS V14.01,2013-02-18 03:28:00,
2013-02-17 22:29:00,24.8,5.0,30.26,West,271,4.9,4.9,42,0.00,,---,0.04,VWS V14.01,2013-02-18 03:29:00,
2013-02-17 22:30:00,24.8,5.0,30.26,WNW,295,8.3,8.3,42,0.00,,---,0.04,VWS V14.01,2013-02-18 03:30:00,
2013-02-17 22:31:00,24.6,4.8,30.26,WSW,257,8.3,8.3,42,0.00,,---,0.04,VWS V14.01,2013-02-18 03:31:00,
2013-02-17 22:32:00,24.6,4.8,30.26,WNW,290,7.6,7.6,42,0.00,,---,0.04,VWS V14.01,2013-02-18 03:32:00,
2013-02-17 22:33:00,24.8,5.0,30.26,West,272,4.9,4.9,42,0.00,,---,0.04,VWS V14.01,2013-02-18 03:33:00,
2013-02-17 22:34:00,24.8,5.0,30.26,West,264,3.6,3.6,42,0.00,,---,0.04,VWS V14.01,2013-02-18 03:34:00,
2013-02-17 22:35:00,24.8,5.0,30.26,West,274,3.1,3.1,42,0.00,,---,0.04,VWS V14.01,2013-02-18 03:35:00,
2013-02-17 22:36:00,24.8,5.0,30.26,WNW,283,5.8,5.8,42,0.00,,---,0.04,VWS V14.01,2013-02-18 03:36:00,
2013-02-17 22:37:00,24.8,5.0,30.26,WNW,290,0.0,0.0,42,0.00,,---,0.04,VWS V14.01,2013-02-18 03:37:00,
2013-02-17 22:38:00,24.8,5.0,30.26,WNW,291,6.3,6.3,42,0.00,,---,0.04,VWS V14.01,2013-02-18 03:38:00,
2013-02-17 22:39:00,24.6,4.8,30.26,West,279,4.9,4.9,42,0.00,,---,0.04,VWS V14.01,2013-02-18 03:39:00,
2013-02-17 22:40:00,24.6,4.8,30.26,WNW,290,4.5,4.5,42,0.00,,---,0.04,VWS V14.01,2013-02-18 03:40:00,
2013-02-17 22:41:00,24.6,4.8,30.26,West,277,3.1,3.1,42,0.00,,---,0.04,VWS V14.01,2013-02-18 03:41:00,
2013-02-17 22:42:00,24.6,4.8,30.26,West,273,2.7,2.7,42,0.00,,---,0.04,VWS V14.01,2013-02-18 03:42:00,
2013-02-17 22:43:00,24.6,4.8,30.26,WNW,283,3.6,3.6,42,0.00,,---,0.04,VWS V14.01,2013-02-18 03:43:00,
2013-02-17 22:44:00,24.6,4.8,30.26,WNW,292,4.9,4.9,42,0.00,,---,0.04,VWS V14.01,2013-02-18 03:44:00,
2013-02-17 22:45:00,24.6,4.8,30.26,WNW,302,2.7,2.7,42,0.00,,---,0.04,VWS V14.01,2013-02-18 03:45:00,
2013-02-17 22:46:00,24.6,4.8,30.26,NW,306,2.7,2.7,42,0.00,,---,0.04,VWS V14.01,2013-02-18 03:46:00,
2013-02-17 22:47:00,24.6,4.8,30.26,West,280,2.7,2.7,42,0.00,,---,0.04,VWS V14.01,2013-02-18 03:47:00,
2013-02-17 22:48:00,24.6,4.8,30.26,WNW,300,4.0,4.0,42,0.00,,---,0.04,VWS V14.01,2013-02-18 03:48:00,
2013-02-17 22:49:00,24.6,4.8,30.26,NW,310,3.6,3.6,42,0.00,,---,0.04,VWS V14.01,2013-02-18 03:49:00,
2013-02-17 22:50:00,24.6,4.8,30.26,NW,326,2.7,2.7,42,0.00,,---,0.04,VWS V14.01,2013-02-18 03:50:00,
2013-02-17 22:51:00,24.6,4.8,30.26,West,271,2.7,2.7,42,0.00,,---,0.04,VWS V14.01,2013-02-18 03:51:00,
2013-02-17 22:52:00,24.4,4.7,30.26,WNW,290,3.1,3.1,42,0.00,,---,0.04,VWS V14.01,2013-02-18 03:52:00,
2013-02-17 22:53:00,24.4,4.7,30.26,West,272,3.6,3.6,42,0.00,,---,0.04,VWS V14.01,2013-02-18 03:53:00,
2013-02-17 22:54:00,24.4,4.7,30.26,WNW,286,3.6,3.6,42,0.00,,---,0.04,VWS V14.01,2013-02-18 03:54:00,
2013-02-17 22:55:00,24.4,4.7,30.26,NW,324,4.0,4.0,42,0.00,,---,0.04,VWS V14.01,2013-02-18 03:55:00,
2013-02-17 22:56:00,24.4,4.7,30.26,WSW,254,3.6,3.6,42,0.00,,---,0.04,VWS V14.01,2013-02-18 03:56:00,
2013-02-17 22:57:00,24.4,4.7,30.26,WNW,300,4.0,4.0,42,0.00,,---,0.04,VWS V14.01,2013-02-18 03:57:00,
2013-02-17 22:58:00,24.4,4.7,30.26,NW,307,3.1,3.1,42,0.00,,---,0.04,VWS V14.01,2013-02-18 03:58:00,
2013-02-17 22:59:00,24.3,4.5,30.26,WNW,292,3.6,3.6,42,0.00,,---,0.04,VWS V14.01,2013-02-18 03:59:00,
2013-02-17 23:00:00,24.3,4.5,30.26,NW,320,0.0,0.0,42,0.00,,---,0.04,VWS V14.01,2013-02-18 04:00:00,
2013-02-17 23:01:00,24.3,4.5,30.26,WNW,287,2.7,2.7,42,0.00,,---,0.04,VWS V14.01,2013-02-18 04:01:00,
2013-02-17 23:02:00,24.3,4.5,30.26,WNW,290,4.0,4.0,42,0.00,,---,0.04,VWS V14.01,2013-02-18 04:02:00,
2013-02-17 23:03:00,24.3,4.5,30.26,NW,324,2.7,2.7,42,0.00,,---,0.04,VWS V14.01,2013-02-18 04:03:00,
2013-02-17 23:04:00,24.3,4.5,30.26,WNW,291,2.7,2.7,42,0.00,,---,0.04,VWS V14.01,2013-02-18 04:04:00,
2013-02-17 23:05:00,24.1,4.3,30.26,NNW,344,5.4,5.4,42,0.00,,---,0.04,VWS V14.01,2013-02-18 04:05:00,
2013-02-17 23:06:00,24.1,4.3,30.26,NW,314,4.5,4.5,42,0.00,,---,0.04,VWS V14.01,2013-02-18 04:06:00,
2013-02-17 23:07:00,24.1,4.3,30.26,WNW,299,4.0,4.0,42,0.00,,---,0.04,VWS V14.01,2013-02-18 04:07:00,
2013-02-17 23:08:00,24.1,4.3,30.26,NW,324,2.2,2.2,42,0.00,,---,0.04,VWS V14.01,2013-02-18 04:08:00,
2013-02-17 23:09:00,24.1,4.3,30.26,WNW,293,3.6,3.6,42,0.00,,---,0.04,VWS V14.01,2013-02-18 04:09:00,
2013-02-17 23:10:00,24.1,4.3,30.26,NW,308,3.6,3.6,42,0.00,,---,0.04,VWS V14.01,2013-02-18 04:10:00,
2013-02-17 23:11:00,24.1,4.3,30.26,West,280,2.7,2.7,42,0.00,,---,0.04,VWS V14.01,2013-02-18 04:11:00,
2013-02-17 23:12:00,24.1,4.3,30.26,WNW,296,2.7,2.7,42,0.00,,---,0.04,VWS V14.01,2013-02-18 04:12:00,
2013-02-17 23:13:00,24.1,4.3,30.26,West,278,4.9,4.9,42,0.00,,---,0.04,VWS V14.01,2013-02-18 04:13:00,
2013-02-17 23:14:00,24.1,4.3,30.26,NW,304,3.6,3.6,42,0.00,,---,0.04,VWS V14.01,2013-02-18 04:14:00,
2013-02-17 23:15:00,24.1,4.3,30.26,WNW,296,4.9,4.9,42,0.00,,---,0.04,VWS V14.01,2013-02-18 04:15:00,
2013-02-17 23:16:00,24.1,4.3,30.26,WNW,301,3.1,3.1,42,0.00,,---,0.04,VWS V14.01,2013-02-18 04:16:00,
2013-02-17 23:17:00,24.1,4.3,30.26,West,280,3.1,3.1,42,0.00,,---,0.04,VWS V14.01,2013-02-18 04:17:00,
2013-02-17 23:18:00,24.1,4.3,30.26,West,277,5.4,5.4,42,0.00,,---,0.04,VWS V14.01,2013-02-18 04:18:00,
2013-02-17 23:19:00,24.1,4.3,30.26,WNW,286,3.6,3.6,42,0.00,,---,0.04,VWS V14.01,2013-02-18 04:19:00,
2013-02-17 23:20:00,24.1,4.3,30.26,WNW,297,4.0,4.0,42,0.00,,---,0.04,VWS V14.01,2013-02-18 04:20:00,
2013-02-17 23:21:00,24.1,4.3,30.26,WNW,294,4.0,4.0,42,0.00,,---,0.04,VWS V14.01,2013-02-18 04:21:00,
2013-02-17 23:22:00,24.1,4.3,30.26,West,278,3.6,3.6,42,0.00,,---,0.04,VWS V14.01,2013-02-18 04:22:00,
2013-02-17 23:23:00,24.1,4.3,30.26,WNW,296,5.4,5.4,42,0.00,,---,0.04,VWS V14.01,2013-02-18 04:23:00,
2013-02-17 23:24:00,24.1,4.3,30.26,West,261,5.8,5.8,42,0.00,,---,0.04,VWS V14.01,2013-02-18 04:24:00,
2013-02-17 23:25:00,24.1,4.3,30.26,West,281,4.9,4.9,42,0.00,,---,0.04,VWS V14.01,2013-02-18 04:25:00,
2013-02-17 23:26:00,24.1,4.3,30.26,West,278,2.7,2.7,42,0.00,,---,0.04,VWS V14.01,2013-02-18 04:26:00,
2013-02-17 23:27:00,24.1,4.3,30.26,WNW,283,8.1,8.1,42,0.00,,---,0.04,VWS V14.01,2013-02-18 04:27:00,
2013-02-17 23:28:00,24.1,4.3,30.26,WNW,292,4.9,4.9,42,0.00,,---,0.04,VWS V14.01,2013-02-18 04:28:00,
2013-02-17 23:29:00,24.1,4.3,30.26,WNW,295,4.9,4.9,42,0.00,,---,0.04,VWS V14.01,2013-02-18 04:29:00,
2013-02-17 23:30:00,24.1,4.3,30.26,NW,313,4.9,4.9,42,0.00,,---,0.04,VWS V14.01,2013-02-18 04:30:00,
2013-02-17 23:31:00,24.1,4.3,30.26,WNW,287,5.4,5.4,42,0.00,,---,0.04,VWS V14.01,2013-02-18 04:31:00,
2013-02-17 23:32:00,24.1,4.3,30.26,NW,311,5.4,5.4,42,0.00,,---,0.04,VWS V14.01,2013-02-18 04:32:00,
2013-02-17 23:33:00,24.1,4.3,30.26,West,270,5.8,5.8,42,0.00,,---,0.04,VWS V14.01,2013-02-18 04:33:00,
2013-02-17 23:34:00,24.1,4.3,30.26,WNW,282,4.0,4.0,42,0.00,,---,0.04,VWS V14.01,2013-02-18 04:34:00,
2013-02-17 23:35:00,24.1,4.3,30.26,WNW,301,6.3,6.3,42,0.00,,---,0.04,VWS V14.01,2013-02-18 04:35:00,
2013-02-17 23:36:00,24.1,4.3,30.26,WNW,300,5.8,5.8,42,0.00,,---,0.04,VWS V14.01,2013-02-18 04:36:00,
2013-02-17 23:37:00,24.1,4.3,30.26,NW,304,4.9,4.9,42,0.00,,---,0.04,VWS V14.01,2013-02-18 04:37:00,
2013-02-17 23:38:00,24.1,4.3,30.26,WNW,295,4.0,4.0,42,0.00,,---,0.04,VWS V14.01,2013-02-18 04:38:00,
2013-02-17 23:39:00,24.1,4.3,30.26,NW,313,4.0,4.0,42,0.00,,---,0.04,VWS V14.01,2013-02-18 04:39:00,
2013-02-17 23:40:00,24.1,4.3,30.26,WNW,299,5.4,5.4,42,0.00,,---,0.04,VWS V14.01,2013-02-18 04:40:00,
2013-02-17 23:41:00,24.1,4.3,30.26,NW,313,4.0,4.0,42,0.00,,---,0.04,VWS V14.01,2013-02-18 04:41:00,
2013-02-17 23:42:00,24.1,4.3,30.29,NW,314,4.0,4.0,42,0.00,,---,0.04,VWS V14.01,2013-02-18 04:42:00,
2013-02-17 23:43:00,24.1,4.3,30.29,WNW,288,4.0,4.0,42,0.00,,---,0.04,VWS V14.01,2013-02-18 04:43:00,
2013-02-17 23:44:00,24.1,4.3,30.29,NW,309,2.7,2.7,42,0.00,,---,0.04,VWS V14.01,2013-02-18 04:44:00,
2013-02-17 23:45:00,24.1,4.3,30.29,NW,313,5.8,5.8,42,0.00,,---,0.04,VWS V14.01,2013-02-18 04:45:00,
2013-02-17 23:46:00,24.1,4.3,30.29,NW,305,3.1,3.1,42,0.00,,---,0.04,VWS V14.01,2013-02-18 04:46:00,
2013-02-17 23:47:00,24.1,4.3,30.29,NNW,338,3.6,3.6,42,0.00,,---,0.04,VWS V14.01,2013-02-18 04:47:00,
2013-02-17 23:48:00,24.1,4.3,30.29,NNW,329,3.6,3.6,42,0.00,,---,0.04,VWS V14.01,2013-02-18 04:48:00,
2013-02-17 23:49:00,23.9,4.2,30.29,NNW,331,2.7,2.7,42,0.00,,---,0.04,VWS V14.01,2013-02-18 04:49:00,
2013-02-17 23:50:00,23.9,4.2,30.29,NNW,335,2.7,2.7,42,0.00,,---,0.04,VWS V14.01,2013-02-18 04:50:00,
2013-02-17 23:51:00,23.9,4.2,30.29,NNW,335,2.7,2.7,42,0.00,,---,0.04,VWS V14.01,2013-02-18 04:51:00,
2013-02-17 23:52:00,23.9,4.2,30.29,North,353,3.1,3.1,42,0.00,,---,0.04,VWS V14.01,2013-02-18 04:52:00,
2013-02-17 23:53:00,23.9,4.2,30.29,NNW,327,3.1,3.1,42,0.00,,---,0.04,VWS V14.01,2013-02-18 04:53:00,
2013-02-17 23:54:00,23.7,4.0,30.29,NNW,335,2.2,2.2,42,0.00,,---,0.04,VWS V14.01,2013-02-18 04:54:00,
2013-02-17 23:55:00,23.7,4.0,30.29,North,353,2.7,2.7,42,0.00,,---,0.04,VWS V14.01,2013-02-18 04:55:00,
2013-02-17 23:56:00,23.7,4.0,30.29,North,353,2.7,2.7,42,0.00,,---,0.04,VWS V14.01,2013-02-18 04:56:00,
2013-02-17 23:57:00,23.5,3.8,30.29,NNW,344,0.0,0.0,42,0.00,,---,0.04,VWS V14.01,2013-02-18 04:57:00,
2013-02-17 23:58:00,23.5,3.8,30.29,NNW,344,0.0,0.0,42,0.00,,---,0.04,VWS V14.01,2013-02-18 04:58:00,
2013-02-17 23:59:00,23.5,3.8,30.29,NNW,344,0.0,0.0,42,0.00,,---,0.04,VWS V14.01,2013-02-18 04:59:00,